ECMWFNIL_700_spd_000.txt.gz
Wind_Speed
12 11 10 8 7 7 7 8 9 10 11 12 13 14 15 16 17 18 19 22 25 25 22 20 18 17 16 15 15 14 13 13 13 13 13 14 15 15 16 17 17 18
15 14 14 12 12 11 11 12 12 13 13 14 14 15 16 16 17 18 19 21 24 25 23 20 18 17 16 14 14 13 13 14 14 14 14 14 15 16 17 18 18 19
19 18 17 16 15 15 15 15 15 15 15 16 15 15 16 17 17 18 19 20 23 24 23 20 17 15 14 13 12 12 13 14 15 16 15 15 16 17 17 19 19 20
23 22 21 20 20 19 19 18 17 17 17 17 17 17 17 18 18 19 20 20 21 23 22 19 16 15 13 12 12 12 14 14 15 16 16 16 17 18 18 19 20 21
27 25 24 23 23 23 23 21 20 19 19 19 19 18 18 19 19 20 21 21 21 22 21 17 15 14 13 12 13 13 14 14 15 16 16 16 17 17 18 19 20 20
30 29 29 26 25 26 27 25 23 22 21 21 21 20 19 20 20 21 21 22 22 21 19 16 14 13 13 13 13 14 14 15 16 16 16 16 16 17 17 18 19 20
33 33 32 29 26 26 29 28 26 24 23 23 23 21 21 21 21 21 22 23 23 22 18 15 13 13 13 14 14 14 15 15 15 16 15 15 16 16 17 18 19 20
34 34 33 30 27 26 27 29 29 27 25 25 24 22 23 22 21 22 22 23 24 22 18 14 13 13 13 14 15 14 14 14 15 15 15 15 16 16 17 19 20 21
34 35 33 33 32 31 29 27 27 28 27 27 26 26 25 23 22 22 22 23 24 22 18 14 13 13 14 14 15 14 14 15 16 16 16 16 16 17 18 20 21 21
36 36 34 34 35 36 34 29 26 27 28 27 26 27 26 23 23 23 23 22 23 22 18 14 13 13 13 14 14 14 14 15 16 17 17 17 17 17 18 19 20 21
38 38 37 37 38 40 41 36 29 26 27 27 26 26 25 23 23 24 24 22 23 22 17 14 13 12 12 13 13 13 13 15 16 16 17 17 17 18 18 19 21 22
40 42 43 43 44 45 45 38 30 27 28 27 27 26 23 22 23 25 24 21 21 21 17 13 12 11 12 13 12 12 12 13 14 15 16 17 17 18 18 19 22 24
40 43 45 47 49 49 47 40 32 31 32 30 28 26 21 21 23 25 24 20 20 20 16 13 12 12 13 13 11 10 11 12 14 15 17 18 18 18 19 21 24 25
37 40 43 48 50 49 47 43 35 35 38 34 27 24 22 21 23 24 23 21 20 19 16 13 13 13 13 12 10 10 11 13 15 16 18 18 18 19 20 23 25 26
40 45 48 51 53 49 46 44 37 34 41 41 31 23 23 23 23 23 23 20 18 18 17 15 15 15 14 12 12 12 12 13 15 17 18 18 18 18 19 21 24 26
40 49 53 56 58 53 46 46 40 35 41 45 34 22 23 24 23 22 22 17 16 17 18 18 17 16 15 15 15 15 14 14 16 17 18 18 18 19 20 22 25 28
39 48 57 64 65 55 45 46 45 41 44 45 32 21 23 25 21 21 21 17 16 18 19 19 19 18 17 18 18 18 18 18 18 18 19 19 19 21 23 26 29 31
36 44 54 62 57 43 35 38 42 43 47 49 40 29 27 26 21 20 21 19 17 18 19 20 20 19 19 20 21 21 21 22 21 21 21 21 20 22 25 28 31 33
32 36 45 54 44 29 23 25 31 35 41 47 47 41 35 31 25 21 19 18 18 18 20 21 20 20 21 21 22 23 23 24 24 24 25 24 22 24 27 29 32 35
34 33 41 48 40 28 24 22 25 30 36 41 44 43 38 35 29 22 17 16 18 20 21 22 22 23 24 23 24 24 24 26 27 27 28 27 26 27 28 30 34 37
35 34 38 43 40 34 31 29 28 28 30 35 40 39 36 34 29 23 17 17 20 22 24 25 25 26 27 27 26 26 26 26 28 29 30 31 30 30 30 32 36 39
33 34 38 42 41 38 37 35 31 25 28 36 39 38 38 34 29 22 18 19 20 23 25 27 28 30 32 31 29 28 27 27 29 31 32 33 33 32 32 34 37 39
33 34 38 42 40 39 39 38 31 26 29 34 36 38 37 30 24 21 19 21 22 25 28 29 31 34 35 34 32 30 29 28 30 33 34 34 34 34 34 35 36 38
33 34 38 40 38 37 40 40 34 30 29 29 30 29 25 23 22 22 22 23 25 28 30 31 34 38 39 38 35 31 29 29 31 34 35 35 34 34 35 36 36 37
33 33 35 36 34 36 39 41 34 26 21 21 20 18 21 23 22 23 25 26 28 31 32 33 36 38 40 41 37 30 28 29 31 33 34 34 34 34 35 36 35 36
30 31 32 33 33 35 40 40 27 14 15 18 19 21 23 23 24 26 28 31 33 35 35 36 37 39 39 39 35 29 27 29 31 32 32 33 33 33 34 34 34 35

ECMWFNIL_700_spd_003.txt.gz
Wind_Speed
17 17 18 17 16 15 13 11 9 7 6 7 8 9 9 10 11 11 11 12 14 16 18 21 22 20 17 14 12 11 10 10 11 11 11 11 12 12 14 15 16 16
19 19 20 20 19 18 16 13 12 11 10 10 11 12 12 13 13 14 13 13 14 16 18 20 22 22 18 15 13 12 12 12 12 13 13 13 13 13 14 15 15 16
21 21 22 22 22 21 18 16 15 15 13 13 13 14 15 15 16 16 16 15 15 16 18 19 22 23 20 16 14 13 13 13 13 14 14 14 14 14 15 15 16 17
23 24 24 25 24 24 22 20 19 18 16 16 16 17 17 18 18 18 18 17 17 17 18 19 22 23 20 16 15 14 14 13 13 13 13 14 15 15 15 16 17 18
26 26 26 27 27 26 25 23 21 20 19 19 19 20 20 20 20 20 20 20 19 19 18 19 22 23 20 16 15 15 14 13 13 13 13 13 14 15 15 16 17 17
29 29 28 28 29 29 27 25 22 21 22 22 21 20 19 19 21 22 22 21 21 20 19 19 21 23 21 16 15 15 13 13 12 12 12 12 13 14 15 16 17 17
31 30 29 29 30 31 30 27 23 22 23 23 20 18 18 20 21 22 23 23 22 21 21 20 21 23 21 17 15 14 13 12 11 11 11 11 12 13 15 16 17 18
31 31 32 32 32 33 33 29 25 24 25 22 17 18 21 22 22 22 23 23 22 22 22 21 22 22 21 18 16 14 12 11 11 10 10 11 11 12 14 16 17 18
33 34 35 34 34 36 36 35 31 28 27 23 19 20 21 20 22 23 23 22 21 23 24 23 22 22 20 18 16 14 12 11 11 10 10 11 11 13 14 16 18 18
36 36 36 37 39 40 40 41 40 36 32 29 26 24 20 19 22 24 24 22 20 22 25 24 23 22 20 18 17 15 12 11 10 10 10 10 11 13 15 17 18 19
37 35 36 38 40 41 43 45 45 43 40 37 36 31 25 24 26 26 26 25 22 22 25 24 23 22 19 18 18 16 13 10 9 9 10 10 12 13 15 17 18 19
37 37 37 38 37 39 45 48 48 46 43 42 42 39 33 31 30 28 28 27 24 23 25 25 23 22 19 16 17 17 14 10 8 8 9 10 12 14 15 16 17 18
34 40 41 38 39 40 42 47 50 50 48 46 46 44 41 37 33 31 32 31 27 25 25 25 24 23 19 16 15 16 15 11 9 9 10 11 13 14 15 16 17 18
29 38 42 42 44 45 43 44 48 52 54 51 50 51 46 37 33 33 34 34 31 27 26 26 25 24 20 16 15 17 16 14 12 11 12 13 15 16 16 17 17 18
24 30 37 43 47 49 48 47 46 51 54 50 50 53 44 32 31 33 32 32 30 28 27 27 26 24 20 18 17 18 18 17 16 15 15 16 17 17 18 18 19 20
24 26 30 36 41 45 47 47 48 51 47 40 45 51 44 36 38 40 36 33 32 29 27 27 27 24 22 21 21 20 21 21 19 19 19 19 18 19 18 19 20 21
27 28 29 30 34 39 43 45 48 49 42 35 40 47 45 43 46 46 41 38 36 33 30 28 26 23 23 24 24 23 23 24 23 23 23 22 21 20 20 20 21 23
28 29 30 33 36 40 42 44 43 40 33 28 32 39 41 44 48 48 46 42 39 37 33 29 25 23 23 26 26 26 26 26 26 26 26 26 25 24 23 23 24 25
30 31 33 36 39 37 34 32 30 27 24 22 24 28 31 38 46 48 46 44 43 42 37 34 29 25 24 26 27 27 28 29 30 29 29 29 28 27 26 26 27 28
32 34 35 37 36 30 25 24 22 20 20 22 21 21 24 28 39 47 47 43 43 44 41 39 36 29 25 26 28 29 30 32 33 33 32 32 31 30 29 29 30 31
34 36 37 37 33 26 23 24 22 20 22 23 21 21 22 21 27 40 46 42 41 43 42 42 39 30 27 27 29 30 33 35 35 35 34 34 34 33 32 32 33 33
34 35 37 37 33 28 26 24 21 21 21 21 21 22 23 20 22 32 40 41 40 42 42 41 35 28 28 30 30 30 33 36 36 35 36 37 36 35 33 33 34 35
31 32 34 35 34 32 28 23 21 21 21 22 23 23 23 22 22 26 33 37 39 42 44 40 31 29 29 31 31 32 35 35 35 35 37 38 37 35 32 32 35 36
28 29 31 32 31 29 26 24 23 23 23 24 25 25 24 23 22 25 32 37 41 43 43 35 29 29 30 31 34 35 36 36 38 38 39 39 39 38 34 33 35 37
27 28 29 29 27 25 25 26 27 25 24 24 25 24 23 21 21 23 30 37 41 44 40 31 28 29 30 32 34 35 37 40 43 42 41 41 42 40 35 33 35 37
26 26 26 25 24 24 25 27 25 23 21 21 21 21 19 17 17 18 25 34 40 40 35 29 28 30 31 33 35 38 39 42 44 44 44 44 42 37 32 31 34 35

ECMWFNIL_700_spd_006.txt.gz
Wind_Speed
20 19 20 20 20 19 18 16 14 13 11 10 9 9 8 8 8 8 9 10 11 12 14 16 16 17 17 18 17 15 13 12 13 12 11 11 10 10 9 9 10 10
20 20 21 21 22 20 19 18 17 16 15 14 13 12 11 10 9 9 10 11 11 13 15 16 18 18 19 19 18 16 14 13 13 13 12 11 11 11 11 10 11 10
21 21 21 22 23 21 21 20 19 19 18 17 16 15 13 12 12 11 11 11 12 13 15 17 18 19 20 20 18 16 15 14 14 14 13 12 11 11 11 11 12 11
22 22 22 24 25 25 25 25 24 23 22 21 20 18 16 16 15 13 12 12 13 14 15 16 18 19 21 21 20 18 16 15 15 16 14 13 12 12 11 12 12 12
23 23 24 27 28 29 29 29 27 27 25 24 22 20 20 19 17 15 13 12 12 14 15 17 18 19 20 21 21 19 17 16 16 17 16 14 13 13 13 13 13 13
26 26 28 29 30 30 31 32 30 29 28 27 25 24 23 21 19 18 17 16 16 16 16 17 18 19 20 21 21 20 19 18 17 18 17 16 15 14 14 15 14 13
29 30 30 30 31 32 32 33 32 32 31 30 28 27 25 24 23 23 23 22 23 21 18 18 18 18 20 21 22 21 20 18 17 18 18 17 16 16 16 16 15 14
31 32 33 33 33 33 33 33 33 34 34 33 32 30 28 27 26 26 27 28 27 23 18 19 20 20 21 21 22 22 21 19 18 17 17 18 17 17 17 16 14 14
30 31 34 35 35 33 33 34 34 35 36 36 36 34 32 30 28 29 30 31 29 24 21 23 25 24 24 23 22 22 22 20 18 17 17 18 18 18 17 16 15 13
29 30 32 34 34 33 34 35 36 36 37 38 39 38 36 35 34 33 34 34 33 31 28 29 29 28 28 27 24 23 22 20 18 18 17 17 18 17 16 15 14 12
29 30 31 33 33 34 37 38 35 34 36 39 40 40 41 42 41 42 43 43 43 40 36 33 31 30 30 30 27 24 22 20 18 18 18 18 17 16 16 14 13 12
28 30 30 32 34 37 41 40 35 32 34 39 41 41 43 45 46 48 50 51 50 47 43 39 36 33 33 32 29 25 22 20 19 19 19 17 16 15 15 14 13 13
27 28 30 35 38 41 43 42 39 33 30 35 41 39 35 34 35 40 46 48 49 48 43 38 34 35 36 34 30 26 23 20 19 19 19 18 17 16 16 16 15 15
25 28 34 41 43 43 42 41 40 37 34 35 37 34 32 27 23 27 32 33 34 34 32 30 30 33 33 33 32 28 24 22 21 20 20 19 19 19 19 20 18 17
25 31 39 43 44 45 45 41 38 39 38 33 30 29 29 25 21 21 22 21 20 21 24 27 31 32 31 31 33 30 26 24 23 23 22 22 22 22 23 24 23 21
25 31 35 35 37 40 40 34 30 29 25 22 22 26 28 28 26 23 22 23 24 25 26 29 34 36 34 31 32 33 30 27 26 26 25 25 25 25 26 26 26 26
24 28 29 30 31 30 27 23 20 20 18 17 20 23 24 25 25 24 25 28 31 32 33 32 34 38 37 33 33 35 34 32 31 29 27 28 29 29 29 29 29 30
26 28 29 29 30 28 25 22 21 22 22 21 20 19 18 20 22 23 25 29 34 38 39 37 37 38 39 37 35 36 37 36 36 34 31 30 31 32 32 31 31 32
29 30 30 30 31 30 29 27 25 25 25 23 21 20 20 21 22 22 23 27 33 39 41 40 39 41 41 39 38 38 39 40 40 38 34 32 32 33 33 32 33 35
30 30 30 30 31 30 28 25 23 23 24 23 22 21 21 21 21 21 22 25 30 36 41 41 40 42 42 40 39 39 39 40 40 38 36 35 34 33 32 32 35 37
27 27 26 26 26 25 23 23 23 24 23 21 21 20 20 20 20 21 22 24 28 35 40 40 40 42 43 42 41 40 39 39 37 37 38 37 34 31 31 34 36 38
24 23 22 21 22 22 22 24 25 25 21 18 17 18 19 20 20 21 21 23 28 34 37 38 40 42 43 42 41 39 37 36 37 39 38 35 32 31 33 36 38 40
24 22 20 20 21 21 22 24 25 22 18 15 16 18 20 20 19 18 20 23 26 28 32 35 38 38 37 38 37 34 32 35 38 38 34 32 31 33 35 38 41 43
25 23 21 21 22 22 22 23 22 20 18 17 19 21 21 20 17 17 19 20 20 22 26 29 30 29 31 33 31 29 31 36 37 32 30 31 33 35 38 42 44 46
27 25 23 22 22 22 22 21 21 21 20 20 21 22 22 19 15 15 16 16 16 18 22 25 25 27 31 31 28 28 31 33 31 30 31 33 35 37 40 44 45 45
27 26 24 24 23 23 23 22 22 22 22 22 22 22 20 17 13 13 13 13 13 14 18 22 23 25 27 28 28 28 30 30 30 31 32 35 37 40 43 44 43 39

ECMWFNIL_700_spd_009.txt.gz
Wind_Speed
19 19 19 19 20 20 20 20 20 19 17 16 16 15 15 13 12 11 10 10 10 10 11 12 13 13 14 14 14 14 14 14 14 14 14 14 15 14 13 12 12 11
19 19 19 19 21 21 22 22 21 20 19 19 18 17 16 14 12 11 11 12 12 12 13 14 14 15 16 15 15 15 15 15 14 14 14 15 16 16 15 13 12 11
19 19 19 19 21 21 22 22 22 21 21 21 20 19 17 15 13 12 13 14 15 16 16 16 17 17 18 18 17 17 17 17 16 15 14 15 16 17 17 15 14 12
20 19 19 20 21 21 22 23 22 22 22 22 22 21 20 19 16 15 16 17 18 19 19 20 21 20 20 21 21 20 20 18 17 17 16 16 16 16 17 17 15 15
21 20 20 21 22 22 23 24 24 24 24 24 24 23 22 22 21 20 21 21 21 22 23 24 24 24 24 26 26 24 22 21 20 18 17 17 17 17 17 17 16 16
22 21 21 21 22 23 24 25 26 26 26 26 25 24 24 25 25 25 25 25 26 27 28 28 28 27 27 29 29 25 22 22 24 23 20 19 19 18 18 17 17 16
24 23 22 22 24 25 27 29 30 29 28 28 26 26 27 29 29 29 30 30 31 32 33 33 32 30 29 31 33 30 27 26 29 28 25 23 21 20 19 19 18 16
25 24 24 25 27 28 31 33 33 32 32 31 30 30 32 33 32 32 33 34 37 39 38 37 35 32 31 34 39 39 36 35 37 35 31 26 23 21 20 19 18 16
27 27 27 29 29 30 33 35 35 34 34 32 31 33 36 37 36 35 33 34 39 44 43 41 39 37 36 37 40 42 40 39 39 38 34 29 25 23 21 20 18 16
28 29 29 32 34 32 33 36 35 34 34 33 31 32 34 35 34 33 30 29 35 41 45 45 43 42 42 42 41 40 39 39 36 34 32 29 26 24 22 20 18 15
27 29 31 35 37 36 35 36 35 34 33 33 33 30 28 27 28 29 27 27 30 34 39 44 46 46 46 46 44 41 39 38 33 31 31 29 27 25 22 20 18 16
26 29 33 36 36 36 37 35 33 32 30 31 32 29 24 23 24 26 27 28 29 30 32 37 42 44 45 45 45 42 39 36 32 30 31 30 28 26 23 20 19 17
26 29 32 33 33 33 33 34 32 30 28 29 29 28 25 23 22 23 26 28 29 27 28 32 37 39 40 41 41 40 39 36 33 31 31 31 29 27 25 22 20 20
27 30 31 30 31 30 30 33 33 29 27 28 27 25 24 23 22 21 24 28 29 27 27 31 35 36 36 36 36 37 38 36 34 32 31 31 31 30 29 27 24 23
29 30 30 30 31 30 29 30 30 27 27 28 27 23 20 21 21 19 21 25 28 28 29 31 33 35 35 35 34 36 37 36 34 32 32 32 32 33 34 33 30 28
31 31 30 29 29 28 27 28 27 26 27 28 28 25 22 21 20 19 21 24 28 31 33 34 35 37 37 37 36 36 37 37 36 34 34 34 33 33 34 35 35 33
34 33 31 29 27 26 26 27 27 26 27 28 28 26 24 23 21 20 22 25 28 31 33 34 36 38 39 39 39 38 38 39 39 36 35 36 34 33 33 34 36 36
35 33 30 28 27 26 27 27 28 28 28 28 27 25 24 23 22 21 24 27 29 30 30 32 34 37 38 39 40 41 41 41 41 38 36 36 36 35 35 34 35 38
33 31 29 28 27 27 28 28 29 29 28 26 24 23 23 23 23 24 27 29 31 31 31 32 34 36 37 38 40 41 41 41 43 40 36 35 36 36 36 34 34 36
32 30 28 28 28 29 29 29 29 28 26 23 23 23 23 23 24 26 29 31 32 32 31 32 35 36 37 37 38 39 40 41 44 42 36 34 34 34 34 33 32 33
30 29 28 29 30 29 29 28 28 27 24 22 22 22 22 23 25 26 28 29 31 32 32 33 35 37 38 37 36 37 38 40 43 41 35 32 32 31 32 33 32 33
30 30 30 30 29 27 27 26 26 24 23 22 21 22 23 23 24 25 27 28 29 31 32 34 36 37 37 36 35 35 36 39 40 36 30 28 29 30 32 33 33 34
32 31 30 28 26 25 25 24 23 21 20 20 21 22 22 22 23 25 27 28 30 31 32 34 35 36 35 32 31 32 34 35 33 28 25 25 27 30 32 32 32 33
33 30 28 26 25 24 23 21 20 19 20 20 21 22 23 24 25 27 28 30 30 31 31 31 31 32 31 29 30 30 30 28 25 22 22 24 27 30 30 28 29 30
31 28 26 24 23 21 21 20 20 21 23 24 25 25 25 26 27 28 29 29 29 29 29 28 28 29 29 28 28 28 25 21 19 19 20 22 24 28 26 24 26 28
27 24 22 20 20 21 22 23 25 27 28 29 28 27 27 27 27 28 29 28 26 27 27 26 25 25 24 23 24 23 21 19 19 18 19 20 22 24 24 24 27 30

ECMWFNIL_700_spd_012.txt.gz
Wind_Speed
19 18 18 18 18 17 17 17 16 16 15 15 14 14 14 13 13 13 12 13 13 13 13 13 14 15 16 17 18 19 20 21 21 21 22 21 19 17 17 17 16 16
19 18 18 18 18 18 18 17 18 17 16 16 16 15 15 14 13 13 13 14 15 15 15 15 16 18 19 19 20 20 19 21 22 23 26 27 24 21 19 18 17 16
19 18 18 18 18 18 18 18 19 19 18 18 17 16 15 15 14 15 15 15 16 17 18 18 20 21 22 22 21 20 19 19 20 21 26 29 27 24 22 21 19 18
19 18 18 18 18 18 18 19 20 19 19 19 18 16 15 16 16 16 16 17 18 19 20 22 24 24 25 24 24 22 20 19 18 18 21 26 28 28 28 27 25 22
19 18 18 18 18 18 19 20 20 20 19 19 18 17 16 16 17 17 18 20 21 22 24 25 27 27 27 27 27 25 24 22 20 20 21 24 27 30 33 34 31 27
20 19 19 18 18 18 20 21 20 19 19 18 18 19 18 17 19 20 21 22 24 25 26 28 28 29 29 30 31 29 27 26 25 25 26 26 27 30 34 34 31 26
21 20 20 19 19 19 21 22 20 18 19 19 19 19 19 19 20 22 23 24 26 27 29 29 29 29 30 31 32 32 30 29 29 30 31 30 30 32 31 28 25 24
23 22 21 20 20 21 22 22 21 19 19 19 19 20 21 21 22 23 24 25 26 28 30 31 30 30 30 31 33 34 33 33 33 33 34 34 33 32 29 24 23 23
25 25 23 21 22 24 23 22 21 20 20 21 21 21 22 22 23 25 26 25 25 26 28 30 31 31 31 31 32 34 34 35 35 35 36 35 33 32 29 25 24 24
28 27 25 25 26 26 24 22 21 22 22 22 22 21 20 21 22 23 25 25 25 25 26 27 28 30 31 31 31 31 32 33 34 35 34 33 31 29 29 27 26 25
28 28 28 28 28 27 25 24 23 23 23 23 23 21 19 19 20 20 21 23 25 26 27 26 27 28 30 30 30 30 30 31 32 32 31 30 28 28 28 27 27 27
30 30 30 30 29 27 25 25 24 24 25 24 23 22 20 19 19 19 20 22 24 26 28 28 29 30 30 31 31 31 31 31 31 31 30 28 27 28 28 27 27 27
30 31 31 30 28 26 25 25 24 25 25 24 22 21 21 21 20 19 19 21 24 26 28 29 30 31 32 33 33 32 31 31 31 31 30 29 28 28 28 28 27 27
28 30 30 29 27 26 25 25 25 25 24 22 21 21 22 23 23 20 19 22 24 26 27 29 31 32 33 34 35 34 34 33 33 33 32 32 31 29 29 30 30 29
25 27 28 28 27 26 25 24 25 24 23 22 21 20 21 24 27 24 22 24 26 26 27 29 31 32 33 35 36 36 37 37 37 36 35 34 33 32 32 33 33 32
24 25 27 27 27 25 23 23 23 23 23 24 22 21 22 25 28 27 25 26 27 28 29 30 31 33 34 35 36 38 39 39 39 38 36 35 35 35 34 34 35 34
24 26 27 28 27 24 23 22 22 23 24 25 24 24 25 27 29 29 28 27 29 30 30 31 32 33 33 34 36 39 40 39 39 39 38 37 37 37 36 36 35 34
26 28 29 29 27 25 23 22 22 24 25 26 26 27 28 29 30 30 29 28 29 31 31 32 33 33 33 34 36 39 41 40 40 40 40 39 38 38 37 37 36 35
27 29 29 28 27 25 24 23 24 25 27 27 28 29 30 31 31 30 29 29 30 31 31 32 33 33 33 34 36 39 42 42 41 40 41 41 40 39 38 37 37 36
30 30 28 26 26 25 25 25 26 27 28 28 30 31 31 31 31 30 29 29 31 30 30 31 33 33 34 34 36 40 42 42 41 41 42 42 42 40 37 37 38 35
33 30 27 26 27 27 26 27 28 29 29 29 30 31 31 30 30 28 27 28 30 30 30 31 33 34 34 36 37 40 42 42 41 41 42 42 41 39 37 37 35 29
33 31 28 28 28 27 28 29 30 29 28 28 29 29 28 27 26 26 26 27 28 30 30 32 34 36 37 38 39 40 40 40 40 40 40 39 36 35 34 33 27 23
34 32 31 30 29 29 30 30 29 28 27 26 25 24 23 23 23 24 26 28 30 31 32 34 36 39 39 39 39 38 37 37 37 38 37 34 31 31 31 27 21 19
33 32 31 31 31 31 30 29 27 26 24 21 20 20 19 21 24 27 30 32 32 33 34 35 37 39 40 38 38 37 36 36 36 35 32 29 28 28 26 21 17 17
33 31 31 31 32 30 28 27 25 22 19 18 18 18 21 26 31 32 33 33 32 32 33 34 35 37 37 37 36 37 37 36 35 32 29 27 25 22 19 16 14 14
32 31 32 32 30 28 27 25 22 19 17 16 18 22 29 34 35 33 31 30 30 31 31 32 33 34 35 35 36 37 37 35 33 29 26 24 20 17 15 15 14 12

ECMWFNIL_700_spd_015.txt.gz
Wind_Speed
18 17 17 17 17 16 15 14 14 14 14 13 12 11 10 10 8 8 10 8 7 10 12 12 12 13 13 14 14 14 16 17 16 16 15 14 15 17 19 20 20 20
19 18 17 16 16 16 14 13 14 14 13 13 11 10 10 9 8 8 9 9 9 12 14 13 14 14 14 15 16 17 18 18 17 17 17 15 16 18 22 23 23 23
20 19 17 16 16 16 14 14 15 14 13 13 12 11 9 8 8 8 9 10 11 14 16 16 15 15 15 16 17 18 20 20 19 19 19 18 19 21 23 24 24 24
22 20 18 16 17 17 15 15 15 13 12 13 12 10 8 6 6 7 8 10 12 15 16 17 17 16 16 17 18 19 21 22 22 22 22 22 22 23 25 26 26 25
23 21 18 17 17 18 17 15 14 12 12 12 12 10 8 8 7 7 8 10 12 14 16 17 18 18 18 18 19 21 22 23 24 24 23 24 24 25 26 27 27 24
25 22 19 18 19 19 17 15 13 12 12 12 11 10 10 10 9 8 9 10 12 14 15 16 18 19 20 20 21 23 24 25 25 25 25 24 24 25 26 26 25 23
26 23 21 20 20 20 17 15 13 13 13 12 10 9 10 11 11 11 11 12 14 15 15 15 16 18 20 21 22 23 25 26 26 26 25 24 23 23 24 25 24 22
26 24 23 22 22 20 17 15 13 13 13 13 10 8 7 8 10 12 13 14 15 16 15 16 16 16 18 20 21 22 24 26 26 25 24 23 22 21 21 22 23 22
27 26 26 25 23 21 17 14 13 13 13 12 10 8 7 6 8 11 13 14 16 16 16 17 16 17 18 20 22 22 23 24 24 24 24 23 21 20 19 20 22 23
28 28 28 27 25 21 17 15 15 14 13 12 11 10 9 8 8 10 12 13 14 15 16 16 17 18 19 21 23 24 25 25 25 25 25 25 23 20 19 19 21 23
29 30 30 29 27 23 19 17 17 15 13 13 12 11 11 10 10 11 12 14 15 15 16 17 18 19 20 21 23 25 27 28 27 27 28 29 28 25 22 20 21 22
30 31 31 30 28 24 20 19 19 17 15 14 13 13 13 13 12 13 14 16 16 17 18 19 21 22 22 23 24 25 28 29 29 29 30 31 31 30 27 24 23 22
30 31 31 30 28 24 22 21 20 19 17 15 14 15 15 14 14 14 15 17 18 19 20 21 23 25 26 26 27 27 28 29 31 32 32 32 33 32 30 27 25 23
27 29 30 30 27 25 24 23 22 20 18 16 15 16 16 15 15 15 16 19 21 22 22 24 25 27 28 29 30 30 30 31 32 33 34 34 33 33 31 29 27 25
25 28 29 29 28 27 27 25 23 21 18 16 15 15 16 17 17 18 19 20 22 23 25 26 27 29 29 30 32 33 33 33 34 35 35 35 34 33 32 31 30 28
25 27 28 28 29 28 28 26 24 22 20 18 17 16 16 18 19 21 22 23 23 25 26 27 28 29 30 31 32 34 35 35 35 36 36 36 35 34 32 32 32 30
26 27 27 28 28 27 27 26 24 22 21 20 20 19 19 20 21 23 24 24 25 26 27 28 28 29 30 32 33 35 36 36 36 36 36 36 35 34 32 32 33 32
27 27 27 27 27 27 26 25 23 22 22 22 22 21 22 22 23 24 25 26 27 28 29 29 28 29 31 32 34 35 35 36 36 36 36 36 35 34 33 33 33 32
28 28 28 28 27 26 25 24 23 23 23 23 23 23 23 24 24 25 26 27 27 28 28 28 28 30 32 33 33 34 35 36 36 36 36 35 36 36 35 34 33 32
29 29 28 28 27 25 24 24 24 24 23 23 24 24 24 25 25 26 27 27 26 25 25 27 29 31 33 33 33 34 35 36 36 37 37 36 37 38 37 35 33 32
31 31 30 29 27 25 25 25 25 25 25 25 25 25 25 26 26 26 25 24 23 23 24 26 29 31 33 34 34 35 36 37 38 39 38 37 38 37 36 34 33 32
32 33 33 33 30 27 26 26 27 27 26 25 25 26 26 26 25 24 22 21 20 20 22 26 29 32 34 34 34 35 36 37 38 38 37 36 36 34 33 34 33 29
33 35 35 35 33 30 27 26 26 25 25 26 26 27 26 25 23 21 19 18 18 19 24 30 34 35 35 33 32 33 34 35 36 36 35 35 34 32 33 34 30 25
35 36 37 36 34 30 27 26 24 24 25 26 26 27 26 24 21 19 17 17 18 21 26 32 36 35 33 32 31 31 32 32 33 34 34 33 32 31 31 30 26 23
37 37 38 38 34 31 28 25 25 26 26 26 26 27 25 22 19 17 16 18 21 23 27 31 32 31 31 30 29 29 30 30 31 31 31 31 30 29 27 25 23 22
38 39 39 38 35 32 29 26 27 28 27 27 27 27 24 20 18 17 18 20 22 24 26 28 27 27 28 28 28 28 29 29 28 29 29 28 27 25 23 21 19 18

ECMWFNIL_700_spd_018.txt.gz
Wind_Speed
23 22 21 19 17 16 17 18 18 16 15 14 13 13 14 15 16 15 14 13 13 13 12 10 7 6 6 5 6 7 9 10 11 13 15 16 17 18 18 19 20 21
25 23 22 20 18 17 17 18 17 15 15 15 15 15 16 17 16 16 14 13 13 13 13 12 8 7 7 7 7 9 10 10 11 12 14 16 18 19 19 20 21 22
26 24 23 20 18 18 18 17 16 16 17 17 18 17 18 17 16 16 15 13 13 13 14 13 10 9 9 9 9 10 11 12 13 13 15 16 18 19 19 18 19 21
26 25 23 21 19 19 18 17 16 17 18 19 19 18 18 17 16 16 15 13 12 13 13 13 12 10 10 11 11 12 13 14 14 15 17 18 17 18 18 17 18 20
26 25 24 23 22 21 20 19 18 19 19 20 20 19 18 17 16 16 15 12 11 12 13 13 13 12 11 11 11 12 13 14 15 16 17 18 17 17 17 16 17 19
26 26 25 24 24 23 21 20 20 20 21 20 19 19 18 17 16 16 15 12 11 12 13 14 13 13 12 11 11 11 12 12 13 15 16 16 16 17 17 16 16 18
27 27 27 26 26 24 23 22 22 22 22 21 19 19 18 17 16 15 14 13 13 13 14 14 14 14 13 13 12 11 12 12 13 14 15 15 16 16 17 17 17 17
26 28 28 28 27 25 24 24 23 23 22 22 20 19 18 17 15 14 14 13 13 13 13 14 14 14 14 14 14 14 15 15 16 16 17 18 17 17 18 17 17 18
27 29 29 30 28 26 25 25 24 23 23 22 21 20 19 16 14 14 13 13 12 11 11 11 11 12 12 12 13 14 16 16 17 19 20 21 21 20 20 19 18 18
27 30 31 31 30 27 25 25 24 23 22 22 22 22 20 17 15 14 13 12 11 10 9 9 9 9 10 10 11 13 15 16 18 19 20 21 22 22 22 21 20 19
27 31 33 32 30 28 26 25 24 23 22 22 22 21 20 18 17 15 13 12 11 10 10 9 9 10 10 11 12 13 15 18 19 20 21 22 23 23 23 22 22 21
27 30 32 32 31 29 27 26 25 23 23 23 22 21 20 19 18 16 14 13 12 11 11 11 11 12 12 13 14 16 18 20 22 23 24 24 24 23 23 23 22 21
28 29 31 32 31 29 28 27 26 24 23 22 22 21 20 19 18 17 15 14 14 14 13 13 14 15 15 17 18 20 22 24 26 26 27 26 25 24 24 23 22 21
29 29 29 30 31 30 30 29 28 26 24 23 22 22 21 20 18 17 17 17 16 16 16 16 17 18 18 19 20 22 24 26 28 28 28 27 26 25 24 24 23 22
30 29 29 30 31 32 32 30 29 28 26 25 24 23 22 21 20 20 20 20 19 18 18 18 19 19 20 21 22 23 25 27 28 28 28 27 26 25 24 24 24 23
31 30 30 30 31 32 33 32 30 29 28 27 26 25 24 24 24 24 23 22 21 19 19 20 21 21 22 22 23 24 25 26 28 28 28 27 26 25 25 24 24 23
32 30 30 30 31 32 33 33 32 31 30 29 28 27 27 27 27 26 25 23 22 21 21 22 23 23 23 24 25 27 27 27 27 27 28 28 27 26 25 25 24 23
33 31 31 31 32 32 33 33 33 33 32 32 31 30 30 29 28 26 25 24 23 23 23 23 23 23 23 25 27 28 28 28 28 28 28 29 29 28 26 25 24 23
34 32 32 32 32 32 33 34 35 35 34 34 33 32 31 30 28 26 25 24 23 23 23 23 23 23 22 23 26 28 29 30 30 30 30 30 30 29 27 25 24 24
34 33 32 32 32 33 33 34 35 35 35 35 34 34 32 30 28 27 25 24 23 23 23 23 22 21 20 22 25 28 30 31 31 31 31 31 30 29 27 25 24 23
35 34 34 33 33 34 33 34 35 36 36 35 34 34 32 30 28 26 25 24 24 24 24 23 21 18 19 23 26 28 29 30 31 30 29 29 29 27 26 24 23 23
34 34 35 34 34 35 33 32 34 35 35 34 33 32 30 29 27 26 24 24 25 25 25 22 19 18 20 24 26 28 28 29 30 28 27 27 27 25 23 22 21 23
34 34 35 35 35 35 34 32 32 33 33 32 31 31 29 28 26 25 24 25 25 25 24 21 18 18 22 25 26 27 27 26 27 27 26 25 24 23 22 21 21 21
33 34 35 36 36 35 33 31 30 29 29 30 30 29 28 27 26 25 25 25 25 25 23 20 18 19 22 24 25 26 25 24 24 25 24 24 23 22 22 20 19 19
33 34 34 35 36 36 34 32 31 28 26 27 28 28 28 28 27 26 26 26 26 24 21 19 18 20 22 23 25 24 23 22 23 24 24 23 23 22 21 20 18 18
34 34 34 34 36 37 36 35 34 31 28 27 27 29 30 30 29 27 26 26 25 24 22 19 19 20 21 23 24 23 22 23 24 24 23 23 23 21 20 19 17 16

ECMWFNIL_700_spd_021.txt.gz
Wind_Speed
27 27 26 26 24 23 22 22 21 19 19 19 18 16 15 14 16 17 17 17 17 16 16 15 13 11 10 9 7 6 5 4 5 7 8 9 10 12 15 16 16 16
28 28 28 27 26 25 24 23 21 20 20 20 18 16 16 17 18 18 18 18 18 18 17 15 13 11 10 11 10 8 7 7 7 8 9 10 10 11 13 15 16 16
30 29 29 29 27 26 24 23 22 21 21 21 20 19 18 19 19 20 20 20 19 19 18 16 13 11 11 12 12 10 9 8 9 10 9 9 10 10 12 14 15 15
31 31 30 29 27 26 25 24 23 22 22 22 21 21 21 21 22 21 21 21 20 20 19 16 14 12 11 12 12 11 11 10 10 10 9 8 8 9 10 12 13 13
32 31 30 29 28 27 26 25 24 23 22 22 22 22 23 24 24 23 22 21 20 20 19 17 15 13 11 11 11 11 11 10 10 9 7 7 7 7 8 10 11 13
32 31 30 29 28 27 27 26 24 23 23 24 24 24 24 25 25 24 23 22 21 20 19 17 15 14 12 11 11 10 10 10 10 9 8 9 9 9 9 10 11 12
31 31 31 29 28 28 27 26 25 24 24 25 25 26 26 26 26 25 24 22 21 20 19 18 16 15 14 14 13 12 12 12 12 11 11 11 12 12 12 12 13 13
30 31 30 29 28 29 28 27 26 25 26 27 27 27 27 27 27 26 25 24 22 20 18 18 17 16 16 16 14 14 13 13 13 12 12 12 13 13 13 14 14 14
29 30 30 29 29 29 29 28 27 27 27 28 28 28 28 27 27 26 26 24 22 20 19 18 17 17 17 15 14 13 12 12 12 11 12 13 14 14 15 15 16 15
28 28 29 28 28 30 30 29 28 28 29 29 29 29 29 28 27 27 26 25 23 21 19 18 17 17 16 14 12 11 10 11 12 12 13 15 16 16 16 17 17 17
28 28 28 27 27 29 30 29 30 30 30 31 30 30 29 28 27 27 26 25 23 21 19 18 17 16 15 13 12 12 12 13 14 15 16 17 18 18 18 18 18 17
29 29 27 26 26 29 30 30 30 31 32 32 31 30 29 28 27 26 25 24 22 21 19 18 17 16 16 15 15 15 15 16 17 17 18 19 20 19 19 19 19 18
31 30 28 26 25 27 31 31 31 32 32 32 32 31 30 29 27 26 25 23 22 21 20 19 18 18 18 17 17 18 18 19 19 20 20 21 21 20 20 20 19 19
33 32 29 26 25 27 31 32 31 31 32 33 32 32 31 29 28 27 26 25 24 23 22 21 21 20 19 19 19 19 19 20 21 22 22 22 22 21 20 20 20 20
35 34 32 29 26 27 30 32 32 31 32 32 32 32 31 30 29 29 28 27 26 24 23 23 22 20 19 19 19 19 20 21 22 22 23 23 23 22 21 21 20 21
36 36 34 31 29 27 29 32 33 32 32 32 32 32 32 31 30 30 29 28 26 25 24 23 21 20 20 19 19 20 21 23 23 23 24 24 24 24 23 22 22 22
36 37 37 34 31 29 29 31 34 34 33 32 33 33 32 31 31 32 31 28 26 25 24 23 21 21 21 21 21 22 23 24 24 24 24 25 25 25 24 24 24 24
37 38 38 36 34 31 30 30 33 35 34 34 34 34 32 32 32 33 31 28 27 26 25 23 23 23 23 23 23 24 25 25 25 25 25 26 27 26 26 25 25 24
36 38 38 38 35 33 32 32 33 34 35 34 35 34 34 33 34 34 32 29 28 27 25 24 24 25 25 25 25 25 25 26 27 27 27 28 28 28 27 25 23 23
35 37 38 38 37 35 34 33 33 34 35 35 36 36 35 35 36 35 33 31 30 28 27 26 27 27 27 26 26 25 26 28 28 29 29 29 29 28 26 23 21 22
36 37 38 39 39 38 37 36 34 33 34 36 37 37 36 36 37 37 34 32 31 30 29 29 28 28 27 27 26 27 28 29 29 30 30 29 29 28 24 20 21 23
36 37 38 39 39 39 39 37 36 35 35 36 37 37 37 38 39 38 36 35 33 31 31 31 30 29 29 28 28 28 29 30 29 30 30 29 29 27 22 21 24 24
35 38 39 39 40 40 40 38 37 36 36 36 37 39 40 40 40 39 37 36 34 33 33 33 31 31 30 29 28 29 30 30 30 29 29 28 27 24 23 24 25 24
33 37 40 40 40 39 39 39 38 37 37 37 38 39 40 40 40 38 38 37 36 35 35 34 33 32 30 30 29 30 30 30 28 27 27 26 25 24 25 25 23 22
32 36 40 41 40 39 39 39 38 37 37 38 38 39 39 40 40 39 39 38 37 37 36 35 34 32 31 30 30 30 30 28 26 26 26 25 25 26 26 24 22 21
30 34 39 41 40 38 38 39 39 38 39 39 39 38 38 40 41 40 39 39 38 38 37 36 34 32 31 31 31 30 29 27 25 26 25 24 25 27 26 24 24 22

ECMWFNIL_700_spd_024.txt.gz
Wind_Speed
26 26 25 24 23 22 22 21 21 21 20 18 18 19 19 18 17 17 16 16 16 17 17 17 17 16 15 13 11 10 9 6 2 2 5 6 5 6 7 9 10 10
28 28 27 27 26 24 23 22 22 22 20 19 18 20 21 21 20 19 19 18 18 18 19 19 19 18 16 15 13 12 10 8 5 3 5 5 4 4 5 7 7 8
30 29 29 28 27 25 23 23 22 22 21 20 19 20 22 22 21 21 20 20 20 20 20 20 20 19 17 16 14 13 11 9 7 5 5 5 3 4 5 6 6 6
32 31 30 28 28 26 25 25 24 22 22 21 20 21 23 23 23 23 22 21 21 21 21 20 20 19 18 17 16 13 12 10 8 7 6 5 4 4 5 6 6 6
33 33 31 30 29 28 28 27 25 23 22 21 20 21 23 24 24 24 23 23 22 22 22 21 21 20 19 17 16 14 12 10 8 7 7 7 6 7 7 7 7 7
32 32 32 31 31 30 30 29 27 25 23 22 22 22 24 25 25 25 24 23 23 23 23 22 22 20 19 17 15 14 13 11 10 9 9 9 9 9 9 8 8 8
31 32 32 32 33 32 31 29 28 26 24 23 23 23 25 26 27 26 25 24 24 24 23 23 23 21 20 18 16 14 13 12 12 12 11 12 12 11 10 9 9 9
29 31 32 33 34 34 32 30 29 26 25 25 24 24 25 27 27 27 26 25 25 25 25 25 24 23 22 20 18 16 15 15 15 14 14 14 13 12 12 12 11 11
27 28 30 32 33 34 33 32 30 27 26 26 26 25 26 27 28 28 28 27 26 26 26 26 25 24 23 22 20 18 17 17 17 16 15 15 15 15 15 14 13 12
26 27 28 30 31 32 32 31 30 29 27 27 27 26 27 28 29 30 29 29 28 28 28 27 26 26 25 23 21 20 19 18 17 16 16 16 17 17 17 16 15 14
28 28 29 29 29 29 30 30 29 29 28 29 29 28 28 29 30 30 31 30 29 29 28 28 27 26 25 24 22 21 20 18 18 17 17 18 18 19 18 18 17 16
30 30 30 29 28 27 27 27 28 28 30 31 30 30 30 30 30 31 32 31 30 29 29 28 27 27 26 25 23 22 21 19 19 18 19 20 20 20 20 19 19 18
32 31 31 30 28 27 26 25 26 28 31 32 32 32 32 31 31 32 32 31 31 31 30 29 28 28 27 25 24 23 22 21 20 20 21 22 21 21 21 21 21 20
33 32 31 30 29 27 26 25 26 28 32 34 33 34 34 33 33 32 32 31 31 32 31 30 30 30 28 27 25 24 22 21 21 21 22 23 22 22 23 23 22 21
33 32 31 31 31 30 28 26 26 28 32 35 35 35 35 35 34 34 33 32 32 33 33 32 32 31 29 28 26 24 22 22 23 24 24 24 24 24 25 24 23 22
33 33 33 33 33 33 30 28 27 28 32 36 36 36 37 37 36 36 35 34 34 35 35 34 33 32 30 28 26 24 24 25 25 25 26 26 26 27 27 26 24 22
32 34 36 36 36 36 34 31 29 29 32 36 37 37 39 39 38 38 37 36 36 36 36 35 33 31 29 28 27 27 27 27 26 26 27 27 28 28 28 27 26 24
31 33 35 37 38 38 37 35 32 31 32 35 38 38 39 40 40 39 39 38 38 38 37 35 33 31 30 30 29 28 28 27 27 27 28 28 29 29 28 28 26 25
30 31 34 37 39 40 40 38 36 33 33 35 37 38 39 40 41 40 40 40 40 40 39 37 34 32 31 31 30 29 28 28 28 28 29 30 30 30 30 29 27 26
31 33 34 36 39 40 42 42 39 36 34 34 37 39 40 41 41 41 41 41 41 41 40 38 36 34 33 31 30 29 29 29 29 30 31 32 32 32 31 30 30 29
33 34 35 36 38 41 43 44 43 39 37 36 36 38 40 40 41 41 42 42 42 42 42 40 37 35 34 32 30 30 30 31 31 32 33 33 33 34 33 32 33 29
33 35 36 36 38 40 43 45 45 43 40 38 37 38 39 40 41 42 43 43 42 42 42 41 38 36 35 33 31 31 32 33 34 35 35 34 34 34 35 35 33 26
33 36 37 36 36 37 40 43 46 45 43 41 39 38 39 40 41 42 43 43 43 42 42 41 39 37 36 34 32 32 33 35 36 36 36 36 35 36 37 35 29 24
33 34 33 32 33 34 36 39 42 45 45 43 42 40 39 40 40 42 43 43 44 43 42 41 40 39 37 35 34 34 35 37 38 38 38 37 36 37 37 34 29 25
29 29 28 29 30 31 34 37 39 42 44 45 44 42 40 40 41 42 43 44 44 43 42 42 41 40 39 37 36 36 37 39 40 40 39 37 37 37 36 33 30 27
26 25 26 27 28 28 31 35 37 38 42 45 46 45 43 42 42 44 44 45 44 43 44 44 43 41 41 40 38 38 39 41 42 42 40 38 37 37 35 32 29 27

ECMWFNIL_700_spd_027.txt.gz
Wind_Speed
26 26 25 24 23 21 20 19 19 19 18 17 15 13 14 16 18 19 19 19 19 18 20 22 22 22 20 18 17 16 14 11 8 5 2 1 1 1 2 3 4 4
27 26 26 25 24 23 21 21 20 20 19 18 17 15 15 17 20 22 21 21 21 21 21 23 24 24 22 20 19 18 16 14 11 8 5 3 3 2 0 2 3 3
28 28 27 26 25 23 23 23 22 22 21 20 19 17 16 18 21 23 23 23 23 23 24 25 26 25 24 22 21 19 18 16 14 12 8 5 5 4 2 2 3 4
29 29 28 27 26 25 25 25 24 23 22 21 20 19 18 18 21 24 25 25 25 25 26 26 27 27 25 24 22 20 19 17 16 14 10 8 7 6 5 4 5 6
30 30 30 29 28 28 28 27 26 24 23 22 21 21 20 19 21 24 26 26 26 26 27 28 28 28 27 25 24 22 20 19 17 15 12 10 10 9 8 7 7 8
31 31 31 31 30 30 30 29 27 26 25 23 22 22 22 20 21 23 25 26 27 27 28 29 30 29 28 27 25 23 21 20 18 15 13 13 12 12 10 9 10 10
32 33 32 32 32 32 31 31 29 28 27 26 25 24 24 23 22 23 25 26 27 28 29 30 31 30 29 28 26 24 23 21 18 17 15 15 15 13 12 12 12 12
30 32 33 33 33 33 33 33 32 31 30 29 27 26 25 25 24 23 25 27 27 29 30 30 31 31 30 29 28 26 24 22 20 18 17 16 16 15 14 14 14 15
26 28 30 32 33 33 34 33 33 32 32 31 29 28 27 26 26 25 25 27 28 29 31 32 32 32 31 30 29 27 25 23 21 20 18 17 17 16 16 16 16 17
25 25 27 30 32 33 34 34 33 33 33 32 31 30 28 28 28 27 27 28 29 30 32 33 33 33 33 32 30 28 26 24 22 21 19 18 18 18 19 19 19 19
27 26 26 27 29 30 31 32 33 33 33 33 32 30 29 29 30 29 29 29 30 31 32 33 33 34 33 33 32 30 27 25 24 23 21 20 21 21 21 21 21 20
28 28 28 27 28 28 27 28 30 31 31 31 31 30 30 31 31 31 31 30 30 31 33 33 34 34 34 34 33 31 29 27 26 24 23 23 23 23 23 23 23 21
30 30 30 29 28 27 26 26 27 27 28 28 28 30 31 32 32 33 32 31 31 32 33 33 34 35 35 34 34 33 31 29 28 26 25 25 24 24 24 25 24 23
31 31 31 30 29 28 27 27 27 27 26 26 27 29 31 32 33 34 33 32 32 33 34 35 36 36 36 35 35 34 32 31 29 27 26 26 26 25 26 26 25 24
32 32 31 30 30 30 30 30 29 28 27 26 26 28 30 33 34 35 35 34 34 34 35 36 37 38 37 36 35 34 33 32 30 28 27 27 26 26 27 27 27 26
33 32 31 31 31 32 32 32 30 29 29 28 27 27 29 32 35 36 37 36 36 36 37 38 39 39 37 35 35 35 33 32 31 30 29 28 27 28 28 29 28 27
33 33 32 32 32 32 33 33 32 31 30 29 29 29 29 31 35 37 38 38 38 37 38 39 40 39 37 36 36 36 35 34 32 31 31 29 29 29 30 30 29 29
33 33 33 32 32 32 33 34 34 33 33 31 31 30 30 31 34 38 39 39 39 39 39 41 41 39 38 38 37 37 36 35 34 33 32 30 30 31 31 31 31 32
32 32 32 32 32 32 32 33 34 35 35 34 33 32 31 32 34 37 39 40 41 41 41 41 41 40 39 39 39 38 37 37 36 35 33 32 33 33 33 33 33 34
32 32 31 31 31 32 32 33 34 36 37 37 36 34 34 34 35 37 40 41 42 43 43 42 42 40 40 40 40 39 38 38 37 35 34 35 36 35 35 35 36 35
32 32 31 31 31 31 32 32 33 35 37 38 38 37 36 36 36 38 40 42 43 44 44 44 43 42 41 41 41 40 39 39 37 36 36 37 38 38 37 37 37 36
32 32 31 30 30 30 31 32 33 34 36 38 39 38 38 38 38 39 40 43 45 45 46 46 45 43 43 43 42 41 40 40 39 38 39 40 40 39 39 39 38 36
30 30 29 29 30 30 30 31 33 34 36 37 39 40 40 39 39 40 41 43 45 46 47 47 47 45 44 44 44 43 42 42 41 41 42 42 41 41 40 40 39 36
28 29 30 30 30 30 31 31 32 33 35 36 37 39 40 39 39 41 42 43 45 46 47 47 48 47 46 46 46 46 45 44 44 44 44 43 42 42 42 42 40 36
30 32 33 32 29 28 29 30 30 30 31 32 34 36 38 39 39 41 43 45 44 46 48 49 49 49 48 48 48 49 48 47 47 48 47 45 44 45 44 43 40 36
32 33 32 31 30 28 26 27 27 26 27 28 31 33 36 36 37 37 40 45 47 47 48 49 50 50 50 50 50 50 50 50 50 50 49 46 46 47 46 45 41 37

ECMWFNIL_700_spd_030.txt.gz
Wind_Speed
29 27 26 24 23 22 21 19 18 18 17 17 15 14 12 11 13 17 19 20 20 20 19 20 22 24 24 22 20 18 16 15 13 10 7 5 4 3 2 1 1 0
29 28 27 26 25 23 22 21 20 20 19 18 18 17 15 14 15 17 20 22 22 22 21 22 24 26 26 24 22 20 19 17 15 12 10 7 5 5 5 4 3 2
29 29 28 27 25 24 23 23 22 21 21 20 20 19 18 17 16 17 20 22 24 24 24 24 25 27 27 26 24 22 21 20 17 15 13 10 8 7 7 6 4 4
30 29 28 27 26 25 25 25 24 23 23 22 21 21 20 19 18 18 19 22 24 26 26 26 27 28 29 28 26 25 23 22 20 18 16 13 10 9 9 8 6 6
30 29 28 27 27 27 27 27 26 25 25 25 23 23 22 21 19 19 19 21 23 26 27 27 28 29 30 30 29 27 25 24 23 21 18 15 13 12 11 10 8 8
31 30 29 29 28 28 28 28 28 27 27 27 26 25 24 23 21 20 20 21 22 25 26 28 29 30 31 32 31 29 27 26 25 23 21 18 16 15 14 12 10 10
31 31 30 30 29 30 30 29 29 29 29 29 29 27 26 25 23 22 22 21 22 24 26 27 29 31 32 33 33 31 29 27 27 26 23 21 19 18 17 15 13 12
30 31 31 31 31 31 31 30 30 30 30 30 30 29 27 26 25 24 24 23 23 24 25 27 28 31 33 35 34 33 30 29 28 27 25 24 22 21 19 17 15 15
28 30 30 31 32 32 32 31 31 31 31 31 31 30 29 29 27 26 26 25 25 25 25 26 28 31 34 36 35 34 32 31 30 29 27 26 24 23 21 20 18 17
26 27 28 30 31 32 33 32 32 32 32 32 32 32 32 31 30 29 28 27 27 27 27 27 28 30 34 36 36 35 34 33 32 31 30 28 27 25 24 22 21 20
27 27 27 27 29 31 33 33 33 33 33 33 33 33 34 33 32 31 30 29 29 29 28 28 28 30 33 36 37 37 36 34 33 32 31 30 29 28 26 24 23 22
29 29 28 27 27 28 30 32 33 34 34 33 33 34 35 34 33 32 31 31 30 30 30 29 29 30 32 36 37 38 37 36 35 34 33 32 32 30 28 26 25 24
31 30 29 28 28 28 28 29 30 32 33 33 33 34 35 35 33 32 32 32 31 31 31 31 30 31 32 36 38 38 39 38 37 35 34 34 33 32 30 28 27 26
32 31 30 29 29 30 29 28 28 29 30 30 31 32 34 34 33 31 32 33 33 33 32 32 32 32 33 35 38 39 40 40 38 37 36 35 34 33 31 30 29 28
34 33 32 31 31 31 31 30 30 29 28 28 29 29 29 30 30 30 30 33 34 34 34 34 35 34 34 35 38 39 40 40 39 38 38 37 36 34 33 32 31 30
35 35 34 33 33 33 33 32 32 31 29 29 28 27 27 28 28 28 29 31 34 35 35 36 37 36 34 34 37 39 40 40 40 39 39 38 37 36 34 33 33 32
36 36 35 35 35 35 35 34 34 33 32 31 29 28 28 28 28 28 29 30 33 35 37 37 38 37 35 34 36 39 40 41 40 40 39 39 39 38 36 34 34 33
37 37 36 36 35 36 36 35 35 35 34 33 32 30 29 29 29 29 30 31 33 35 36 38 39 38 36 35 36 38 40 41 41 41 40 40 40 39 37 36 36 35
38 37 36 36 36 36 36 36 35 35 35 35 34 33 32 31 32 31 31 32 33 35 36 37 38 39 38 37 36 38 40 41 42 42 41 41 41 40 39 38 37 37
38 37 36 36 36 36 36 36 35 35 35 35 36 36 35 34 34 34 33 33 34 35 35 36 37 39 39 38 37 37 39 42 43 43 43 42 42 41 40 39 39 39
36 36 36 36 36 36 36 35 34 34 34 35 36 37 37 36 36 35 35 35 36 37 36 36 36 38 39 40 38 37 39 43 45 45 45 44 43 43 42 41 41 41
35 35 36 36 36 36 35 35 34 33 34 35 36 37 38 38 38 37 37 37 37 38 39 38 37 38 39 40 39 38 40 43 46 47 47 46 46 45 44 44 43 43
34 34 35 36 36 35 35 34 33 33 33 34 35 37 38 38 39 40 40 39 38 38 39 40 39 39 39 40 40 40 41 44 48 49 49 48 48 47 46 46 45 45
34 34 35 35 35 35 34 34 33 33 33 33 34 35 37 38 39 41 41 40 39 38 39 40 41 41 40 40 41 42 42 44 47 50 50 50 50 50 48 47 47 46
33 34 34 34 34 34 34 33 33 32 32 32 33 35 37 38 40 42 42 42 41 39 38 39 41 42 42 42 42 43 44 45 47 50 52 52 52 52 51 49 49 48
33 33 34 34 34 34 35 34 34 32 31 31 32 35 37 39 40 42 43 43 41 39 37 36 38 41 43 43 43 45 46 47 49 51 53 53 53 54 54 52 51 50

ECMWFNIL_700_spd_033.txt.gz
Wind_Speed
28 27 26 25 25 25 24 21 18 16 15 13 12 10 9 10 12 15 18 19 20 20 20 19 18 18 19 20 20 19 18 16 14 13 12 10 8 7 5 3 2 1
28 28 27 26 26 26 24 22 20 18 17 15 13 12 11 11 12 14 16 18 20 22 21 21 20 19 20 22 22 22 21 19 16 15 14 12 10 9 7 5 4 4
28 29 27 26 26 25 24 23 21 20 19 17 17 16 14 14 14 14 15 17 20 22 23 22 21 21 21 23 24 24 23 22 19 17 16 15 13 10 9 8 7 6
29 29 28 26 26 25 25 25 24 22 21 20 19 19 18 16 16 15 15 17 18 21 23 23 23 22 22 24 25 26 26 25 23 20 19 17 16 13 11 10 9 8
29 29 29 28 27 27 27 26 25 24 23 22 21 21 20 19 18 17 16 17 18 19 22 24 24 24 24 25 26 28 28 27 26 24 21 20 19 17 14 13 12 11
29 29 29 29 29 29 28 27 26 25 24 24 23 23 22 21 21 20 19 19 19 19 20 22 24 25 25 25 27 29 29 29 29 26 24 22 21 20 18 16 15 14
29 29 29 30 30 30 29 28 28 27 26 26 26 25 24 23 23 22 22 21 21 21 21 22 23 25 26 26 27 29 30 31 31 29 26 24 23 22 20 19 18 17
30 30 30 30 30 30 30 29 29 29 28 28 28 27 26 26 25 25 24 23 23 23 23 23 23 24 26 27 27 29 31 32 32 32 29 27 25 23 22 22 21 20
31 31 31 31 31 31 31 30 30 30 29 29 30 29 29 29 28 28 27 26 25 25 25 25 24 23 25 26 27 28 31 32 33 34 32 30 28 26 24 24 23 23
30 31 32 32 32 32 31 31 30 30 30 30 30 31 31 31 31 30 29 28 28 27 27 26 26 25 24 25 26 28 30 33 34 35 35 33 31 29 27 26 25 25
27 29 30 31 32 32 31 31 31 31 31 31 31 31 32 32 32 32 31 31 30 29 28 27 27 26 25 25 25 27 29 32 35 36 36 35 34 32 30 28 27 27
26 27 28 28 28 29 29 29 30 31 32 32 31 31 32 33 32 32 32 32 30 30 30 29 28 28 27 26 26 26 28 31 34 36 37 37 36 34 33 31 29 29
28 27 27 26 26 26 27 28 29 30 31 31 30 31 32 33 33 32 31 32 31 30 30 30 29 29 29 28 28 27 27 29 32 36 38 38 37 36 36 34 32 31
30 28 27 26 25 24 25 26 27 27 28 29 29 29 30 32 34 33 32 32 32 31 31 31 31 31 31 30 30 29 28 28 30 34 38 39 38 38 37 36 35 33
32 30 29 27 26 26 26 26 27 26 26 27 27 27 27 29 32 33 33 32 32 32 32 32 33 33 33 32 31 31 30 29 29 32 37 39 39 39 38 38 37 36
35 33 31 30 29 28 27 27 28 28 28 28 28 28 26 27 29 32 32 31 31 32 31 32 33 33 33 33 33 32 32 31 30 31 35 39 40 40 39 39 39 39
37 35 34 32 31 31 30 30 30 30 30 30 31 31 30 28 28 30 31 29 29 29 30 30 31 31 31 32 32 33 33 33 32 32 33 37 41 41 41 40 41 41
39 37 36 35 34 34 34 33 33 33 33 33 34 34 34 32 30 30 31 30 28 28 28 29 29 30 30 30 30 32 33 34 34 33 33 36 40 42 41 41 42 43
40 39 38 37 36 36 36 37 36 36 36 35 36 37 37 35 33 31 31 31 30 29 29 29 29 30 30 29 29 30 32 34 35 35 34 35 38 41 42 41 42 43
38 38 38 38 38 38 38 38 38 37 37 37 37 37 38 37 35 33 32 32 32 31 31 30 31 31 31 31 30 29 31 34 36 37 36 36 38 40 42 42 42 43
35 36 37 38 38 38 38 38 38 37 36 37 37 38 37 37 36 35 34 33 33 33 33 32 32 33 33 33 32 31 31 32 35 37 37 37 38 40 41 43 43 43
31 34 36 37 37 37 38 37 37 36 36 36 37 38 37 37 37 36 35 34 34 34 34 34 33 34 34 34 33 32 32 33 35 37 38 39 39 40 41 43 43 44
29 31 33 34 35 36 36 37 36 36 36 36 37 37 37 37 37 36 36 36 35 35 35 34 34 34 33 34 34 34 34 35 36 37 39 40 40 41 42 43 44 45
27 28 30 32 33 34 34 35 36 37 37 37 36 36 37 37 37 37 37 37 36 36 36 36 35 35 34 34 35 35 35 37 38 39 40 40 41 43 44 45 45 46
27 27 28 30 31 31 33 35 36 37 37 37 37 37 37 38 38 38 38 38 38 37 37 37 37 37 36 35 35 35 36 37 39 41 41 41 42 44 46 47 48 48
29 29 29 30 30 31 33 35 36 37 38 38 38 38 39 39 40 40 40 40 40 39 38 37 37 38 37 35 34 35 36 37 39 42 43 43 43 45 47 49 51 51

ECMWFNIL_700_spd_036.txt.gz
Wind_Speed
25 26 26 25 25 23 21 20 19 17 15 14 12 10 8 9 12 15 15 15 15 16 17 17 16 16 15 15 15 16 16 15 13 10 8 8 9 8 7 5 3 2
25 25 25 25 25 24 23 22 21 19 17 15 13 11 10 10 11 13 14 14 15 16 17 17 17 17 16 16 16 17 17 17 16 13 10 10 10 10 9 7 5 4
24 24 24 24 25 24 24 23 22 20 19 17 15 14 13 12 12 11 12 12 13 15 17 17 17 17 18 17 16 17 18 18 18 16 13 12 12 11 11 9 8 7
24 23 22 22 23 24 23 24 24 22 21 19 17 16 14 14 13 12 12 12 12 13 16 17 18 18 19 19 18 18 18 18 19 19 17 15 14 13 13 12 10 8
24 23 22 22 23 23 24 25 25 24 22 21 19 17 16 16 15 14 13 13 12 12 13 15 17 18 19 20 20 19 19 19 20 21 21 18 16 16 15 14 13 11
26 25 24 23 23 24 25 25 25 25 23 22 20 19 18 17 16 15 15 14 13 13 13 14 15 17 18 20 22 21 21 20 21 22 22 22 20 19 18 18 16 14
27 27 25 24 24 25 26 26 26 25 24 23 22 21 20 19 18 17 16 15 15 15 15 15 15 15 16 18 20 22 22 22 22 22 23 24 23 22 21 20 19 17
27 27 27 26 26 26 27 27 27 26 25 24 23 22 21 20 20 19 18 17 17 17 18 18 17 16 17 17 17 19 22 22 23 23 23 25 25 24 23 22 21 20
27 28 28 28 28 28 28 27 27 26 26 25 23 22 22 22 21 21 20 20 19 19 19 20 19 18 18 18 17 17 19 21 23 23 24 25 26 26 26 25 24 22
27 28 29 29 30 29 28 28 27 27 27 26 25 24 24 23 23 23 22 23 23 22 21 21 21 21 20 20 18 17 18 19 22 24 24 25 26 27 28 28 27 25
28 29 30 30 30 29 29 28 28 28 27 27 26 26 26 25 25 25 25 25 25 24 24 23 23 24 23 22 21 20 19 19 21 23 24 25 26 28 29 30 30 29
28 29 30 30 30 30 29 28 28 29 28 27 27 27 27 27 27 27 27 27 26 26 26 26 25 25 25 24 23 22 22 21 21 22 24 25 25 27 29 31 31 31
26 28 29 29 29 30 29 29 29 29 29 28 27 27 28 29 29 28 27 27 27 26 27 27 27 27 27 25 24 24 24 24 23 23 24 25 25 26 28 30 32 33
25 26 27 28 28 29 29 29 29 29 29 28 27 27 27 29 29 28 27 27 28 27 27 27 28 28 28 27 25 24 25 26 25 24 24 25 25 26 27 29 31 33
26 25 26 27 27 28 28 28 28 28 28 28 27 26 26 27 28 28 28 28 28 27 27 28 28 28 27 27 26 25 25 26 27 26 26 25 25 26 27 28 29 32
30 27 27 27 27 27 27 27 27 26 26 26 25 25 24 24 25 26 28 27 26 26 26 26 27 27 26 26 26 25 26 27 29 29 28 28 27 26 27 28 29 30
33 32 30 29 28 27 27 26 26 25 25 24 24 24 23 23 22 23 25 25 24 23 23 24 24 25 25 24 24 25 25 27 29 30 30 30 29 28 28 28 29 30
35 35 34 32 31 29 28 27 26 26 25 25 25 25 25 24 23 23 24 25 24 22 22 22 22 23 23 23 23 23 24 25 27 29 30 30 30 29 29 29 30 31
33 36 37 35 33 32 31 29 29 28 27 27 26 26 27 26 26 25 25 25 26 24 22 22 22 22 23 24 24 24 24 24 25 27 28 29 29 30 29 30 30 31
27 31 36 38 37 35 34 33 32 31 29 29 28 29 29 29 28 28 27 27 27 27 25 24 23 23 23 24 25 25 25 25 26 27 28 29 30 30 30 30 31 32
22 25 30 35 39 38 37 36 35 33 32 31 31 30 30 30 30 30 30 29 28 28 29 27 26 25 24 25 26 26 26 26 27 28 29 30 30 31 31 31 31 33
21 22 24 29 35 39 39 38 36 35 34 33 33 32 31 31 31 31 31 30 30 30 30 29 28 27 26 25 26 27 28 28 29 29 30 31 31 32 32 32 32 33
20 21 22 24 28 34 38 39 38 37 36 35 35 35 33 33 33 33 32 32 31 31 31 30 29 28 28 27 27 27 29 30 31 31 31 32 32 33 34 34 35 35
19 20 21 21 24 28 34 38 39 38 38 37 37 36 36 35 35 34 34 33 32 31 31 31 31 30 30 29 29 30 31 31 32 34 34 34 34 35 36 36 37 37
20 20 20 20 23 26 30 34 38 39 38 38 38 38 38 38 37 36 35 34 34 33 32 32 33 33 33 32 32 33 33 33 34 35 35 35 36 37 38 38 38 38
19 21 20 20 22 25 28 31 34 37 38 38 39 39 39 40 39 38 36 35 35 35 34 34 34 35 35 35 34 34 36 37 38 37 35 35 37 39 40 40 39 39

ECMWFNIL_700_spd_039.txt.gz
Wind_Speed
24 24 24 23 22 22 21 20 18 17 15 14 13 13 14 14 14 15 15 14 14 15 15 15 14 13 12 11 10 9 9 9 9 8 7 6 6 5 3 3 2 1
25 25 24 24 24 23 22 21 20 18 16 15 14 14 14 14 14 14 15 15 15 15 15 15 15 14 13 12 11 10 9 9 9 10 9 8 7 7 6 4 3 2
26 25 25 24 23 23 22 22 21 20 18 17 16 15 14 13 13 12 13 14 15 15 15 15 15 14 13 13 11 10 9 9 9 10 11 10 9 8 8 7 5 4
26 25 24 23 22 21 21 22 22 21 20 19 18 17 15 14 13 12 11 12 13 13 13 13 13 13 13 12 12 11 10 9 9 10 11 12 11 10 9 9 8 7
26 25 24 22 21 20 21 23 23 22 21 20 19 18 17 15 14 12 11 10 10 10 11 10 10 11 12 11 11 12 11 10 10 10 10 11 12 13 12 11 10 9
26 25 24 23 21 20 21 22 22 22 22 21 21 20 19 17 15 13 12 11 10 9 9 8 7 7 7 8 9 10 11 11 11 11 11 11 12 14 14 14 13 12
27 26 25 24 22 21 21 21 22 22 22 21 22 21 20 19 17 15 13 12 11 10 9 9 8 6 6 6 6 7 8 9 10 11 11 11 12 14 15 16 15 15
28 27 26 25 24 23 22 22 22 22 21 22 22 22 21 20 18 16 15 14 13 12 11 10 9 8 8 7 7 7 8 9 9 10 10 11 13 13 14 16 17 17
29 29 28 27 26 25 24 23 23 22 22 22 21 21 21 20 19 17 15 15 15 14 12 11 10 9 9 9 9 9 9 9 10 11 10 11 12 13 14 15 17 18
29 30 30 30 29 28 26 25 24 23 23 23 22 22 21 20 19 18 17 16 15 15 14 13 12 12 11 11 11 11 11 11 12 12 12 11 12 13 14 15 17 18
28 29 30 31 30 29 28 26 25 25 24 24 23 22 22 21 20 20 19 18 16 15 14 14 14 14 14 14 14 13 13 13 14 14 14 13 13 13 14 15 16 17
27 29 29 30 30 29 29 28 27 26 25 25 25 24 23 22 21 21 20 19 18 16 16 15 15 16 16 16 16 16 15 15 15 16 16 16 14 14 14 14 15 16
25 28 28 28 28 28 28 28 28 27 27 26 26 25 25 24 23 22 21 20 19 18 18 17 17 18 18 17 17 17 17 16 16 16 17 17 17 15 15 15 15 16
21 24 26 26 27 27 28 28 28 28 28 27 26 26 26 25 23 22 21 20 20 19 19 19 20 20 19 18 18 17 17 16 16 16 17 18 18 18 17 17 17 17
21 21 22 24 27 28 28 28 28 28 28 27 27 26 25 24 23 22 21 21 20 20 20 20 21 20 19 19 19 18 18 18 17 17 18 19 20 20 20 19 19 19
25 23 21 22 25 27 28 28 28 28 27 27 27 26 25 24 24 23 22 21 20 19 19 20 20 20 19 19 19 19 19 19 19 19 19 20 21 22 22 21 21 20
28 27 24 22 23 24 26 28 28 28 27 27 27 26 25 24 24 23 22 21 20 19 18 19 19 18 18 18 18 18 18 18 19 19 19 20 21 22 22 22 22 22
29 29 28 26 24 23 24 25 27 28 27 27 27 26 25 24 24 23 22 21 19 18 17 17 16 16 16 17 17 17 17 17 18 18 19 19 20 21 21 22 22 22
30 31 31 30 28 26 25 24 26 27 27 27 27 26 25 24 23 22 22 20 19 18 17 16 16 16 17 17 18 18 17 18 19 20 20 21 20 20 21 21 22 22
26 29 32 32 32 30 28 27 27 27 27 27 26 26 25 24 23 22 21 20 19 19 18 18 17 17 17 18 19 19 20 20 21 22 23 24 23 23 23 23 23 23
19 22 27 31 33 34 33 32 31 29 29 28 27 26 25 24 23 22 22 21 21 21 21 20 19 18 19 19 20 20 21 23 24 25 26 26 26 25 25 25 25 25
17 17 19 23 27 32 35 36 35 33 31 30 29 28 27 26 26 25 24 23 23 23 23 22 20 20 20 21 22 23 24 25 25 26 27 28 28 28 28 28 28 28
17 17 16 16 19 23 29 34 37 37 35 33 32 31 30 29 28 27 26 26 25 25 25 23 22 22 23 23 24 25 26 27 27 27 27 28 28 29 31 32 32 31
18 16 16 15 15 17 19 24 32 37 38 37 36 34 33 31 30 30 29 28 28 26 25 24 24 25 25 26 26 27 28 29 29 29 28 27 28 30 32 33 34 34
19 17 16 16 16 16 16 17 22 29 35 39 39 37 35 34 33 33 32 30 29 28 26 26 26 27 28 28 28 29 30 31 32 31 30 29 31 32 33 34 35 36
21 18 17 17 16 17 17 16 17 21 27 32 37 39 39 38 36 35 34 32 30 29 29 29 29 29 30 30 31 33 34 34 35 34 33 33 34 34 34 34 35 36

ECMWFNIL_700_spd_042.txt.gz
Wind_Speed
25 25 25 24 23 22 21 21 19 18 17 16 15 15 15 15 16 16 16 16 17 18 18 18 17 15 14 12 11 11 11 11 10 9 9 8 8 7 6 5 5 5
27 26 26 25 23 23 22 22 20 19 18 16 15 15 16 17 17 18 18 17 17 18 18 18 17 16 14 13 12 11 11 11 11 10 9 9 8 8 8 7 6 6
28 27 27 26 24 23 23 22 22 20 19 17 16 16 17 18 18 17 18 19 18 18 19 18 17 16 15 13 12 12 11 11 11 11 11 10 9 9 9 8 7 6
28 28 27 26 25 23 23 23 23 22 20 19 18 17 18 19 18 17 17 19 19 18 18 17 16 16 15 14 12 11 10 10 10 11 11 12 11 10 9 9 8 7
28 27 27 26 25 24 24 24 23 23 22 20 18 18 19 20 19 16 15 16 17 17 16 16 15 15 14 13 12 11 10 9 9 9 10 11 11 11 11 10 9 9
28 28 27 26 25 24 25 24 23 23 22 21 20 19 20 20 19 17 14 14 14 14 14 14 14 13 13 12 11 10 9 9 10 10 9 10 11 12 13 13 11 11
29 28 27 26 26 25 25 23 22 22 22 22 21 20 20 20 19 17 15 13 13 13 12 12 11 11 10 9 8 7 7 8 9 9 9 10 12 13 14 14 14 13
29 28 28 27 27 26 25 23 23 22 21 23 23 22 21 21 20 18 16 15 14 13 12 11 11 10 9 8 6 6 5 5 5 6 7 9 10 12 13 14 15 16
29 29 29 28 28 27 26 25 23 22 22 23 23 22 22 22 21 20 18 17 16 14 14 12 11 10 9 8 7 5 5 4 4 4 5 6 7 8 11 13 15 16
30 30 30 30 29 28 27 25 24 23 23 23 22 23 23 22 22 22 21 19 18 17 16 14 13 11 10 8 7 6 6 6 6 6 6 6 6 7 9 10 12 13
30 31 31 31 30 29 28 26 25 24 24 23 22 23 22 22 23 23 23 21 20 18 17 16 15 14 13 11 10 9 9 9 9 9 9 9 8 8 9 10 10 11
29 30 32 32 31 30 29 28 26 25 24 23 23 22 22 22 23 24 24 22 20 18 18 17 17 16 15 14 12 12 11 11 12 11 11 11 11 11 11 11 11 10
28 29 30 31 31 30 30 29 28 27 26 25 23 22 22 22 22 23 23 22 20 19 19 19 18 18 17 16 15 14 13 13 13 13 13 13 13 13 13 14 13 12
25 26 27 28 29 29 30 30 29 29 28 26 25 24 24 23 22 22 22 22 21 20 19 19 19 19 18 17 16 15 14 14 13 14 14 14 14 14 15 16 16 15
20 21 23 25 27 28 29 29 29 29 29 28 27 27 25 24 23 23 23 23 22 22 21 20 21 20 18 16 15 14 14 14 14 15 15 16 16 16 17 18 18 18
19 19 20 21 24 25 26 27 28 28 29 29 28 28 26 25 24 24 24 23 23 23 22 22 21 19 17 16 15 15 15 15 15 16 16 17 18 18 19 20 20 20
22 21 20 20 21 22 23 25 26 26 27 28 28 28 27 26 26 26 25 24 23 23 23 22 21 18 17 16 15 16 16 16 16 16 16 17 17 18 19 19 20 21
25 24 23 21 20 20 20 21 23 25 26 27 27 27 26 26 26 26 25 24 24 23 23 22 20 18 17 16 16 15 15 16 15 15 15 15 15 15 16 16 17 18
27 27 26 24 23 21 20 20 21 24 25 26 26 26 26 26 26 25 25 24 24 23 22 22 20 18 18 17 15 15 15 15 15 15 15 15 15 15 15 16 16 17
29 29 29 28 27 25 23 23 22 22 23 24 25 26 26 26 26 25 25 25 25 24 23 23 21 19 18 17 16 15 15 16 17 18 19 19 19 19 19 18 18 19
30 30 31 31 30 29 28 27 25 24 23 23 24 25 25 25 25 25 25 26 26 25 25 24 21 19 18 17 16 16 16 18 20 21 23 23 23 23 23 22 22 22
28 30 31 32 32 32 32 31 30 28 26 25 24 24 24 25 25 25 25 26 27 27 26 24 21 19 19 18 18 18 19 21 23 24 25 26 26 25 25 24 24 24
25 27 30 31 33 34 34 34 34 32 30 29 27 26 26 26 25 25 25 26 27 27 26 25 22 21 21 21 21 22 23 24 25 26 27 27 26 26 26 25 25 25
20 22 24 27 29 31 33 34 35 35 35 34 32 30 28 28 27 27 26 27 27 27 27 26 24 23 24 24 25 25 26 27 28 28 28 27 27 27 26 26 26 26
19 19 20 22 23 25 27 28 30 32 34 36 37 35 33 31 30 30 30 29 29 29 28 28 27 26 27 28 28 29 29 29 30 30 29 28 27 28 28 28 28 27
20 19 20 20 20 20 21 22 23 25 28 32 36 38 38 37 35 34 33 32 32 32 31 30 30 30 30 31 31 32 31 31 31 31 30 29 29 30 30 30 29 29

ECMWFNIL_700_spd_045.txt.gz
Wind_Speed
26 26 25 25 25 24 23 21 19 18 18 17 17 16 16 15 15 16 15 14 14 15 17 17 16 15 14 14 14 14 13 13 12 12 11 10 9 8 7 7 6 5
28 27 26 26 26 25 24 22 20 20 19 18 17 17 16 16 16 16 16 16 16 16 17 18 18 18 16 15 15 15 14 13 13 12 11 11 10 9 9 8 7 6
29 28 27 27 26 25 24 23 22 21 21 20 19 18 18 17 17 17 18 18 17 17 18 20 20 19 18 17 16 15 15 14 13 13 12 12 11 11 10 9 8 8
30 29 28 27 26 25 25 24 24 22 22 21 20 19 19 19 19 19 19 19 19 19 19 21 21 20 19 18 17 16 15 15 15 14 13 13 12 12 11 11 10 9
31 30 28 27 27 26 26 26 25 24 23 21 20 19 19 20 20 20 19 19 20 20 20 21 21 20 19 17 16 15 15 15 15 15 14 14 13 13 13 12 11 10
31 31 29 28 28 27 27 27 26 25 24 22 21 20 20 20 20 20 19 17 18 19 19 19 19 19 18 16 15 14 14 14 15 15 15 15 15 15 15 14 13 12
31 31 30 29 29 29 28 27 26 26 25 24 23 22 21 21 20 20 18 15 15 17 17 17 17 17 17 16 15 15 15 15 16 16 16 16 16 17 17 15 14 14
31 31 30 29 29 29 28 28 27 26 26 25 25 23 22 21 20 19 18 15 14 15 16 16 16 16 17 17 16 16 16 16 16 15 15 15 16 16 16 16 16 15
32 31 31 30 30 30 29 28 27 27 26 26 25 24 23 22 21 21 20 17 16 15 15 15 15 16 16 16 16 15 15 14 13 13 12 13 14 14 14 15 16 16
33 32 32 31 30 29 29 28 27 27 27 26 25 24 24 23 22 22 22 20 19 17 16 15 15 16 16 16 15 14 13 12 11 10 10 10 10 11 12 13 14 15
33 33 33 32 31 29 28 27 27 27 26 26 25 24 24 23 24 24 24 23 21 19 18 17 17 17 17 16 15 14 12 11 10 10 9 9 9 10 10 11 11 11
34 34 33 32 31 30 28 27 27 27 26 25 25 24 23 23 24 25 25 25 23 21 19 18 18 18 18 17 16 14 13 12 11 10 10 10 10 10 10 10 10 10
33 33 33 32 31 30 28 28 28 27 27 26 25 24 24 24 24 24 25 25 24 23 22 20 20 20 19 18 17 16 14 13 12 11 10 10 10 10 11 11 11 11
30 31 32 32 31 30 29 29 28 28 27 26 25 25 24 24 23 23 23 24 25 25 23 22 23 23 22 20 19 17 15 14 12 12 11 11 11 11 12 12 12 12
28 28 30 30 30 31 30 29 29 28 28 27 26 26 25 24 23 23 23 24 24 25 25 25 25 24 23 22 20 19 17 15 15 14 14 13 13 14 14 14 14 14
24 26 28 29 30 30 30 30 29 29 28 28 27 26 25 24 24 24 24 24 24 25 26 26 26 25 24 23 21 20 18 18 17 16 16 16 16 17 17 17 16 17
21 23 25 27 28 29 29 30 30 30 29 29 28 27 26 25 25 25 25 24 25 25 26 27 27 26 25 24 22 21 20 19 18 17 18 18 18 18 17 17 18 18
22 22 22 23 25 26 27 28 29 29 29 29 28 28 27 27 27 26 25 25 25 26 27 27 27 26 25 24 22 21 20 19 19 18 18 18 17 17 16 16 17 17
27 25 24 23 23 23 24 25 27 27 28 27 27 27 27 28 28 27 26 25 26 26 26 27 26 25 25 23 22 21 20 20 19 19 19 18 17 17 16 15 15 16
30 29 27 25 24 23 23 23 24 25 25 25 26 26 27 27 27 27 26 26 25 25 25 26 26 25 24 23 22 21 20 20 21 20 21 20 19 18 17 16 16 17
30 30 29 28 27 26 25 24 23 23 23 23 24 25 25 25 26 26 26 25 24 24 24 25 24 24 23 23 21 20 20 21 22 22 23 22 21 19 18 18 19 20
29 30 30 30 30 29 28 27 25 24 23 23 23 23 24 24 25 25 25 24 24 24 25 25 24 23 23 22 21 21 21 23 24 24 24 24 22 20 20 20 21 23
27 29 30 30 30 30 30 30 29 27 26 25 24 24 23 23 24 24 24 24 25 25 25 25 25 24 24 23 22 23 24 25 26 25 26 25 24 22 23 23 24 25
25 27 28 29 31 31 32 32 31 31 30 29 28 27 25 25 24 24 24 25 25 25 25 26 26 25 25 25 24 25 26 27 27 27 27 26 25 25 25 26 25 25
22 24 25 27 29 30 31 32 33 33 33 32 32 31 29 28 27 27 26 25 25 25 26 28 28 27 27 27 27 27 27 27 28 28 28 28 27 27 27 27 26 26
21 21 22 23 24 26 28 30 31 32 33 34 35 34 34 33 32 30 29 28 27 27 27 29 29 28 28 29 29 29 29 29 30 30 30 30 30 30 29 28 27 27

ECMWFNIL_700_spd_048.txt.gz
Wind_Speed
28 29 29 28 28 28 28 28 27 27 25 23 21 18 16 16 16 16 15 14 14 13 14 15 15 15 14 14 14 14 13 12 12 11 10 8 7 6 5 4 3 3
29 28 28 28 28 28 28 28 27 27 25 24 22 20 19 18 18 17 17 16 16 15 15 16 17 17 16 15 15 15 15 14 13 13 12 11 10 9 8 6 5 4
29 29 28 28 27 27 26 26 26 26 25 24 23 21 20 19 19 18 18 18 17 17 16 16 17 18 17 17 16 16 16 16 15 15 14 13 12 11 10 9 7 6
30 29 28 28 27 27 26 26 26 25 25 24 23 22 21 20 20 19 18 19 18 18 18 18 18 18 18 18 18 17 17 17 17 17 16 15 14 13 12 11 9 8
31 30 29 28 28 28 28 27 26 25 25 24 23 23 22 22 21 20 19 19 19 18 19 18 19 19 19 19 19 18 18 18 18 18 17 16 16 15 14 13 11 10
32 31 31 30 29 29 29 28 26 26 25 25 25 25 24 23 22 21 20 19 18 18 19 18 19 19 19 19 19 19 19 19 19 19 18 18 17 16 16 14 13 12
33 32 32 31 31 30 30 28 27 27 26 26 26 26 25 25 23 22 20 18 18 18 18 18 18 18 18 19 19 19 19 19 20 20 19 18 18 18 17 16 15 14
33 33 33 32 32 32 31 29 29 28 27 27 27 27 26 25 24 22 20 18 18 17 17 17 17 18 18 19 19 18 19 19 19 19 19 18 18 18 17 17 17 16
33 33 33 33 33 32 31 30 29 29 28 28 27 27 26 25 24 22 21 19 18 18 17 17 17 18 19 19 19 18 19 19 19 19 19 18 18 17 17 18 18 17
33 34 34 34 33 32 31 30 29 29 29 29 28 27 27 25 24 23 22 21 20 18 17 17 17 18 19 20 19 19 19 19 19 19 18 18 17 17 17 17 17 17
33 34 34 34 33 32 31 30 30 30 30 30 29 28 27 26 25 25 24 23 21 19 18 17 16 18 20 20 19 19 19 18 18 17 16 15 14 14 15 14 14 13
33 34 34 34 33 32 31 30 30 30 30 29 29 28 27 26 26 26 25 24 22 20 19 17 17 18 19 19 19 19 18 18 17 15 14 13 13 12 12 11 11 10
33 33 33 33 33 32 31 30 30 29 29 29 28 28 28 27 27 27 26 25 23 22 20 19 19 19 20 20 20 20 19 18 17 15 14 14 13 12 12 12 11 11
32 32 32 33 32 32 31 30 30 29 29 28 28 29 28 28 27 27 27 26 25 24 22 21 21 21 21 22 22 21 20 18 17 16 15 14 13 13 13 13 12 13
30 30 31 31 32 32 31 30 30 29 28 28 28 28 28 28 27 27 27 27 27 26 25 24 24 23 23 23 23 22 21 19 18 17 15 14 14 13 13 13 13 13
28 29 30 30 30 30 30 30 30 29 28 28 27 27 27 27 27 27 27 27 27 27 27 27 26 25 24 24 24 23 22 21 19 18 16 16 15 14 14 14 14 14
26 27 28 29 29 29 29 29 29 29 29 28 27 27 27 27 27 26 26 26 26 27 27 28 27 26 25 25 25 25 24 23 21 19 19 18 17 16 15 15 16 17
24 25 26 27 28 28 28 28 28 29 29 28 28 27 27 27 27 26 25 25 26 26 27 27 27 27 26 26 25 26 25 24 23 22 21 20 19 18 17 17 18 18
21 22 23 24 25 26 27 27 28 29 29 29 28 27 27 28 27 26 26 25 26 26 26 26 26 26 26 26 26 26 26 26 25 24 23 22 21 20 20 19 19 19
21 21 21 21 21 23 25 27 28 28 28 28 28 28 29 29 28 27 27 26 26 25 25 25 25 25 25 26 26 26 27 27 27 26 25 24 23 22 21 20 20 20
26 25 24 23 22 22 22 24 25 26 26 27 27 28 28 28 28 28 28 27 27 26 25 25 25 24 25 26 26 27 27 28 28 27 27 26 24 22 22 21 21 22
31 30 29 27 25 24 23 22 22 22 23 24 25 26 26 26 26 26 26 26 26 26 26 25 24 24 25 25 26 26 27 28 28 28 28 26 25 23 23 22 23 23
32 32 31 30 29 28 26 24 23 22 22 22 23 23 23 23 23 23 24 24 24 25 25 24 23 24 25 25 25 26 27 28 28 28 28 28 26 25 24 24 25 24
30 31 31 31 31 30 30 29 27 26 25 24 23 23 22 22 21 22 22 22 23 24 24 23 23 23 24 25 25 26 27 28 29 29 29 29 28 27 27 27 26 25
27 28 29 30 30 30 30 31 30 30 29 28 27 25 24 24 23 22 22 22 22 23 24 24 24 24 25 25 25 26 27 28 29 30 31 31 30 30 29 29 28 27
25 25 26 27 27 27 28 29 29 29 30 30 30 29 28 27 26 25 25 24 24 24 24 24 25 25 26 26 27 28 28 30 31 32 32 33 32 32 31 30 30 29

ECMWFNIL_700_spd_051.txt.gz
Wind_Speed
29 29 30 30 30 30 29 28 28 27 26 24 22 19 18 17 16 15 14 13 13 12 12 12 13 13 13 12 12 12 11 11 10 9 8 6 4 4 3 3 3 3
30 30 30 30 31 30 30 29 29 29 28 26 24 21 20 20 19 18 16 15 15 14 14 14 15 16 15 14 14 14 13 13 13 12 10 9 7 6 5 5 4 3
30 30 30 30 30 31 30 30 30 30 29 28 26 24 22 21 20 19 18 18 17 16 16 16 16 17 17 17 16 15 15 15 15 14 13 11 9 8 8 7 6 5
31 30 30 29 30 30 31 31 31 31 31 30 27 25 24 23 22 21 20 20 19 19 18 17 17 18 19 19 18 17 17 17 16 16 15 14 12 11 10 9 8 7
31 30 30 29 29 30 32 32 32 32 31 30 28 27 25 24 23 22 21 21 21 20 20 19 19 19 20 20 20 19 18 18 18 18 16 15 15 13 12 12 10 9
32 31 30 30 29 30 32 32 32 31 30 30 29 28 27 26 24 23 22 22 21 21 21 20 20 19 20 21 21 21 20 19 19 19 18 17 16 16 15 14 13 12
32 32 32 31 30 30 31 32 31 31 30 30 30 29 28 27 26 25 23 22 22 21 21 21 21 20 20 20 21 22 22 21 21 20 19 18 18 18 17 16 15 14
32 33 33 32 32 31 31 32 31 30 30 30 29 29 29 28 27 26 24 23 22 21 21 21 20 20 20 20 20 22 22 22 22 21 20 19 19 19 18 18 18 16
33 33 34 33 33 33 32 32 31 31 30 30 30 29 29 28 28 27 26 24 23 22 21 21 20 19 19 20 20 21 22 23 22 22 22 21 20 19 20 20 19 18
33 33 34 35 34 34 33 33 32 32 32 31 30 30 30 29 29 28 27 26 24 22 21 20 19 19 19 19 20 20 21 22 22 22 22 21 20 20 21 21 20 19
33 33 35 35 35 35 34 33 33 33 32 32 31 31 30 30 30 29 28 26 24 22 21 20 19 18 18 19 20 21 21 22 22 22 22 21 20 20 21 20 20 18
33 33 34 35 35 35 34 34 34 33 32 32 32 31 30 30 30 30 28 27 24 23 21 20 19 19 19 19 20 21 22 22 23 23 22 21 20 19 19 19 17 16
34 33 33 34 34 34 34 34 34 33 32 31 31 31 30 30 30 29 28 27 25 24 22 21 21 20 20 20 21 22 22 23 23 22 21 20 19 18 18 17 14 13
33 33 32 32 33 34 34 34 34 33 32 31 31 30 30 29 29 28 28 27 27 25 24 22 22 22 22 21 21 22 23 22 22 21 20 19 18 18 17 15 13 13
32 33 32 32 33 34 34 34 34 33 32 32 31 30 30 29 28 28 28 28 27 26 25 25 24 24 23 21 21 22 22 22 21 20 20 19 19 18 17 16 14 14
30 31 32 32 32 32 33 34 33 33 32 31 30 30 30 29 29 29 28 28 28 27 27 27 26 25 24 23 22 22 22 22 22 21 21 20 19 19 18 17 16 15
30 30 31 32 32 31 32 32 32 32 31 30 29 29 29 29 29 29 28 27 27 28 28 28 26 25 25 24 23 23 23 24 24 23 23 21 20 20 19 18 18 17
30 29 30 31 31 31 31 31 31 31 31 30 29 28 27 28 28 28 27 27 27 27 28 28 26 25 25 26 25 24 25 26 26 25 24 23 22 21 20 20 20 19
32 31 29 29 30 30 30 30 30 30 30 29 28 27 26 27 27 27 26 26 26 26 26 26 26 25 25 26 26 26 26 27 28 27 26 25 23 23 22 22 21 20
33 32 30 29 29 29 29 29 29 29 29 28 28 27 27 27 27 26 26 26 25 24 24 25 25 24 24 25 26 27 28 28 29 29 28 27 25 24 23 23 22 21
33 32 30 28 28 28 28 29 29 28 28 28 28 27 27 27 27 26 26 26 25 25 24 24 23 23 23 24 25 26 28 29 30 31 31 29 27 26 25 24 23 23
29 28 28 27 27 28 28 29 29 28 28 27 27 27 28 28 27 27 27 27 26 26 25 24 23 22 23 24 25 26 28 29 30 30 31 30 28 27 26 26 25 25
24 23 23 24 24 25 26 27 27 27 27 27 27 27 27 27 27 27 27 26 27 27 27 26 24 24 24 25 25 26 28 29 29 30 31 30 29 28 28 27 27 27
25 24 24 24 23 23 23 23 23 23 24 25 25 25 25 25 25 25 25 25 26 27 27 27 26 26 27 27 27 28 29 29 29 30 31 31 30 29 29 29 29 28
30 30 29 28 27 26 25 24 23 22 22 22 22 22 22 22 22 23 23 24 25 25 26 26 26 27 27 28 29 30 30 30 30 31 32 31 30 30 30 30 30 29
34 34 33 32 32 31 30 29 27 26 25 24 23 22 22 21 21 22 22 22 23 23 24 25 25 26 26 27 29 30 31 31 31 32 32 31 30 30 31 31 31 31

ECMWFNIL_700_spd_054.txt.gz
Wind_Speed
31 30 29 29 29 29 28 27 27 25 24 23 22 21 20 18 17 17 16 15 14 13 12 11 11 11 10 9 9 8 8 8 7 6 5 3 3 3 3 4 5 5
31 31 30 29 29 29 29 28 28 27 26 24 24 24 22 21 20 19 18 17 15 14 13 13 13 13 13 12 11 10 10 9 9 8 7 6 4 4 3 3 4 4
32 31 31 30 29 29 29 29 29 28 27 26 26 26 24 23 23 22 20 19 17 16 15 15 14 15 15 15 14 13 12 11 11 11 10 8 7 6 5 4 4 4
32 32 31 30 29 29 29 30 30 29 28 28 27 26 26 25 25 23 21 20 20 19 17 17 16 16 16 17 16 15 14 14 13 13 12 11 10 9 8 6 5 4
32 32 31 30 30 30 30 31 30 30 29 29 28 27 27 27 26 24 23 22 21 20 20 18 18 17 18 18 19 18 17 16 15 15 14 13 13 12 11 9 7 7
32 32 31 31 31 31 31 30 30 30 30 30 29 29 28 27 27 26 24 23 23 22 21 20 19 18 18 19 20 20 19 18 17 17 16 16 15 14 13 12 10 9
32 32 31 32 32 31 31 30 30 30 31 31 31 30 29 28 28 27 26 25 24 24 23 21 20 20 19 20 21 22 21 21 20 19 18 18 17 17 16 14 13 12
32 32 32 32 32 32 31 30 30 31 32 33 33 31 30 29 28 28 27 26 26 25 24 22 21 21 21 21 22 22 22 22 22 21 20 19 19 19 18 18 17 15
32 32 33 33 33 32 31 30 30 31 32 33 33 32 31 30 29 28 27 26 26 25 24 23 22 22 22 22 21 21 22 23 23 23 22 21 21 20 20 20 19 18
31 32 33 33 34 33 32 31 30 31 32 33 33 32 32 30 29 29 28 27 27 26 24 23 23 22 22 21 21 21 21 23 24 24 24 23 23 22 22 22 21 20
31 32 32 33 33 33 32 32 31 31 31 32 33 33 32 30 29 29 28 27 27 25 24 23 22 22 22 21 21 20 21 22 24 25 25 25 24 24 24 23 22 22
32 32 32 32 33 34 33 33 32 32 31 32 32 32 31 30 30 29 28 27 26 25 24 23 23 22 22 22 21 21 21 22 24 25 26 26 26 25 25 24 23 23
32 32 32 32 33 34 35 35 34 33 32 32 32 32 31 30 30 29 28 27 26 25 24 23 23 23 22 22 21 21 21 21 23 25 25 26 26 25 24 24 23 22
30 31 32 32 32 34 35 35 35 34 33 32 33 32 32 31 30 29 28 27 26 25 25 24 24 23 22 22 22 22 21 20 21 23 24 25 25 24 23 23 21 21
29 30 31 32 32 33 34 35 35 34 34 33 33 33 32 31 30 30 29 28 27 26 26 26 25 24 23 22 22 22 21 20 20 22 23 24 24 23 23 22 20 19
29 29 30 31 31 32 33 34 34 34 34 33 33 33 32 31 30 30 30 29 28 28 28 27 26 25 24 23 22 22 21 20 20 21 22 23 24 24 23 22 20 19
29 29 29 30 31 31 31 32 33 34 34 33 33 33 32 31 31 30 30 29 29 29 29 28 27 26 24 23 23 23 22 22 21 20 22 23 24 24 24 22 21 20
29 28 28 28 30 30 30 31 32 33 34 33 33 33 32 31 30 30 29 29 29 29 29 28 27 26 25 24 23 23 23 23 22 21 22 23 24 25 24 23 22 21
30 29 28 28 29 29 30 31 31 32 32 32 32 32 32 32 31 30 29 29 28 28 28 27 27 26 25 24 24 24 24 24 23 22 23 24 25 25 25 24 23 22
32 31 30 29 28 29 30 31 31 30 31 31 32 32 32 31 31 30 29 28 28 28 27 26 26 26 24 24 25 25 25 26 25 24 24 25 26 27 27 26 24 24
34 34 32 31 29 29 29 30 30 30 30 31 31 31 31 31 31 30 29 28 28 27 26 25 25 24 22 23 24 25 26 27 27 27 26 27 28 29 28 27 26 25
35 35 35 33 31 30 29 30 30 31 31 31 31 31 31 31 31 30 29 29 28 27 26 25 24 23 22 21 23 24 26 28 29 29 29 29 29 30 30 29 28 27
36 37 36 35 33 31 30 30 30 31 31 31 30 30 31 31 31 30 30 29 28 27 27 25 24 23 22 22 23 24 26 27 28 29 30 30 30 31 32 32 30 29
36 37 37 36 34 32 31 31 31 31 31 30 30 30 31 31 30 30 30 30 29 28 28 26 25 24 24 23 24 25 26 27 27 28 30 30 30 31 32 33 32 31
34 35 35 36 35 33 32 31 31 31 30 30 30 31 31 31 30 30 30 30 29 29 29 28 26 26 26 25 25 26 27 27 28 28 29 29 30 30 32 33 33 33
31 33 34 35 34 33 32 32 31 31 30 30 30 31 31 31 30 30 30 30 30 29 29 29 28 28 28 27 27 28 28 28 29 30 30 29 28 29 30 32 32 32

ECMWFNIL_700_spd_060.txt.gz
Wind_Speed
26 26 25 25 24 24 22 21 20 19 18 17 16 15 14 14 14 13 12 11 11 11 11 10 10 9 9 9 8 7 6 5 5 5 6 6 6 6 7 7 7 8
26 26 25 25 25 24 23 22 21 20 19 18 17 16 16 16 16 14 13 12 12 12 12 11 10 10 9 9 9 9 8 7 6 5 5 5 5 6 6 6 7 8
26 26 26 25 25 25 24 23 21 21 20 19 18 18 18 18 17 16 15 14 14 13 13 12 11 11 10 10 9 9 9 8 7 7 6 5 4 5 5 6 7 8
26 26 26 25 25 24 24 23 22 22 21 20 20 20 20 19 19 18 17 16 15 14 14 13 12 12 11 10 10 9 10 9 9 8 7 6 5 5 5 6 6 7
25 25 25 25 25 25 24 24 23 22 22 21 21 21 21 21 20 19 18 17 17 15 15 15 14 13 12 11 10 10 10 10 9 9 9 8 7 6 5 5 6 6
25 25 25 25 25 26 25 25 24 23 23 22 22 22 22 22 21 20 19 19 18 17 16 16 15 14 13 12 11 11 11 11 10 10 9 9 9 8 7 7 6 6
25 25 25 25 26 26 25 25 25 24 23 23 23 23 23 23 22 20 20 20 19 18 18 17 16 16 15 14 13 11 11 11 11 11 10 10 10 10 10 9 9 8
25 25 26 25 26 26 26 25 25 25 24 24 24 24 24 24 23 21 21 22 21 20 19 18 17 17 16 15 14 12 11 11 11 11 11 11 11 11 12 12 11 10
26 26 26 26 26 26 26 25 26 26 25 25 25 24 24 24 23 22 22 23 23 22 21 20 18 18 18 17 15 14 12 11 11 11 12 13 13 13 13 14 13 13
27 27 27 26 26 27 27 26 26 27 27 26 26 25 24 23 23 23 23 24 25 24 23 22 20 19 19 18 16 15 14 13 12 12 12 13 14 14 15 15 15 15
28 28 27 27 27 27 27 27 27 28 28 27 27 26 25 24 23 23 24 25 25 25 24 24 22 20 19 19 18 16 16 15 14 14 13 14 15 16 17 17 17 17
27 28 28 27 28 27 27 27 28 28 28 28 27 26 26 24 23 24 25 25 24 24 24 23 23 21 20 20 19 18 17 16 16 15 15 15 16 17 18 19 19 19
25 26 26 27 28 28 27 27 27 28 28 28 27 26 26 25 25 24 24 24 23 23 24 23 23 22 21 20 21 20 18 17 17 16 15 15 16 17 19 20 21 21
23 24 25 26 27 27 26 26 27 28 28 27 27 27 27 26 25 24 24 24 23 23 24 24 23 23 23 22 22 21 20 18 17 16 16 16 16 17 18 19 20 20
23 23 24 25 26 26 27 26 27 27 28 27 27 27 28 27 26 25 25 25 24 22 23 25 25 24 24 23 22 22 20 19 17 17 16 17 16 17 17 18 19 19
24 24 24 25 25 26 27 26 26 27 28 27 27 27 28 28 28 26 25 25 26 24 23 25 26 25 24 23 21 21 21 19 18 17 17 18 18 17 17 17 18 18
24 24 24 24 25 25 26 27 27 27 27 28 27 26 28 29 29 28 26 24 25 25 25 26 27 25 24 22 21 20 20 20 19 18 18 19 19 18 17 17 17 17
25 25 24 24 24 24 25 26 27 27 27 28 27 26 27 28 29 29 28 25 24 25 25 26 27 25 23 22 21 20 20 20 20 20 20 20 20 19 19 18 17 17
26 25 25 24 24 24 24 25 27 28 27 28 27 26 26 27 28 29 29 27 24 24 24 25 25 25 23 22 22 21 21 21 21 22 22 21 21 20 20 19 18 17
28 27 26 25 24 24 25 25 27 27 27 27 28 28 27 27 28 29 29 29 27 25 24 25 24 25 24 23 22 21 21 21 21 22 23 23 22 22 21 21 19 18
29 28 27 26 25 26 26 26 26 26 27 27 28 29 28 27 27 29 29 30 29 28 26 26 26 25 24 23 23 22 21 22 22 23 24 24 24 24 23 22 20 19
30 30 29 28 27 27 27 27 26 26 26 27 28 29 29 28 28 29 30 30 30 30 29 28 27 27 26 24 24 22 22 22 23 25 26 26 25 25 24 23 21 20
31 32 30 30 29 28 28 28 27 27 26 26 27 29 30 30 29 29 30 31 31 31 30 29 28 27 27 26 25 23 23 23 24 25 27 27 26 26 25 25 23 21
33 34 33 32 31 29 29 29 28 28 28 27 27 27 29 29 29 29 30 31 32 31 30 30 29 28 27 27 26 25 24 24 25 26 27 28 28 27 27 26 25 22
35 35 35 34 33 31 30 29 29 30 30 28 27 27 28 29 29 29 30 31 32 31 30 30 30 30 29 28 27 26 26 26 26 27 28 29 29 28 28 27 26 24
36 36 37 37 36 34 32 30 30 31 31 31 29 28 28 28 29 29 30 30 31 31 31 31 31 31 31 29 28 27 27 27 28 28 29 29 29 29 28 27 26 24

ECMWFNIL_700_spd_063.txt.gz
Wind_Speed
27 26 25 24 25 25 24 22 20 19 18 17 17 16 15 14 14 14 13 13 13 12 11 11 10 9 8 8 8 8 8 9 8 8 8 8 8 8 8 8 8 7
27 26 26 25 25 25 25 24 22 20 19 18 17 17 17 16 15 14 14 14 13 13 13 12 11 10 9 9 9 9 8 9 9 8 7 7 7 8 8 8 9 9
26 26 26 26 25 25 25 25 24 22 20 19 19 19 19 18 17 16 15 15 14 14 14 13 12 12 10 10 10 9 9 9 9 8 7 7 7 7 7 8 8 9
26 26 25 25 25 25 25 25 25 24 22 21 21 21 20 19 18 17 16 16 15 14 14 14 13 13 12 11 11 10 10 9 9 9 8 7 6 6 7 8 8 9
25 25 25 24 25 25 25 26 25 25 24 22 22 22 22 21 19 19 18 17 16 15 15 14 13 13 13 12 12 11 11 10 10 9 9 8 7 7 7 8 8 9
26 25 25 25 25 25 25 25 24 24 24 24 23 23 23 22 21 19 19 18 18 17 16 15 14 14 13 13 13 12 12 12 11 11 10 10 9 8 7 7 8 9
27 26 26 26 26 26 25 24 24 24 24 24 24 24 23 23 22 21 19 19 19 18 17 16 15 15 14 14 13 13 13 13 12 12 11 11 12 11 9 8 8 9
26 26 26 26 27 27 26 25 24 24 24 25 25 24 24 23 22 21 20 20 20 19 19 18 17 16 16 15 14 14 13 13 13 13 13 12 12 12 12 11 10 10
27 26 26 27 27 28 27 26 25 24 24 25 25 24 24 24 22 21 21 21 21 20 20 19 19 18 17 16 16 15 14 14 14 14 14 14 13 13 13 13 13 12
28 28 27 28 28 28 28 27 26 25 25 25 25 25 25 24 23 21 21 22 23 22 21 20 20 19 18 17 16 16 15 14 14 14 14 14 14 15 15 14 14 14
29 29 29 29 28 28 28 28 27 27 26 26 25 25 25 24 24 22 21 22 23 23 22 21 20 19 18 17 17 17 16 15 14 14 13 13 14 15 15 15 15 15
30 30 30 29 29 29 28 28 28 28 28 27 26 26 25 24 24 23 22 22 23 23 23 21 20 20 19 18 18 18 18 17 16 15 14 14 13 14 15 15 15 15
28 28 29 29 28 28 28 28 28 28 29 28 27 27 26 25 24 23 23 22 23 24 24 22 21 20 20 20 20 19 19 18 18 17 15 14 14 14 15 15 15 15
25 26 27 28 28 28 28 28 28 28 28 29 28 28 27 26 24 23 22 22 23 24 24 23 22 21 21 22 22 21 20 20 19 18 16 15 15 15 16 16 15 15
23 24 26 27 28 28 28 28 27 27 28 28 28 28 28 27 25 24 23 23 23 24 24 24 24 23 22 22 23 22 22 21 20 18 17 16 15 16 16 16 16 15
23 23 24 25 27 27 28 27 27 27 27 27 27 28 28 28 27 25 25 24 24 24 25 25 25 25 23 23 23 23 23 22 21 20 19 18 17 17 17 17 16 16
24 23 24 24 25 26 26 26 26 26 26 26 26 27 27 28 28 27 26 25 24 24 25 26 26 25 25 24 24 24 24 23 22 21 21 20 19 19 18 17 17 16
25 24 24 24 24 25 25 26 25 25 26 26 26 26 27 28 28 28 26 25 24 24 25 26 25 25 25 24 24 24 25 24 23 23 22 22 21 20 19 18 18 17
27 26 25 25 24 25 25 26 26 25 25 26 25 25 26 27 28 28 27 26 25 24 24 24 25 25 25 24 24 24 25 25 25 24 23 23 23 22 21 20 19 18
31 28 27 26 25 25 26 27 27 26 24 24 25 25 26 27 28 28 28 27 26 25 23 23 24 24 25 24 23 23 23 24 25 25 24 24 23 23 22 21 20 19
33 31 29 28 27 27 27 28 28 27 25 25 25 25 25 25 26 27 28 28 27 25 24 23 23 23 24 23 22 22 23 24 25 25 25 25 25 24 24 23 21 20
35 34 32 30 29 28 28 28 29 28 27 26 25 25 24 25 26 27 28 29 28 27 25 24 24 24 23 23 22 21 22 23 25 26 26 26 26 25 24 23 23 22
33 34 34 33 31 30 29 29 29 29 28 28 27 26 25 25 26 26 27 28 29 29 28 26 25 25 25 24 23 22 23 24 24 26 27 27 27 26 25 24 23 22
32 33 35 35 33 32 30 29 29 28 29 29 28 28 26 24 25 25 26 27 28 29 29 28 27 26 26 26 25 24 24 25 25 25 26 27 27 27 26 25 24 23
32 32 34 35 34 33 31 30 29 29 29 29 29 29 28 26 25 26 26 27 28 29 29 29 29 27 27 27 26 26 26 26 26 27 27 27 27 27 27 26 25 23
35 33 33 34 34 34 33 32 31 30 30 30 30 30 30 29 27 26 26 27 28 28 29 30 30 29 28 27 27 28 28 28 29 29 28 28 27 28 27 26 25 24

ECMWFNIL_700_spd_066.txt.gz
Wind_Speed
24 24 25 26 26 24 21 21 21 20 18 17 16 16 15 15 15 15 14 14 13 12 11 11 10 10 9 9 9 8 8 8 7 6 6 6 6 6 7 8 8 7
25 24 23 25 27 26 24 22 22 21 20 18 17 17 17 17 16 16 16 15 15 14 13 12 11 11 10 10 9 9 8 8 7 7 6 6 6 6 6 6 6 7
27 26 23 23 25 27 26 24 23 23 22 21 20 19 19 18 18 17 17 16 16 15 15 13 12 12 12 11 10 10 10 9 8 7 7 7 6 6 6 6 6 8
28 27 24 22 23 25 26 26 25 25 24 24 23 22 21 20 19 18 18 17 17 16 16 15 14 13 12 12 12 12 11 10 10 9 8 8 8 7 7 6 7 8
27 27 26 24 23 24 26 27 26 26 26 25 24 24 23 22 21 20 19 18 17 17 17 16 16 15 14 13 13 13 13 12 11 10 9 8 8 8 8 8 8 10
27 28 27 26 25 25 26 26 26 26 26 26 25 25 25 24 23 22 20 20 19 18 18 18 18 17 16 15 14 14 14 14 13 12 11 10 9 9 9 10 10 11
27 27 27 27 26 26 26 26 26 26 26 26 26 26 25 25 24 23 22 21 21 20 19 19 19 18 18 17 16 15 15 15 15 15 14 13 12 10 10 10 11 11
28 27 27 27 27 27 27 27 27 27 26 27 27 26 26 26 25 24 23 23 23 22 21 20 20 20 19 19 18 17 16 16 15 15 15 15 14 13 12 12 12 12
30 29 28 28 28 28 27 27 27 27 27 28 28 27 26 26 26 25 24 24 24 24 23 22 22 21 21 20 20 19 18 17 17 16 16 16 16 15 15 14 14 13
32 32 30 29 29 29 28 27 27 27 27 28 28 28 28 27 26 26 25 25 25 25 24 23 23 23 22 22 21 20 19 19 18 18 18 18 17 17 18 17 16 15
34 34 33 32 30 29 29 28 28 28 28 28 29 29 29 28 27 27 27 27 26 26 25 24 23 23 23 23 22 21 21 20 20 20 19 19 19 19 20 19 19 18
34 34 34 33 32 31 29 29 29 29 29 29 29 29 29 29 29 28 28 28 27 26 26 25 24 24 24 23 23 22 22 22 22 21 20 20 21 21 21 21 20 20
34 34 34 33 33 32 31 30 30 30 30 30 30 30 30 30 30 29 28 27 27 27 27 26 26 26 25 24 23 23 24 23 23 22 22 21 21 21 21 21 21 21
34 33 33 33 33 33 32 31 31 31 31 31 31 31 31 31 30 29 28 27 27 28 29 28 28 28 27 26 25 25 25 25 25 24 23 23 22 21 21 20 21 21
34 34 34 33 33 33 33 32 32 32 32 32 32 32 32 32 31 30 29 27 26 27 29 30 30 29 28 28 27 26 26 26 26 26 25 24 23 22 21 21 20 20
33 34 35 35 34 33 33 33 33 33 32 32 33 32 32 32 32 31 30 29 27 27 28 30 32 31 29 29 29 28 28 28 27 27 26 25 24 24 23 22 21 20
33 33 33 35 35 34 33 33 32 33 33 33 33 33 32 33 33 33 32 30 29 28 29 30 32 31 30 29 29 29 30 30 29 29 28 27 26 25 24 23 22 22
29 30 33 35 36 35 34 33 33 32 33 33 33 33 32 33 33 33 33 31 30 29 29 30 31 30 30 29 29 29 30 31 31 30 30 29 28 26 25 24 24 23
24 24 29 32 35 35 35 34 34 33 32 32 32 32 32 33 33 33 33 32 31 30 30 30 30 30 29 29 28 28 29 30 31 31 31 30 29 28 26 25 25 24
26 23 25 28 31 33 35 35 35 33 32 31 32 32 33 33 33 33 33 32 31 30 30 30 30 29 29 28 28 28 28 29 30 31 32 31 30 29 28 27 26 26
31 28 27 29 31 33 34 34 34 33 31 31 31 32 32 32 32 32 33 32 31 30 29 30 29 28 28 27 27 27 28 28 30 30 31 31 30 29 29 29 28 27
31 30 31 33 34 34 34 34 34 33 32 31 31 31 31 31 32 32 32 32 31 30 30 29 29 28 27 26 26 27 27 29 30 30 31 31 30 30 29 29 29 29
28 30 33 35 37 37 36 35 35 35 34 33 32 31 30 30 31 31 32 32 31 31 30 29 28 28 27 26 26 26 27 29 30 30 30 30 29 29 29 29 29 29
29 32 34 37 39 39 38 37 36 35 35 35 34 32 30 29 29 30 30 31 30 30 30 29 28 27 27 27 26 26 26 27 28 28 29 29 28 28 28 28 28 28
31 34 36 39 41 41 39 38 37 36 35 35 35 34 32 31 30 30 30 30 30 30 30 29 29 28 27 27 27 27 27 27 27 28 28 27 27 27 28 28 28 28
34 36 39 41 43 42 40 39 38 37 36 36 36 36 34 33 32 31 31 31 30 30 30 30 29 28 28 28 28 29 29 29 29 30 29 27 26 26 27 28 28 27

ECMWFNIL_700_spd_069.txt.gz
Wind_Speed
23 23 23 22 21 20 20 19 17 17 16 15 14 13 12 13 13 12 11 11 10 10 10 10 9 8 6 5 4 4 3 2 1 1 3 5 5 5 5 5 5 5
23 23 24 24 22 22 21 20 19 18 16 15 14 14 15 15 14 13 13 12 11 11 10 10 10 9 8 6 6 5 3 3 3 1 1 3 4 5 5 5 4 4
24 23 24 24 24 23 22 21 20 19 18 17 16 16 16 17 16 15 14 14 12 12 11 10 10 10 10 9 8 6 5 5 4 3 2 2 3 4 4 4 4 4
24 24 23 23 23 23 23 23 21 20 20 19 18 17 18 18 17 16 16 15 14 13 13 12 11 11 11 11 10 9 8 7 6 5 4 3 3 3 4 4 4 5
23 24 24 23 23 23 25 25 23 22 22 21 19 19 19 19 18 17 17 16 15 15 14 13 13 13 13 13 12 11 10 9 8 7 5 4 4 4 4 4 5 6
24 24 24 24 24 24 25 26 25 24 23 23 22 21 20 20 19 18 18 17 17 16 15 14 14 14 14 14 13 13 13 11 11 9 8 7 6 5 4 4 5 7
26 25 24 24 25 25 26 26 25 25 24 24 24 24 23 22 20 19 19 19 19 18 17 16 15 15 15 15 15 14 14 14 13 12 11 10 8 7 5 5 5 7
27 26 26 25 25 26 26 26 26 25 25 25 26 25 25 24 23 21 21 21 20 20 19 17 16 16 16 16 16 16 16 16 15 14 13 12 11 9 7 7 7 8
28 28 28 27 27 26 26 26 26 26 26 26 26 26 27 26 25 24 24 23 22 22 21 20 18 17 17 18 17 17 17 17 16 15 15 14 13 11 10 10 9 10
30 30 30 30 29 27 26 26 27 27 27 27 26 27 28 28 27 27 26 25 25 24 23 23 21 20 19 19 18 18 18 18 17 17 16 16 15 14 14 13 12 12
32 31 31 31 30 29 27 27 27 28 29 28 28 28 28 28 28 28 28 28 27 26 25 25 24 23 21 20 20 19 19 19 19 18 17 17 17 17 17 17 16 15
34 33 33 32 31 30 29 28 28 28 29 29 29 29 29 28 29 29 29 29 27 27 26 26 26 25 24 23 22 21 21 21 21 20 19 19 19 19 19 19 19 18
36 35 34 33 32 32 31 30 30 30 30 30 30 30 30 30 30 29 29 28 28 27 27 26 27 27 26 25 24 23 22 22 22 22 21 20 20 20 20 21 21 20
37 36 35 35 34 33 33 32 32 31 31 31 30 31 31 31 30 30 29 29 28 28 27 27 27 28 28 27 26 25 24 24 23 23 23 22 22 21 21 22 23 22
37 37 37 36 36 36 35 34 34 33 33 32 32 32 32 32 31 31 31 31 30 29 28 28 28 28 28 28 27 27 26 25 24 24 24 24 23 22 22 23 23 23
35 37 38 37 37 37 35 35 34 35 35 34 34 34 33 33 33 32 32 32 31 31 30 29 29 29 28 28 28 28 28 27 26 26 25 24 24 24 24 23 23 23
32 35 38 39 39 38 37 36 36 35 36 36 36 36 35 34 34 34 34 33 32 32 31 30 29 28 28 28 29 29 29 29 28 28 27 27 26 25 25 24 24 24
32 33 35 37 38 39 38 38 38 37 37 37 37 37 36 35 35 35 34 34 33 33 32 31 29 28 27 28 28 29 30 30 29 29 29 29 29 28 27 25 25 25
33 33 32 32 33 36 37 37 38 38 38 37 37 37 37 37 36 36 35 34 34 33 32 31 29 28 27 27 28 28 29 30 30 30 29 30 30 30 29 28 27 26
34 33 30 28 29 32 35 36 37 37 37 37 37 37 38 37 37 36 35 35 34 33 32 31 30 28 28 27 27 27 28 29 30 30 29 29 30 30 30 30 29 28
32 33 29 27 27 29 31 33 34 35 36 37 37 38 38 37 36 36 35 35 34 34 33 32 30 29 28 28 28 27 27 29 30 30 30 30 29 30 30 30 30 29
29 32 31 30 29 29 30 31 31 32 33 34 35 36 37 37 36 35 35 34 34 34 33 32 30 29 29 28 28 27 27 28 30 31 31 31 30 30 30 30 30 30
25 30 31 32 33 33 32 32 30 29 30 31 33 35 36 36 36 34 34 33 33 33 32 31 28 27 28 28 28 28 28 29 30 31 31 32 31 30 30 30 30 30
26 29 30 32 35 35 34 32 31 30 29 30 31 33 34 35 36 35 34 33 32 31 30 29 28 26 26 27 27 28 29 30 30 31 31 32 32 31 31 30 29 29
28 29 31 34 36 35 34 33 32 31 30 31 31 31 32 33 35 36 35 32 31 30 29 29 27 26 26 26 27 29 30 31 31 32 32 32 32 32 31 31 29 28
29 31 32 34 35 34 33 33 33 33 32 32 32 31 31 32 34 35 35 33 31 30 29 28 27 26 25 25 26 28 30 31 33 33 33 32 31 30 30 30 29 27

ECMWFNIL_700_spd_072.txt.gz
Wind_Speed
20 20 20 19 18 18 17 15 14 12 11 10 9 8 9 9 8 7 6 6 5 5 6 6 5 5 4 3 2 2 3 5 5 5 3 3 3 2 2 3 3 3
19 20 21 21 20 19 19 17 16 14 13 11 11 11 11 11 10 8 8 7 6 6 6 6 6 6 5 4 3 3 2 3 4 4 3 3 3 3 3 3 3 2
20 20 21 22 21 20 19 18 18 16 15 14 13 12 12 13 12 11 9 8 8 7 7 7 7 7 7 6 5 4 3 2 3 3 3 3 3 3 3 3 3 3
21 20 20 21 22 21 20 20 19 18 17 16 14 14 14 14 14 12 11 10 9 8 7 7 7 7 8 8 7 6 4 3 2 2 2 2 2 2 2 2 2 3
21 20 19 20 21 22 23 22 20 19 18 17 16 15 15 15 15 14 12 11 10 9 8 8 8 8 8 8 8 7 6 5 3 2 2 1 1 1 2 2 2 3
20 20 20 20 21 22 24 24 23 21 20 18 18 17 17 16 16 15 14 12 11 10 8 8 8 8 9 9 8 8 8 7 6 4 3 2 2 1 1 2 2 3
21 21 21 21 22 22 23 24 25 24 22 21 20 20 19 18 17 16 15 14 13 11 10 9 9 9 9 10 9 9 9 9 9 7 5 5 4 3 2 2 3 4
22 21 21 22 22 23 23 24 25 25 25 24 23 21 21 20 19 18 17 16 15 13 12 11 10 10 10 10 10 10 10 10 10 9 8 8 7 5 5 4 4 5
24 23 23 23 23 23 23 23 24 25 26 26 25 24 23 22 21 20 20 19 18 16 14 13 12 12 12 11 11 11 11 12 12 11 10 10 9 9 8 7 6 7
26 25 25 24 24 24 23 23 23 24 25 25 25 26 26 25 24 24 23 22 20 18 16 15 15 14 14 13 12 12 12 13 13 13 12 12 12 12 11 10 9 8
28 27 27 26 26 25 24 23 23 24 25 25 25 26 26 27 27 27 26 24 22 20 19 18 17 17 17 16 15 14 14 14 14 15 14 14 13 14 14 13 12 11
29 28 28 27 27 26 25 24 24 25 26 26 26 26 27 27 28 28 28 27 25 23 23 21 20 20 20 19 18 17 16 16 16 16 16 16 16 15 16 16 15 15
30 30 29 29 29 28 27 27 26 26 26 27 27 28 28 28 28 28 28 28 27 26 26 24 23 23 22 21 21 20 19 18 18 17 17 18 18 18 17 18 17 17
29 29 30 30 30 30 29 29 29 28 27 27 28 28 29 29 29 29 29 29 29 28 28 27 26 25 24 23 23 23 22 21 20 19 19 19 19 19 20 19 19 19
27 28 29 30 31 31 31 31 30 30 29 29 29 29 29 29 30 29 30 30 30 30 29 29 29 27 26 25 24 24 24 23 22 21 21 21 20 21 21 22 21 21
26 28 29 30 32 32 32 32 32 32 32 31 31 31 31 31 31 31 31 31 31 31 31 31 30 29 27 26 25 25 25 25 25 24 23 23 22 22 22 23 23 23
26 27 30 32 33 34 34 34 34 34 34 34 33 33 33 32 33 32 32 32 32 32 32 32 31 30 28 27 26 26 26 26 26 26 25 25 24 24 23 23 24 24
28 28 29 31 33 35 35 35 35 36 36 36 35 35 34 34 34 34 33 33 33 33 33 33 32 31 30 29 28 27 27 27 27 27 27 27 26 26 25 25 24 25
29 30 31 31 31 33 35 36 37 38 37 36 36 35 35 35 35 34 34 34 35 35 34 34 33 32 31 30 29 28 27 28 28 28 29 29 28 27 27 27 27 26
28 31 33 32 31 30 31 33 36 38 37 37 36 35 36 36 35 35 35 35 35 35 35 34 33 32 32 31 30 29 28 28 29 30 30 30 30 29 29 28 28 28
28 30 32 32 31 30 29 29 33 36 37 36 36 36 36 35 35 35 35 35 35 35 35 35 34 32 32 32 31 30 30 30 30 31 31 31 31 30 30 29 29 29
28 29 29 29 30 32 32 31 32 34 35 35 35 35 35 35 35 35 35 35 34 34 35 35 33 33 32 32 32 31 31 32 32 32 33 33 32 31 31 30 29 30
27 27 27 28 30 33 35 35 34 34 35 34 33 33 33 33 34 34 35 35 34 34 35 34 32 32 32 32 32 32 33 33 34 34 34 34 33 32 31 30 30 30
25 25 27 28 30 33 35 36 35 36 36 35 34 33 32 32 33 34 34 34 35 34 34 32 31 30 31 31 31 32 33 34 35 35 35 35 34 33 32 31 30 29
24 24 26 26 29 33 36 37 37 37 37 37 35 34 33 32 32 34 34 34 34 34 33 31 30 29 30 30 29 30 32 33 34 36 37 36 35 34 33 32 30 29
25 26 27 27 27 30 34 37 38 38 38 38 36 35 33 33 33 34 34 33 33 32 31 30 29 28 28 28 28 29 31 32 34 36 36 36 35 34 33 32 31 30

ECMWFNIL_700_spd_078.txt.gz
Wind_Speed
19 19 18 18 18 17 15 14 13 13 13 13 13 12 12 11 10 9 8 7 6 6 5 5 5 6 6 7 7 7 6 5 5 4 5 5 6 7 7 7 7 7
19 19 19 19 18 17 16 15 14 14 14 14 14 13 12 12 11 10 9 8 7 6 6 6 6 5 6 6 7 7 7 6 5 4 4 5 6 7 7 7 8 8
20 20 20 19 19 18 17 17 16 15 15 14 14 14 13 12 11 10 9 8 8 7 7 7 6 6 6 6 6 7 7 6 6 5 4 4 5 6 6 7 7 8
20 20 20 20 19 19 18 18 17 16 16 15 15 14 13 13 12 11 10 9 8 8 7 7 7 7 6 6 6 6 6 6 6 6 5 4 4 5 5 5 6 7
20 20 21 21 21 20 19 19 18 17 17 16 16 15 14 14 13 12 10 10 9 9 8 8 7 7 7 7 6 6 5 5 5 5 5 5 4 4 4 3 4 5
21 21 21 22 22 21 20 19 19 18 18 17 17 16 15 15 14 13 12 11 10 10 9 9 8 8 8 7 7 6 6 6 5 5 5 5 5 4 4 4 4 4
20 21 21 22 22 22 22 21 20 19 19 19 19 18 17 16 15 14 13 13 12 11 11 10 10 9 9 8 7 7 6 6 5 5 4 4 4 4 4 4 4 4
20 20 21 22 22 22 22 23 22 21 20 20 20 19 19 18 17 16 15 14 13 13 12 11 11 10 10 9 8 8 7 6 6 6 5 5 4 4 4 4 4 4
22 21 21 21 22 22 22 23 23 22 22 21 21 21 21 20 19 18 17 16 15 14 13 13 12 11 11 10 10 9 8 8 7 7 7 6 6 6 5 5 4 4
24 23 23 22 22 22 22 22 22 23 24 23 22 22 22 21 20 20 19 18 16 15 15 14 14 13 12 11 11 10 10 9 9 9 8 8 8 8 7 7 6 5
25 24 24 24 23 22 22 22 22 22 23 24 24 24 24 23 22 21 20 19 18 17 16 16 15 15 15 13 13 12 12 11 11 10 10 10 9 10 9 9 8 7
27 26 25 25 24 23 22 22 22 23 23 23 25 25 25 24 24 23 22 21 20 19 18 18 18 18 17 16 16 15 14 13 13 12 12 11 11 11 11 11 11 10
28 27 26 25 25 25 24 24 24 24 23 23 24 25 26 25 25 25 24 23 22 21 21 21 21 21 20 20 19 19 17 16 15 14 14 13 13 13 13 13 13 13
29 28 27 26 26 26 26 26 26 25 25 24 25 25 26 26 26 26 25 25 25 24 24 23 23 23 23 23 22 21 20 19 18 17 16 16 16 16 16 15 15 15
30 29 28 28 28 28 28 27 27 27 27 27 26 26 26 26 27 27 27 26 26 26 26 26 26 26 26 25 24 23 22 21 20 19 19 18 18 18 18 18 17 17
31 31 30 30 30 29 29 28 28 29 29 29 28 27 27 27 28 28 28 28 28 28 28 28 28 28 27 26 25 24 23 23 22 22 21 21 21 21 21 21 20 20
30 31 32 31 31 31 31 30 30 30 31 31 30 30 30 29 29 30 30 29 29 29 29 30 30 29 28 27 26 25 25 25 25 24 24 23 23 23 23 22 22 22
28 30 31 32 32 32 32 33 32 33 33 32 32 32 32 32 32 32 31 31 31 32 31 31 31 30 29 28 27 27 27 28 28 28 27 26 26 25 25 24 24 24
29 29 31 32 33 33 34 35 35 35 35 34 34 34 34 35 34 34 34 33 33 33 33 33 32 32 31 29 29 29 29 29 30 30 30 29 28 28 27 26 26 26
30 30 31 32 33 34 35 36 36 36 36 35 35 35 36 36 36 35 35 35 35 35 35 35 34 33 32 31 30 30 30 31 32 32 32 32 31 30 29 29 28 28
31 31 31 31 33 34 35 37 37 37 36 36 36 36 37 36 36 37 37 37 36 36 36 36 35 34 33 32 31 30 31 32 33 34 34 34 33 32 31 31 30 30
33 32 31 32 33 34 36 37 38 38 38 37 37 38 37 37 37 37 37 37 36 36 37 36 35 34 34 33 32 32 32 33 34 34 35 34 34 33 32 32 32 32
34 32 31 32 34 35 36 37 38 39 39 39 39 39 39 38 37 36 37 37 37 37 37 36 35 33 33 33 32 32 34 35 35 35 35 35 34 33 33 32 32 32
32 32 33 33 34 35 36 37 38 39 39 39 39 40 40 39 37 37 37 37 37 37 36 36 34 33 32 32 32 33 34 35 36 36 36 35 34 33 33 32 32 32
30 33 35 36 35 35 35 37 38 38 37 37 36 37 39 39 38 38 38 37 37 36 36 35 34 34 33 33 33 33 34 35 36 37 37 36 35 34 34 33 32 32
28 31 34 37 39 37 35 36 36 35 35 34 34 36 38 38 38 38 38 38 38 37 36 35 34 33 34 34 33 34 34 35 36 37 37 35 35 35 34 34 33 33

ECMWFNIL_700_spd_081.txt.gz
Wind_Speed
19 19 19 18 18 17 16 15 14 13 13 12 11 10 10 9 9 9 8 7 7 6 6 6 7 7 7 7 6 6 6 5 5 5 6 8 8 9 8 7 7 6
19 19 19 19 19 18 16 16 15 14 14 13 12 11 10 10 9 9 8 8 8 7 6 6 7 7 7 7 6 6 5 5 5 4 5 7 8 8 8 7 7 7
20 19 19 19 19 19 17 17 16 15 15 14 14 12 11 10 9 9 8 8 8 8 7 7 7 7 7 7 7 6 6 6 6 5 5 7 8 8 8 8 7 7
20 19 19 19 20 20 20 18 17 16 16 15 14 13 12 11 10 10 9 8 8 8 8 8 7 7 7 8 8 7 7 6 6 6 6 7 7 7 7 7 7 7
20 20 20 20 20 21 21 20 18 17 17 16 15 14 13 12 11 11 10 9 8 7 8 8 8 7 7 8 8 8 7 6 6 6 6 6 6 6 6 7 8 8
21 21 21 20 21 21 21 20 19 19 18 17 16 15 14 14 13 12 11 10 9 8 8 8 8 8 8 8 8 8 8 7 7 6 6 6 6 6 6 6 7 8
21 21 22 21 21 21 21 20 20 21 20 19 18 17 16 15 14 14 13 12 11 10 10 9 9 9 8 8 8 8 8 8 7 7 6 6 6 6 6 5 5 6
21 22 22 22 22 22 21 21 21 21 21 20 20 19 18 17 16 15 15 14 13 12 12 11 10 9 9 9 9 8 9 8 8 8 7 7 6 6 6 5 5 5
21 22 23 23 23 23 22 22 21 21 21 20 20 20 19 19 18 17 16 15 14 14 13 12 12 11 10 10 10 9 9 9 9 9 8 8 7 7 6 5 5 5
23 23 23 23 23 23 23 23 23 23 22 21 21 21 21 20 20 19 18 17 16 15 15 14 14 13 12 12 11 11 10 10 10 9 9 8 8 7 7 7 6 5
24 24 24 24 24 23 23 23 24 24 23 23 22 22 22 22 21 21 20 18 17 16 16 16 16 16 15 14 13 13 12 11 11 10 10 9 9 8 8 8 7 7
26 26 25 25 24 24 23 22 23 24 24 23 23 23 23 23 23 22 21 20 19 18 18 17 17 17 17 16 16 15 15 14 13 12 11 11 10 10 9 9 8 8
28 28 27 27 26 25 24 23 23 24 24 24 24 24 24 24 24 24 23 22 20 20 19 19 19 19 19 18 18 18 17 16 15 14 13 13 12 12 11 11 10 10
29 29 29 29 28 27 26 25 23 23 24 25 25 24 24 24 25 25 24 23 22 22 21 21 20 21 21 20 20 20 20 19 18 17 16 15 14 14 14 13 13 12
31 31 31 31 30 30 29 27 27 25 24 25 25 25 24 24 25 25 25 25 25 24 24 24 23 22 22 22 22 22 21 20 20 19 19 18 18 17 16 16 15 14
34 34 34 33 32 32 31 30 29 28 26 26 26 25 24 24 25 26 26 26 26 26 26 26 26 26 25 24 23 22 22 22 22 22 21 21 20 20 19 19 18 17
37 36 37 37 35 34 33 32 31 31 30 29 28 28 27 26 26 26 26 26 26 26 26 27 27 27 27 26 25 24 24 23 24 24 23 23 23 23 22 21 21 21
37 35 35 36 36 35 34 34 34 33 33 32 31 31 30 29 28 28 28 27 26 26 27 27 27 28 29 28 27 26 25 26 26 26 26 26 25 25 25 24 23 23
36 35 35 35 36 36 36 36 36 36 35 35 34 34 33 32 31 31 31 30 29 29 28 27 27 27 28 29 27 26 26 27 28 28 29 28 28 27 27 26 26 25
36 37 37 37 37 38 38 38 38 38 37 37 37 36 35 35 34 33 33 33 32 32 31 29 28 28 29 29 27 26 25 26 28 30 31 31 30 30 29 28 28 27
35 37 37 38 39 40 39 37 38 38 39 39 39 37 36 36 35 35 35 34 33 33 33 32 30 29 30 30 28 26 26 26 28 30 32 32 32 31 31 30 29 29
32 35 36 37 39 40 38 36 36 37 38 38 37 35 34 35 35 34 34 34 34 33 34 33 32 31 32 31 29 27 26 27 29 30 32 33 33 33 32 31 31 30
33 35 37 38 39 39 38 38 37 36 36 37 36 36 35 35 35 34 33 33 33 33 34 33 33 32 32 32 30 29 28 29 30 31 32 33 33 33 32 32 32 31
36 37 39 41 41 38 35 35 36 35 35 36 36 36 35 37 38 36 35 33 33 33 33 33 33 33 32 32 32 31 31 31 32 33 33 33 33 32 32 32 32 31
35 37 40 42 41 38 33 30 31 33 34 35 36 36 36 37 38 38 37 36 35 35 34 33 32 32 32 33 33 32 32 33 34 35 35 34 34 33 33 32 32 31
32 35 38 40 41 40 36 32 29 30 33 35 37 39 39 38 38 38 36 36 36 36 35 34 32 32 32 33 33 33 32 33 35 36 36 35 35 35 34 34 33 32

ECMWFNIL_700_spd_084.txt.gz
Wind_Speed
17 17 16 17 16 15 15 15 14 14 13 12 11 11 10 9 9 9 8 6 6 6 6 7 7 8 7 7 6 5 5 5 5 4 6 10 11 10 9 9 9 8
17 17 17 17 17 16 15 15 14 14 13 12 10 10 9 9 8 8 8 7 6 6 5 6 7 8 8 7 6 6 6 5 6 4 5 9 10 9 9 9 9 8
16 16 16 17 18 17 16 16 15 15 14 13 11 10 9 8 8 7 7 7 7 6 5 5 6 7 8 7 6 6 6 6 6 5 4 7 9 9 8 8 8 8
16 16 16 17 18 18 17 17 16 15 15 14 13 11 10 9 8 7 7 7 7 6 5 5 5 6 6 6 7 6 6 6 6 5 5 6 8 8 7 7 7 7
16 16 17 17 19 19 19 18 17 16 16 15 14 12 11 10 9 9 8 7 7 6 6 5 5 6 6 6 7 7 6 6 5 5 5 6 7 7 6 6 6 6
17 17 17 18 19 20 19 18 18 17 16 15 14 13 12 11 10 10 9 8 8 7 7 6 6 6 7 7 7 7 7 6 5 6 6 6 6 6 5 5 6 6
19 18 18 18 19 20 20 19 18 18 17 17 16 14 13 12 11 11 10 9 9 8 8 8 7 7 7 7 7 7 7 6 5 5 5 6 6 6 6 5 5 6
19 19 19 19 19 20 21 20 20 19 18 18 16 15 14 13 12 11 10 10 9 9 9 8 8 7 7 7 7 7 7 7 6 6 5 5 5 5 5 5 5 5
20 20 21 20 20 20 21 21 21 20 19 19 17 16 15 14 13 12 11 11 10 9 10 9 9 8 8 7 7 8 7 8 7 7 6 6 5 5 5 5 4 4
20 21 21 21 21 21 20 21 21 21 21 20 19 18 17 16 15 14 13 12 12 11 11 11 10 10 9 9 8 9 9 8 8 7 7 7 7 6 6 6 5 4
24 21 21 21 22 21 20 20 21 22 22 21 20 20 19 18 17 16 15 14 13 12 12 12 12 12 11 11 10 10 10 10 10 9 9 9 8 8 8 7 7 6
27 25 22 20 20 20 20 20 21 21 21 21 20 20 21 20 19 18 17 16 15 14 14 14 14 14 13 13 13 13 13 12 12 11 11 11 10 10 10 9 8 8
29 28 27 23 20 20 20 20 21 21 21 20 20 20 21 21 21 20 19 18 17 17 16 16 16 16 16 16 16 16 15 15 14 14 13 13 12 12 11 11 11 10
29 28 27 26 25 23 21 20 20 20 20 20 20 20 21 21 21 21 20 20 19 19 19 19 19 19 18 18 18 18 18 17 16 16 15 15 14 13 13 13 13 12
25 26 25 24 24 23 22 21 20 19 18 18 18 19 20 21 21 22 22 22 21 21 21 21 21 21 21 20 20 20 20 19 18 18 17 17 16 16 15 15 14 14
22 24 24 23 22 22 22 23 22 21 20 19 19 18 19 20 22 23 24 23 22 22 23 23 24 23 22 22 21 21 21 21 20 20 20 20 19 18 17 17 16 16
23 23 23 23 23 24 24 25 25 24 23 24 23 21 19 20 21 23 24 24 24 23 23 24 25 25 25 24 23 23 23 23 22 22 22 22 22 21 20 19 19 18
25 26 26 26 26 27 27 27 27 27 25 25 25 24 23 23 22 22 23 24 25 24 23 23 24 25 26 26 25 24 25 25 25 24 24 24 24 23 23 22 22 21
27 29 29 29 29 29 28 27 28 29 28 27 27 27 26 25 24 24 23 23 24 24 24 23 22 23 25 26 25 24 24 26 27 27 27 26 26 25 25 25 24 24
28 30 31 31 30 30 30 29 30 31 31 31 31 30 29 28 27 27 26 25 25 25 25 25 24 23 24 25 25 23 22 23 25 27 28 29 28 28 27 27 26 25
29 29 28 29 29 30 30 31 32 32 32 33 32 31 32 31 31 31 30 28 28 28 29 29 28 27 27 27 27 25 23 22 23 25 27 28 29 29 29 28 27 27
32 30 29 29 30 31 31 32 31 31 32 33 33 33 33 33 33 32 31 31 31 32 32 32 31 30 30 31 30 28 26 24 23 24 25 26 27 28 28 28 28 27
31 32 33 33 32 31 32 32 32 31 31 32 34 35 35 34 34 33 33 33 33 34 35 35 33 31 32 32 32 32 30 28 26 25 25 26 26 26 27 27 27 27
26 28 32 35 33 31 32 33 34 33 33 34 36 36 36 34 34 34 35 36 36 35 36 36 35 34 33 34 34 34 34 33 31 30 28 27 26 27 27 27 27 26
21 23 27 32 34 34 34 35 35 35 35 36 36 37 36 36 35 36 38 38 38 36 35 37 37 36 35 36 35 35 36 36 36 36 34 31 30 30 29 29 29 28
15 19 23 28 32 34 34 34 35 35 35 35 35 36 38 37 36 37 38 39 40 38 36 37 38 38 39 39 37 35 35 36 36 36 36 34 33 33 33 32 32 31

ECMWFNIL_700_spd_087.txt.gz
Wind_Speed
14 14 14 13 11 10 10 10 11 11 12 12 12 11 11 11 10 8 7 7 7 7 7 7 7 7 7 7 8 8 8 7 8 8 10 11 11 10 11 10 9 9
13 15 14 13 12 11 10 11 11 11 11 11 11 11 12 11 10 9 7 6 6 6 6 7 7 7 7 7 7 6 7 7 7 7 9 11 11 11 11 11 10 10
13 14 14 13 13 12 11 11 11 11 11 12 11 11 11 11 10 9 7 6 6 6 5 6 7 7 7 7 6 6 6 7 7 6 7 10 11 11 12 11 10 9
12 13 14 14 13 13 13 12 12 12 12 12 11 11 11 10 10 9 8 7 6 5 5 6 7 8 7 7 7 7 7 7 7 6 7 10 11 11 11 11 10 9
13 13 13 14 14 14 14 14 13 13 12 12 12 11 11 10 10 9 8 7 6 6 5 5 6 7 7 7 7 6 6 6 7 6 6 9 10 10 9 10 10 9
14 13 13 14 14 14 15 14 14 14 13 13 12 11 10 9 9 9 8 7 7 6 6 6 6 6 7 7 6 6 6 6 7 7 7 8 9 8 8 8 9 8
16 15 14 14 14 14 15 15 15 15 14 14 13 12 11 9 9 9 9 8 8 7 7 7 7 6 6 6 7 7 7 6 6 6 7 8 8 7 7 7 7 7
18 17 16 15 14 14 15 15 16 16 15 15 14 13 12 11 10 10 10 9 9 8 8 8 8 7 7 6 7 7 7 6 6 6 6 6 7 7 7 7 6 6
20 19 18 17 15 14 14 15 16 16 16 16 15 14 13 12 11 10 10 10 10 10 9 9 8 8 7 7 7 6 7 7 6 6 6 6 6 6 6 6 5 5
21 20 20 20 18 16 15 15 15 16 17 16 16 15 14 13 13 12 11 11 11 11 10 10 9 9 9 8 8 7 7 7 7 7 6 6 6 6 5 5 5 5
21 21 21 20 19 18 17 16 15 16 17 17 18 17 16 15 15 14 13 13 12 12 11 11 11 11 10 10 10 10 9 9 9 8 8 7 7 7 6 6 6 5
21 20 20 18 18 18 18 17 17 16 17 18 19 19 18 18 17 16 15 14 14 13 13 13 13 13 12 12 12 12 12 12 11 11 10 9 9 9 8 8 7 7
23 22 20 18 19 19 19 19 19 19 19 19 20 20 20 20 19 18 17 16 16 15 15 15 14 14 14 14 14 14 14 14 14 13 12 12 11 11 11 10 10 9
26 24 23 22 21 21 21 20 20 21 21 21 20 21 21 21 20 19 18 18 17 17 17 17 17 16 16 15 15 16 16 15 15 15 14 14 13 13 13 12 12 11
27 26 26 25 24 24 23 22 21 22 22 22 20 20 21 21 21 20 19 19 18 18 19 19 19 18 17 17 17 17 17 17 16 16 16 16 15 15 15 14 14 14
27 28 27 27 27 26 26 25 23 22 22 22 21 20 21 23 23 23 22 21 19 19 20 20 20 20 19 18 18 18 19 19 18 18 18 18 17 17 17 17 16 16
26 26 26 27 28 28 28 27 25 24 23 21 20 19 19 21 23 24 24 23 21 20 20 21 21 20 20 20 20 20 20 20 20 19 19 19 19 19 19 19 19 18
23 22 20 21 25 28 29 28 26 25 23 22 21 21 19 19 20 22 23 23 22 21 20 21 21 21 21 21 21 21 21 21 21 21 21 20 20 21 21 21 21 21
23 22 19 19 22 25 27 27 27 27 26 25 24 23 22 22 22 21 21 21 21 21 20 19 20 21 22 23 22 21 21 22 22 23 24 24 23 23 22 22 23 23
24 24 23 22 22 22 23 25 26 28 28 28 27 26 25 25 25 25 24 23 22 21 21 21 20 19 20 21 22 21 21 22 22 23 24 25 26 26 25 25 24 24
24 24 23 21 21 21 22 23 25 27 29 29 28 28 27 27 27 28 28 27 25 23 23 23 23 23 22 22 22 22 22 21 21 22 23 24 25 26 27 27 26 26
25 25 23 22 20 20 21 22 23 26 29 31 30 29 29 29 30 30 30 30 28 27 27 25 25 26 28 27 26 25 24 24 24 23 23 23 23 24 25 26 26 27
23 23 23 24 24 23 23 23 23 24 28 31 33 32 31 31 32 33 33 32 31 31 30 29 29 30 31 29 29 28 26 26 27 26 25 24 24 23 24 25 26 27
17 18 20 23 25 26 27 26 25 26 28 31 33 33 33 32 33 33 34 34 34 33 33 33 33 33 32 30 29 29 29 30 30 29 27 26 25 25 25 25 26 27
14 15 18 21 24 26 28 28 28 29 30 31 32 33 33 32 31 31 32 33 34 34 35 36 36 34 33 31 30 31 31 31 32 33 31 29 30 30 29 28 28 28
11 13 15 18 21 24 27 28 29 30 31 32 31 31 31 31 31 30 30 30 32 34 36 36 35 33 32 32 32 33 33 32 32 34 32 31 32 34 34 33 32 31

ECMWFNIL_700_spd_090.txt.gz
Wind_Speed
14 13 12 11 10 10 9 9 8 9 10 9 9 9 10 10 9 8 8 7 7 7 7 8 8 8 8 9 9 9 9 9 9 9 10 10 10 10 9 9 9 8
15 14 13 12 11 11 9 10 10 10 10 10 10 9 9 9 9 8 7 7 7 7 7 8 8 8 9 9 9 9 9 9 9 9 10 11 11 10 9 10 10 9
15 14 14 13 12 11 10 11 11 10 10 10 10 9 10 10 9 9 7 7 8 8 8 8 9 9 9 9 9 8 8 8 8 9 10 11 12 11 10 10 10 8
14 14 14 14 13 12 12 12 11 11 10 11 11 10 10 10 10 9 8 8 8 8 9 9 9 9 9 9 8 7 7 7 7 7 8 9 11 11 10 10 10 9
14 14 14 15 14 14 13 13 12 12 11 11 11 11 11 11 11 10 10 9 8 8 8 8 9 9 9 8 7 6 6 7 7 6 7 8 9 10 10 10 10 9
16 15 15 15 16 15 15 14 13 13 13 12 12 12 12 12 11 11 10 9 9 8 7 7 8 8 8 7 6 6 6 6 6 5 5 6 8 9 9 10 10 10
17 16 16 16 16 16 16 16 15 14 14 13 13 13 12 11 10 11 10 10 9 8 8 8 8 8 8 7 6 6 5 5 6 5 4 4 5 7 8 8 9 10
17 17 17 16 16 16 16 16 16 15 14 14 14 13 12 11 10 10 11 10 9 8 8 8 8 8 8 8 7 6 6 5 5 5 5 4 5 6 6 6 7 8
19 19 18 17 17 17 16 16 16 16 16 14 13 13 13 12 10 10 10 10 9 8 8 8 8 8 8 8 8 7 7 7 6 6 6 6 6 6 6 6 6 6
21 21 20 19 19 18 17 17 17 17 17 16 15 13 13 12 11 11 10 10 9 9 9 8 8 8 8 8 8 8 8 8 8 7 7 7 7 7 7 7 6 6
23 23 22 21 20 19 19 19 19 19 19 18 17 15 14 13 12 12 11 10 9 9 9 9 9 9 8 8 8 8 8 8 8 8 8 8 8 8 8 8 7 7
24 23 21 21 21 20 20 20 20 21 21 20 19 18 17 15 14 13 12 11 10 10 10 10 10 10 10 10 10 10 9 9 9 9 9 9 9 9 9 9 8 8
24 23 22 22 22 22 21 21 21 21 22 22 21 21 19 18 16 15 14 12 12 12 11 11 11 11 11 11 11 11 11 11 10 10 10 10 10 10 10 10 10 10
24 24 24 24 23 23 23 22 22 22 22 22 22 22 21 20 19 18 17 16 15 14 14 14 13 13 12 12 12 12 12 12 12 12 12 12 12 12 12 12 12 11
26 25 25 24 23 22 22 22 22 21 21 22 22 23 22 22 21 20 19 19 18 18 17 17 16 15 14 14 14 14 13 13 13 13 14 14 14 14 14 14 14 13
26 26 25 25 24 23 22 22 21 21 21 21 21 22 23 23 23 22 22 21 21 21 20 20 19 18 17 17 17 17 16 16 15 15 15 15 15 15 15 15 15 15
24 25 25 26 26 25 24 24 23 22 21 21 21 21 22 24 24 24 23 23 23 23 23 23 22 21 20 20 20 19 19 19 18 18 17 17 17 17 16 16 16 16
22 24 25 26 27 27 27 26 25 24 23 22 22 21 21 23 25 25 24 22 22 23 23 24 24 23 23 23 23 22 22 22 22 21 21 20 19 19 18 18 18 18
20 22 26 28 29 28 28 28 28 26 25 24 25 24 22 22 24 25 25 23 22 22 22 23 23 24 24 24 24 24 24 25 24 23 23 22 21 21 20 20 20 20
18 19 23 26 28 27 26 26 27 28 27 26 26 26 25 24 23 24 24 23 22 21 20 20 20 21 22 22 23 23 24 24 24 23 24 24 23 23 22 22 22 22
16 16 19 22 23 23 21 20 22 25 27 27 27 28 28 27 26 25 23 23 23 22 22 20 19 19 19 19 20 20 21 23 23 22 22 22 23 24 24 24 24 24
17 17 18 20 22 23 21 20 20 21 24 26 28 29 29 29 29 28 27 26 26 25 25 24 22 21 20 20 19 19 20 21 22 22 22 21 22 22 23 23 24 25
21 21 22 22 23 24 23 21 21 22 23 25 27 29 29 30 31 31 32 32 31 30 29 27 25 24 23 23 23 22 22 22 22 23 23 23 23 23 24 24 24 25
24 25 25 25 25 25 24 23 22 23 24 26 28 29 31 32 34 36 37 37 36 34 33 31 29 27 27 27 27 27 26 25 25 25 25 25 25 25 25 26 27 27
24 25 25 26 28 29 28 27 27 26 26 27 28 30 32 34 36 38 38 36 35 33 32 31 31 31 31 30 29 29 29 29 28 28 28 28 28 28 28 28 29 29
19 20 21 24 27 30 31 32 32 31 30 30 30 31 33 35 36 36 35 35 35 33 31 32 32 33 33 32 31 30 30 31 31 31 31 31 31 31 31 30 30 30

ECMWFNIL_700_spd_093.txt.gz
Wind_Speed
14 13 12 11 10 9 9 8 7 6 7 7 8 9 9 9 9 9 9 8 8 9 9 9 9 10 9 9 9 10 11 10 10 10 10 11 11 11 10 10 9 8
15 14 14 12 11 11 10 9 8 8 8 8 8 8 8 8 8 9 8 8 9 9 8 8 8 9 9 9 9 9 10 10 10 10 11 12 11 11 10 10 9 9
16 16 15 14 13 12 12 10 10 9 9 8 9 8 8 8 8 9 8 8 9 8 8 7 7 8 9 9 9 9 9 9 9 10 11 12 12 12 11 10 10 10
16 16 16 15 14 14 13 12 11 10 9 9 9 9 9 9 9 9 8 8 8 7 8 8 8 8 8 9 9 8 8 8 8 9 10 12 13 13 12 11 11 10
16 16 16 16 16 15 14 13 12 11 10 9 10 10 9 9 9 9 8 7 7 6 7 7 8 8 8 8 8 8 8 8 8 8 9 10 12 13 13 12 11 11
17 17 17 16 17 16 15 15 13 12 12 11 11 10 10 10 10 10 9 7 7 6 6 7 8 8 8 8 7 7 8 8 8 8 7 8 10 12 12 11 11 10
17 17 17 17 18 17 16 16 15 14 13 12 12 11 11 11 10 10 9 9 8 7 7 7 7 8 8 8 7 7 7 7 8 7 6 6 7 9 10 10 9 9
18 18 18 18 18 18 18 17 16 15 15 14 13 12 12 11 11 11 10 10 9 8 8 7 7 8 8 8 7 7 7 7 7 7 5 5 5 7 9 8 8 9
20 20 20 19 19 19 19 18 17 17 16 16 15 14 14 13 12 12 11 11 10 9 8 8 8 8 8 8 8 8 8 7 7 7 6 5 5 6 7 7 7 7
21 21 21 21 20 20 20 20 19 19 19 18 17 16 16 15 14 13 12 12 11 10 9 9 8 9 9 9 9 9 9 9 8 8 6 6 5 6 6 6 6 7
23 22 22 22 21 21 21 21 21 21 20 20 19 19 18 17 17 15 14 13 13 12 11 10 10 10 10 10 10 10 10 10 10 9 8 7 7 7 7 7 7 7
24 23 23 22 22 21 21 22 23 23 22 22 21 20 20 19 19 18 16 15 14 14 13 12 12 11 11 11 10 10 10 10 10 9 9 8 8 9 9 9 8 8
26 24 23 23 22 22 22 22 23 23 23 23 22 22 21 20 20 19 18 17 16 15 14 14 13 13 12 12 11 11 10 10 10 9 9 9 9 10 10 10 10 10
27 26 25 24 23 24 23 23 23 23 23 24 24 23 22 21 21 20 20 19 18 17 16 15 15 14 14 13 12 12 12 11 11 11 10 10 10 11 11 11 11 11
29 29 27 26 25 25 24 24 23 23 24 24 24 24 23 23 22 22 22 21 20 20 19 18 17 16 15 15 14 14 14 13 13 13 12 12 12 12 12 12 12 12
30 29 29 28 28 27 25 25 24 24 24 24 25 25 25 24 24 24 23 22 22 21 21 20 20 18 18 17 17 17 16 16 16 15 15 15 15 15 14 14 13 13
29 29 28 28 29 28 27 26 25 24 25 25 25 25 25 25 25 25 25 24 24 23 23 22 21 20 20 20 19 19 19 19 19 19 19 18 18 17 16 16 15 15
29 29 28 28 29 28 27 26 25 24 25 26 25 25 25 25 25 26 26 25 25 25 25 25 23 22 21 21 21 21 21 21 22 22 21 21 20 19 18 17 17 17
29 29 28 27 28 28 27 26 26 26 25 25 25 24 24 25 25 25 26 26 26 26 27 27 26 24 23 23 22 22 22 23 23 23 23 22 21 20 20 19 19 19
28 28 26 26 27 27 27 28 28 28 27 26 26 25 25 25 25 25 25 26 26 27 27 28 27 26 25 24 23 22 23 24 24 24 23 23 22 22 21 21 20 20
27 27 27 27 27 27 28 28 29 29 29 29 29 29 29 28 28 27 26 25 25 25 26 26 27 27 26 25 23 22 22 24 24 25 24 23 23 22 22 21 21 21
26 27 27 26 26 26 27 27 28 28 29 30 32 33 33 32 31 29 26 24 24 23 23 24 24 25 25 24 23 22 21 22 23 23 24 23 22 21 20 20 20 21
22 24 25 25 24 23 24 25 26 27 28 30 32 32 33 33 32 29 26 25 25 25 24 24 24 24 24 23 23 22 21 21 21 21 22 22 21 20 20 21 21 21
20 22 24 25 24 22 22 22 24 25 26 26 26 27 29 31 31 29 27 28 29 28 27 26 26 26 25 25 25 24 24 23 23 23 23 22 22 22 23 23 24 24
22 23 24 24 22 22 22 22 23 25 26 26 26 25 27 30 30 28 27 29 32 30 28 28 28 27 27 28 29 28 28 27 26 26 25 25 25 26 26 26 26 27
22 23 24 24 22 21 22 24 26 27 27 28 27 26 27 29 29 28 27 31 34 32 30 28 28 28 30 31 31 31 31 31 30 30 29 29 29 29 29 28 28 28

ECMWFNIL_700_spd_096.txt.gz
Wind_Speed
13 12 11 10 9 9 8 8 7 7 6 6 6 7 7 7 8 8 9 9 10 10 10 10 10 10 10 9 9 9 10 10 10 9 8 9 9 10 10 8 7 6
14 13 12 11 10 9 9 8 8 8 8 7 7 7 7 7 8 8 8 9 9 10 10 10 10 10 9 9 8 9 9 9 9 9 9 10 10 10 9 8 8 7
15 14 13 12 11 10 10 9 9 9 9 8 8 8 7 8 9 9 8 9 9 9 9 9 9 9 9 8 8 8 8 8 9 9 9 10 10 10 9 9 8 7
16 15 15 14 13 12 12 11 10 10 9 9 9 9 8 8 9 8 8 8 8 8 8 8 8 8 9 9 8 8 8 8 8 8 9 9 10 11 10 9 8 8
17 16 16 16 15 15 14 12 11 11 11 10 11 10 10 9 9 9 9 8 8 7 8 8 8 8 9 9 8 8 8 8 7 7 8 8 9 10 11 10 9 9
17 18 17 17 17 17 15 14 13 13 12 12 12 12 11 11 10 10 10 8 8 7 8 8 8 9 9 9 9 8 8 7 7 6 7 7 7 9 10 10 10 10
18 18 19 18 19 18 17 16 16 15 14 14 13 13 13 12 12 12 11 10 9 8 8 8 8 9 10 10 9 9 8 7 6 6 6 6 6 8 9 10 10 10
19 19 20 20 20 20 19 18 18 17 16 16 15 15 14 13 13 13 13 12 11 10 9 8 8 9 9 10 10 9 9 7 6 6 6 5 5 6 8 9 10 10
20 20 21 20 20 21 21 20 19 19 19 18 17 16 16 15 15 15 14 13 12 12 11 10 9 9 9 10 10 10 9 8 7 7 7 6 5 5 7 8 9 9
21 21 21 21 21 21 21 21 21 21 20 19 19 18 17 17 16 16 15 14 13 13 12 11 11 10 10 11 11 10 9 9 8 8 7 7 6 6 6 7 8 8
23 22 22 21 21 20 20 21 22 22 22 21 20 19 19 18 17 16 16 15 14 14 13 13 12 11 11 11 11 10 9 9 9 9 8 7 7 7 7 8 8 8
25 24 22 22 21 20 19 20 22 22 22 22 21 21 20 19 18 17 16 15 14 15 14 13 13 12 11 11 11 10 9 9 9 9 8 8 8 8 8 8 8 8
26 25 24 22 21 21 21 20 21 22 23 23 22 22 21 20 19 18 17 16 15 15 15 14 14 13 12 11 11 10 10 9 9 9 9 8 8 8 8 8 8 8
27 27 26 25 23 23 22 22 22 22 22 23 23 23 22 21 20 19 19 18 17 16 16 16 15 14 13 12 12 11 11 10 10 10 10 9 9 9 9 9 9 9
29 28 27 27 26 25 24 23 23 23 23 23 23 23 22 22 21 21 21 20 19 18 18 17 17 15 14 14 13 13 13 13 13 12 12 12 12 11 11 11 11 10
30 28 28 28 28 26 26 25 24 24 24 24 23 23 23 23 23 23 23 22 21 20 20 19 18 17 17 16 16 16 15 15 15 15 15 15 14 14 13 13 13 12
29 28 29 30 29 27 27 26 25 25 25 25 24 24 23 23 23 24 24 24 23 22 22 21 20 19 19 19 19 18 18 18 18 17 17 17 16 16 15 14 14 14
31 31 32 33 32 30 30 28 27 27 26 26 26 25 25 25 25 25 25 25 25 24 24 23 22 22 21 21 21 21 20 20 19 19 19 18 18 17 16 15 15 15
35 36 36 34 32 32 32 31 30 30 29 29 28 28 28 27 27 26 26 26 26 25 25 25 24 24 23 23 23 23 23 22 21 21 20 19 19 18 17 17 17 17
34 35 33 31 30 30 32 33 32 31 31 30 29 28 27 27 27 27 26 26 27 26 26 26 25 25 24 24 24 24 24 24 23 23 22 21 20 19 19 19 19 19
31 31 31 31 31 31 32 33 32 31 31 31 29 27 25 25 26 27 27 27 27 27 27 27 26 26 25 24 24 25 25 26 26 25 24 23 22 21 21 21 21 21
26 28 29 31 32 33 33 32 31 30 30 30 28 27 27 26 26 27 27 27 27 27 27 27 27 27 26 25 25 25 26 26 27 27 26 25 24 23 22 22 22 22
22 25 27 28 30 32 32 32 32 31 29 28 27 27 28 28 28 28 28 26 26 27 27 27 27 27 26 25 25 25 25 26 26 26 26 25 24 23 23 22 22 22
20 22 24 27 28 29 30 30 31 31 28 26 26 27 29 30 31 31 30 29 28 28 28 29 28 26 25 24 24 24 24 24 24 24 24 24 23 23 23 23 23 23
17 18 20 23 24 25 28 29 29 28 26 24 24 26 28 31 32 33 32 30 28 28 28 29 28 27 26 26 25 24 24 24 24 24 24 25 25 25 25 25 26 26
16 17 17 17 18 20 24 25 25 24 22 22 23 25 27 30 31 30 28 26 26 25 25 26 27 27 28 27 26 26 26 26 27 27 27 28 28 28 29 29 29 29

ECMWFNIL_700_spd_099.txt.gz
Wind_Speed
12 11 10 10 9 9 9 9 9 10 10 10 10 9 8 8 7 7 7 7 8 8 8 8 8 8 8 8 7 8 8 8 8 7 7 7 7 7 6 5 5 5
13 12 11 10 9 9 8 9 9 9 10 10 9 9 8 8 8 8 8 8 8 8 8 8 9 10 10 9 8 8 9 9 8 8 8 8 7 8 7 6 6 7
14 13 13 11 10 9 9 9 9 9 10 9 9 8 8 9 9 8 8 8 8 8 9 10 10 11 11 10 9 9 9 9 9 9 9 9 8 8 8 7 8 8
14 13 13 13 12 11 10 10 9 9 9 9 9 9 8 9 9 9 9 9 9 9 10 10 11 11 11 11 10 9 9 8 8 8 9 9 9 9 9 8 8 8
15 14 14 14 14 13 12 11 10 10 10 9 10 9 9 9 9 9 10 10 10 10 10 11 11 11 11 11 11 10 9 9 8 8 8 9 9 9 9 9 9 9
16 16 15 15 15 15 13 12 12 11 11 10 11 11 11 11 10 11 11 11 11 10 11 11 12 11 12 11 11 10 9 9 8 8 8 8 8 8 9 10 10 10
16 16 16 16 16 16 15 14 13 13 12 12 12 12 12 12 12 12 12 12 11 10 10 11 11 12 12 12 11 11 10 10 9 9 9 8 8 8 9 10 11 11
16 16 17 17 18 18 17 16 15 15 14 13 13 13 13 13 13 13 13 13 12 11 10 11 11 11 11 12 12 12 11 11 10 10 9 8 8 8 9 9 10 11
17 17 17 18 19 19 18 18 17 17 16 15 15 14 14 14 14 14 14 14 13 12 11 10 10 10 11 12 12 12 12 12 11 10 10 9 8 7 7 8 9 10
19 18 18 19 19 19 19 19 19 19 18 17 17 16 16 16 16 15 15 14 13 12 12 11 10 10 10 11 12 12 13 12 12 11 10 9 8 7 7 8 9 10
21 21 20 20 19 20 20 20 21 21 20 19 18 18 17 17 17 16 15 15 14 13 12 12 12 11 10 11 12 12 13 13 12 11 11 10 9 8 7 8 9 10
23 23 23 22 21 21 21 22 22 22 22 21 20 19 19 18 18 17 16 15 15 15 14 13 13 12 11 12 12 12 12 12 12 12 12 11 10 10 9 9 9 9
25 26 25 24 23 23 23 23 23 23 23 23 22 21 20 20 19 19 18 17 17 16 15 15 15 13 13 12 12 12 12 12 12 12 12 12 12 11 10 10 10 10
27 27 27 26 25 24 24 24 25 25 24 24 24 23 22 21 20 20 20 19 19 18 17 17 16 15 14 13 13 13 13 13 13 13 13 13 12 12 11 11 11 11
28 28 28 27 26 26 25 25 25 25 25 25 25 24 24 22 22 22 22 21 20 20 19 18 17 16 15 15 15 14 14 14 14 14 13 13 13 12 12 12 12 12
29 28 28 28 27 27 26 26 26 26 26 25 25 25 25 24 24 23 23 23 22 22 21 19 18 17 17 16 16 16 16 16 15 15 14 14 14 13 13 13 13 13
29 28 30 30 29 28 27 27 27 26 26 26 25 25 25 25 25 25 24 24 23 23 22 21 20 19 19 18 18 18 18 17 17 16 16 15 15 15 15 15 15 15
29 30 32 33 31 28 27 27 28 27 26 26 26 25 25 24 25 25 25 25 24 24 23 22 21 20 20 21 20 20 19 19 18 18 18 17 17 17 16 16 16 16
30 30 32 33 32 30 29 30 29 27 26 26 25 25 25 25 24 25 25 25 25 25 24 23 23 23 22 22 22 21 21 20 20 20 20 19 19 19 18 18 18 18
30 30 32 33 33 33 33 33 32 29 26 25 25 25 25 25 25 25 26 26 26 25 25 25 25 24 24 24 23 23 23 22 22 22 22 22 22 22 21 21 20 20
28 30 33 34 35 36 37 36 35 33 30 27 26 26 26 26 26 27 27 28 27 26 26 26 26 25 25 25 24 24 25 24 24 24 24 24 24 24 24 24 23 23
26 27 29 31 34 36 38 37 36 34 32 29 29 29 28 28 27 28 28 28 28 28 28 28 27 26 25 25 25 25 25 26 26 26 26 25 25 25 25 25 25 25
22 23 24 26 29 32 34 35 34 31 29 28 29 30 31 30 29 28 28 28 28 29 28 28 28 28 27 26 25 26 26 27 27 27 27 27 26 26 26 26 26 26
18 17 18 20 21 24 27 29 30 29 29 30 31 30 30 30 29 28 28 29 30 30 29 28 28 28 28 27 27 26 26 27 27 28 28 28 28 28 27 27 26 26
16 16 17 17 18 20 21 23 26 27 28 31 33 31 30 30 29 29 30 32 33 31 29 29 29 27 26 27 27 26 26 26 26 27 28 28 28 28 28 27 27 26
16 16 15 15 16 19 20 22 24 26 27 30 32 32 32 33 33 34 33 32 31 30 29 28 28 27 27 27 27 27 27 26 26 26 27 28 28 28 28 28 27 27

ECMWFNIL_700_spd_102.txt.gz
Wind_Speed
11 10 10 10 9 9 9 9 10 11 11 11 10 10 10 10 11 11 11 11 11 10 10 9 9 9 8 7 7 7 7 7 7 7 7 7 6 6 7 7 7 8
12 11 11 10 10 9 9 10 10 10 11 11 10 9 9 9 10 10 10 10 10 10 10 9 9 9 8 8 8 8 8 8 8 7 7 7 7 7 6 7 7 7
14 13 12 12 11 10 10 10 10 10 11 11 10 9 9 9 9 10 10 10 10 11 10 10 9 9 9 9 8 8 9 9 9 8 8 8 8 7 7 7 7 7
15 14 14 14 13 12 11 11 11 10 10 11 10 10 10 10 10 10 10 10 10 11 11 11 10 10 10 10 10 9 10 9 9 9 9 9 9 8 7 8 8 8
16 16 16 15 15 14 12 12 12 11 11 11 11 11 11 11 11 11 11 10 10 10 11 11 11 11 11 11 11 11 10 10 10 10 10 10 9 9 8 9 9 10
18 17 16 16 16 16 14 13 13 13 12 11 11 11 12 12 12 12 11 11 11 11 11 11 11 11 12 12 12 12 11 11 11 11 10 10 10 9 9 9 10 11
18 18 17 17 18 17 16 15 14 14 14 13 12 12 12 12 12 12 12 12 11 11 11 11 11 11 12 12 13 13 12 12 11 11 11 10 9 9 9 9 10 11
18 18 18 18 18 18 18 17 16 15 15 14 13 13 13 13 13 13 12 12 12 12 12 12 12 12 12 12 12 12 12 12 12 11 11 10 10 9 9 9 10 11
19 19 19 19 19 19 18 18 17 17 17 16 15 14 14 14 14 14 14 13 13 12 12 12 12 12 12 12 12 12 12 13 12 12 11 10 10 9 8 9 10 10
21 20 20 20 20 19 19 19 19 19 18 18 17 16 15 15 15 15 15 14 14 13 12 11 11 11 12 12 12 12 13 13 13 12 11 11 10 9 8 8 8 9
22 22 22 21 20 20 19 19 20 20 20 19 18 17 17 16 16 16 16 15 15 15 14 13 12 12 11 11 12 12 13 13 13 12 11 11 10 10 8 8 8 8
24 24 23 22 21 21 20 20 21 21 21 20 20 19 19 18 17 17 16 16 16 16 15 14 14 13 12 12 12 12 13 13 13 12 11 11 11 10 9 8 8 8
26 26 25 24 23 22 22 22 22 22 21 21 21 21 20 19 18 18 17 17 17 17 17 16 15 14 13 13 12 12 12 13 13 12 12 11 11 10 10 9 8 8
28 28 28 27 26 25 24 23 23 23 23 22 21 21 21 21 20 19 19 18 18 17 17 17 16 15 15 14 13 13 13 13 13 13 13 12 12 11 11 10 10 9
29 29 30 29 28 27 25 24 24 24 23 23 22 22 22 22 21 21 20 20 19 19 18 18 17 17 16 16 15 14 14 14 14 14 13 13 13 13 12 12 11 11
32 30 30 30 30 29 27 26 26 25 25 25 24 24 23 23 23 22 22 21 20 20 20 19 19 18 18 17 17 16 15 15 15 14 14 14 14 13 13 13 13 12
34 33 32 30 29 29 29 28 27 26 27 27 26 26 25 24 24 23 23 22 22 22 22 21 21 21 19 19 19 18 17 17 16 16 15 15 14 14 14 14 13 13
36 36 34 31 30 29 29 28 28 28 28 28 27 27 26 25 25 24 24 24 23 23 23 23 23 24 22 21 21 20 19 19 18 17 17 16 16 16 16 15 15 15
36 35 33 31 31 31 30 28 28 28 28 28 28 28 27 27 26 25 25 25 25 25 24 24 26 26 24 23 23 22 21 20 19 18 18 18 18 17 17 17 17 17
33 34 34 33 33 33 32 29 28 29 29 28 28 29 30 28 27 27 27 26 26 26 25 27 29 27 25 25 25 23 22 21 20 20 19 19 19 19 18 18 18 18
27 29 32 33 33 34 33 31 31 33 33 32 31 32 31 30 29 29 29 29 28 27 27 29 29 26 25 26 26 25 24 23 22 22 21 21 21 21 20 20 20 20
24 26 29 31 32 34 35 34 35 37 37 36 35 35 33 32 31 30 30 30 30 30 31 31 28 25 25 26 26 26 25 25 24 24 23 23 23 23 22 22 22 22
21 23 25 28 29 31 33 35 36 36 36 36 37 38 37 34 32 32 31 31 31 32 33 30 27 26 26 25 25 25 25 26 26 26 25 25 25 25 24 24 24 23
18 21 22 23 25 26 27 29 30 31 34 34 35 38 40 38 36 34 32 32 34 34 32 28 27 27 27 25 25 24 25 26 26 26 26 26 26 26 25 26 26 25
15 18 18 18 20 21 21 22 23 23 26 29 32 37 39 39 39 38 35 34 34 32 27 25 26 27 26 26 26 25 25 26 26 26 27 27 27 28 27 28 27 26
12 14 15 16 17 18 18 20 20 18 18 21 24 28 32 34 37 40 38 35 31 27 24 24 24 25 25 25 25 26 26 26 26 27 27 27 28 28 29 29 29 29

ECMWFNIL_700_spd_105.txt.gz
Wind_Speed
11 9 8 8 7 7 7 8 9 11 11 11 11 12 11 11 11 11 11 11 11 10 10 10 10 10 9 9 9 9 9 8 8 8 8 8 8 8 9 10 10 10
12 11 11 9 8 8 8 8 8 9 10 11 11 10 10 10 10 10 10 10 10 11 11 11 11 11 10 10 9 9 9 9 9 8 8 9 8 8 9 10 10 10
13 13 12 11 11 10 10 9 9 9 10 10 10 9 9 10 10 10 10 10 10 11 11 11 11 11 11 10 9 9 9 10 9 9 9 9 9 8 8 9 10 10
14 13 13 12 12 11 11 11 10 10 10 10 10 10 10 11 10 10 10 10 10 10 10 11 10 10 10 9 9 9 9 10 10 10 10 10 10 9 9 9 10 11
15 14 14 14 13 12 11 11 12 11 11 10 11 11 11 11 10 10 10 10 10 10 10 10 10 10 10 9 9 9 9 10 10 11 11 10 10 10 10 10 11 11
16 15 15 15 14 13 12 12 12 11 11 11 12 12 11 11 11 11 10 10 10 10 10 10 10 11 11 10 10 9 10 10 10 10 10 11 10 10 11 11 11 11
17 16 16 16 16 15 14 13 12 12 12 12 12 11 11 11 11 11 11 11 11 10 11 10 10 10 11 10 10 9 10 11 10 10 10 11 10 10 11 11 11 11
18 18 17 17 16 16 16 15 14 13 13 12 11 11 11 11 12 12 12 12 12 12 11 11 10 10 10 10 9 9 10 11 11 10 10 10 9 10 11 10 10 10
19 18 18 17 17 17 17 16 16 15 14 13 12 12 12 12 12 13 13 12 13 12 12 11 11 11 11 10 10 10 10 12 12 11 10 9 10 10 10 9 9 9
20 19 18 18 19 18 18 17 17 17 16 15 14 14 14 13 13 14 13 13 13 13 12 12 11 10 11 10 10 11 11 12 12 11 10 10 10 10 10 9 8 8
21 20 20 20 19 19 18 18 18 18 17 16 15 16 15 14 14 14 14 14 14 14 14 13 12 11 10 10 10 11 11 11 12 12 11 10 10 10 9 9 8 7
23 22 21 21 21 20 18 18 18 18 18 17 16 17 17 16 16 15 14 15 15 15 15 15 14 13 11 10 10 10 10 11 11 12 11 10 9 9 9 9 8 7
25 24 23 22 22 22 20 19 19 19 19 19 18 18 17 17 17 16 15 15 16 16 16 16 16 15 13 12 11 11 10 10 11 12 11 10 9 9 9 9 8 7
27 27 26 25 24 23 23 22 21 20 21 21 20 19 18 18 18 18 17 16 16 16 16 17 17 17 16 13 12 12 11 11 11 11 11 11 10 9 9 9 8 8
29 29 29 28 26 25 24 23 23 22 22 22 22 20 19 18 18 18 18 17 17 17 17 17 17 18 16 15 14 14 12 11 12 12 12 12 11 10 10 9 9 9
32 31 31 30 29 28 27 25 25 24 24 23 23 22 21 20 19 18 18 18 18 17 17 17 17 18 18 16 15 15 13 12 13 13 12 12 12 11 10 10 10 10
37 35 33 33 32 31 30 29 27 26 26 25 24 24 23 22 21 19 19 19 18 18 18 17 18 19 19 17 16 16 16 15 14 14 13 13 13 12 11 11 11 11
40 39 37 36 34 33 32 31 30 29 29 27 26 25 24 24 23 21 20 19 19 19 18 18 19 21 21 19 17 18 18 17 17 16 15 14 14 13 13 13 12 12
39 40 40 38 37 36 35 33 32 32 31 30 28 27 27 26 24 23 22 21 21 20 20 21 22 22 22 22 20 20 20 19 18 18 17 17 16 16 16 15 14 14
37 39 40 39 39 40 39 36 34 33 33 32 31 30 29 27 25 24 24 23 22 21 22 25 25 23 23 23 21 21 22 21 20 20 20 20 19 18 18 18 17 17
35 36 38 40 42 42 41 39 38 36 35 34 33 32 29 27 27 26 26 26 25 25 27 28 27 25 24 23 22 22 23 23 22 22 22 22 21 21 21 20 19 18
29 29 31 35 38 39 40 40 40 39 38 36 34 33 31 30 30 30 30 30 29 29 30 28 26 25 26 24 23 22 23 23 23 24 24 24 23 23 23 23 23 22
24 24 26 29 31 34 37 38 38 39 40 38 36 34 33 32 34 35 34 33 31 31 30 27 25 26 26 25 24 23 23 23 24 25 26 26 25 26 27 27 26 24
21 22 24 26 26 28 31 33 35 36 37 36 36 36 36 36 36 37 35 34 33 31 29 27 26 26 25 25 24 23 22 24 25 25 27 28 29 29 29 30 28 25
18 19 21 22 22 23 25 27 28 30 31 31 33 35 37 37 37 37 37 36 34 31 28 27 28 28 26 25 25 25 25 25 26 26 28 30 30 29 28 28 27 25
16 15 16 18 19 19 21 22 23 24 25 27 29 30 32 34 35 35 36 37 35 33 30 29 29 31 29 26 25 25 26 27 28 29 29 29 30 31 29 27 25 25

ECMWFNIL_700_spd_108.txt.gz
Wind_Speed
9 8 8 9 9 9 10 10 10 10 11 11 11 12 12 11 10 10 9 9 9 8 8 9 9 9 8 8 8 7 8 8 7 7 7 7 7 7 7 8 9 9
9 8 8 7 7 8 9 9 9 9 10 10 10 11 11 11 11 10 10 9 9 9 9 9 9 9 9 8 8 8 8 8 8 8 7 8 9 8 8 8 9 9
10 9 9 8 7 8 8 8 8 8 9 10 10 10 11 11 10 10 10 10 9 9 9 9 8 9 9 8 7 8 8 8 8 7 7 8 9 9 9 9 9 9
10 10 9 9 8 7 8 8 8 9 9 9 9 10 10 9 9 9 9 9 9 9 9 9 9 8 8 8 8 8 8 8 8 7 7 8 9 9 8 8 9 9
11 12 11 9 9 8 7 7 7 8 8 8 8 9 8 9 8 9 9 8 8 9 9 9 9 9 9 9 8 8 8 8 8 8 8 8 8 8 8 9 9 9
13 13 12 12 11 10 8 8 8 8 8 8 8 8 8 9 9 9 9 8 8 9 9 9 9 9 9 8 8 8 8 8 7 8 8 8 8 8 9 9 9 9
14 14 13 13 12 11 10 9 9 9 8 8 7 8 8 9 8 9 9 8 8 9 9 9 8 8 8 8 8 8 8 8 8 8 8 7 8 8 9 10 9 9
14 14 14 14 13 13 12 11 10 10 9 8 7 8 8 8 8 9 9 9 9 9 9 9 8 7 8 8 8 8 8 8 8 8 8 7 7 8 9 9 9 9
14 14 14 14 14 14 13 13 12 11 10 9 8 8 8 9 10 10 9 9 9 9 10 9 8 8 8 8 8 7 8 8 7 7 8 7 7 8 8 8 8 8
15 15 15 14 14 14 14 14 13 13 12 11 11 10 9 9 10 11 9 9 10 10 10 9 9 9 9 7 7 7 8 8 7 7 8 8 8 8 8 8 8 7
16 16 16 15 15 15 14 14 14 14 13 13 12 12 11 11 11 11 10 10 11 10 11 10 10 10 9 7 8 8 8 8 7 7 9 9 8 8 8 7 7 7
17 17 17 16 16 15 15 15 15 15 14 14 13 13 13 13 12 12 11 11 11 11 11 11 11 11 10 9 9 8 7 7 7 8 8 8 8 8 7 7 7 6
19 18 18 17 17 16 16 16 15 15 15 15 14 14 14 14 14 14 13 11 12 12 12 12 12 12 11 11 10 9 9 8 8 7 7 7 8 8 7 7 7 6
21 22 21 20 18 17 17 17 16 16 15 15 16 16 15 15 15 15 14 13 12 13 13 13 13 13 12 12 11 11 11 10 9 7 7 8 8 8 8 8 8 7
24 25 24 22 21 21 20 18 18 18 17 17 17 17 16 16 15 15 16 14 12 13 14 15 14 13 13 12 12 12 12 12 10 8 8 9 9 8 8 8 9 9
26 25 23 21 22 24 24 22 21 20 20 20 20 19 18 18 17 16 16 15 14 14 14 15 16 14 13 13 13 13 13 13 12 10 10 10 9 9 9 9 9 9
29 27 25 24 24 25 25 26 25 23 23 23 22 22 22 20 19 17 16 16 16 16 15 16 17 15 13 14 14 14 14 13 13 12 12 11 10 10 10 9 9 9
30 29 28 27 27 28 28 29 28 27 27 27 26 26 25 22 21 20 19 18 17 17 18 18 17 16 15 15 15 15 15 14 14 14 14 13 12 11 11 11 11 10
29 29 28 27 28 29 30 31 30 29 30 31 31 29 25 22 22 22 22 21 19 20 22 20 17 16 16 16 16 16 16 15 15 15 15 14 13 12 12 13 14 13
31 29 30 29 28 28 29 29 28 28 30 31 32 31 27 25 26 24 24 24 23 23 23 21 19 19 18 17 17 17 16 16 16 16 16 16 15 16 16 17 17 16
30 30 30 30 30 30 30 31 30 30 31 33 34 33 30 30 32 29 27 26 25 24 24 22 21 21 20 19 19 18 17 17 17 17 17 17 19 21 22 20 19 18
30 30 30 31 33 33 33 34 34 34 34 35 37 36 35 35 36 33 30 29 27 26 26 24 23 23 22 21 21 21 19 19 18 18 19 21 23 24 24 22 21 20
27 28 29 30 32 32 31 31 32 33 33 34 36 39 40 40 38 35 32 31 30 29 27 24 23 25 25 23 22 21 20 21 21 21 22 23 25 25 25 24 23 22
25 25 26 27 28 27 26 26 27 28 30 31 33 37 40 40 39 38 35 33 33 33 31 28 27 27 28 26 24 22 21 21 23 25 25 25 25 24 24 24 24 24
22 23 24 24 25 24 24 25 25 25 25 26 27 31 33 35 36 37 36 35 36 35 33 32 30 30 31 30 27 24 23 23 24 25 25 24 24 24 23 24 24 24
20 21 21 21 21 22 22 23 23 23 23 22 22 24 27 29 30 31 32 34 36 36 35 34 32 30 31 33 31 28 25 24 24 24 25 25 24 24 23 23 24 23

ECMWFNIL_700_spd_111.txt.gz
Wind_Speed
7 9 10 10 10 10 9 10 10 10 9 10 11 10 11 10 10 10 9 9 9 8 8 8 8 7 7 7 7 7 7 7 8 7 6 7 8 9 10 10 10 10
7 8 8 8 8 8 9 9 9 9 9 9 10 10 10 10 9 10 9 9 9 9 9 8 8 8 7 7 8 8 8 8 8 7 7 7 7 7 8 9 10 10
8 7 7 6 7 8 9 9 8 7 8 8 9 9 9 9 9 9 9 10 10 9 9 9 8 8 7 8 8 8 8 8 8 7 8 8 8 8 8 9 9 9
9 7 7 6 7 7 7 7 7 6 7 7 8 8 8 8 8 8 9 9 10 10 10 10 9 9 8 8 9 8 8 8 8 8 8 8 8 8 9 9 9 8
9 9 8 7 6 5 4 5 5 6 6 6 6 6 6 7 7 8 8 9 9 9 10 10 9 9 9 9 9 8 8 8 8 8 9 8 8 8 9 9 9 8
10 10 9 8 7 5 4 5 5 5 6 5 5 6 6 7 7 7 8 8 8 8 9 9 8 8 9 9 8 8 9 8 8 8 9 9 8 8 8 8 8 8
11 11 10 9 8 8 7 7 6 6 6 5 5 6 6 6 6 7 7 7 7 8 8 8 7 8 8 8 8 8 8 8 8 8 8 8 8 8 9 8 8 7
12 12 11 10 10 9 9 8 7 6 6 6 6 6 6 6 6 6 7 7 8 8 8 7 7 7 7 7 7 7 8 8 8 8 7 6 6 7 8 7 7 7
13 12 11 11 10 10 9 8 8 7 7 7 6 6 6 6 6 7 7 7 7 7 7 7 7 7 6 7 7 7 8 8 7 7 7 7 6 7 7 6 7 7
13 12 11 11 10 9 9 9 9 9 8 8 8 7 6 6 6 7 6 6 6 6 7 7 8 7 6 6 6 6 7 7 6 7 7 8 7 7 7 6 6 6
14 13 12 12 11 10 10 10 10 10 10 9 8 8 8 7 7 6 5 6 7 7 7 7 8 8 7 7 7 7 7 6 6 7 8 8 7 7 7 7 7 7
15 15 14 13 12 11 11 11 11 11 11 10 10 9 9 9 8 7 6 7 8 8 8 8 8 8 8 8 7 7 7 6 6 6 7 7 7 8 8 8 7 8
17 17 15 14 13 13 12 12 12 12 11 11 11 11 11 10 10 10 8 9 10 9 9 9 9 9 9 9 9 8 8 7 6 6 6 7 7 8 8 8 8 8
19 17 14 14 14 13 13 13 12 13 12 12 12 13 13 12 13 12 11 10 10 11 11 10 10 10 10 10 10 10 9 8 7 7 7 8 8 8 8 8 8 9
17 15 15 14 14 14 13 13 13 13 13 13 13 13 13 14 14 14 13 12 12 12 12 12 11 10 11 11 11 11 11 10 10 9 9 9 9 10 9 9 10 10
16 16 16 15 15 15 15 15 14 15 15 15 15 15 14 15 14 15 15 14 14 14 14 13 11 11 11 11 12 13 13 13 12 11 11 11 10 10 10 12 12 11
18 19 18 17 16 16 15 15 16 17 17 17 17 17 17 17 17 17 18 17 16 15 14 14 13 12 12 12 13 14 15 15 14 14 13 13 11 11 12 13 12 11
22 21 20 19 19 19 18 18 18 19 19 19 19 19 20 20 20 19 20 19 19 17 16 14 14 13 14 14 14 14 15 16 15 16 16 15 14 14 14 13 13 12
24 23 22 22 22 22 23 23 23 23 23 23 23 23 23 23 21 21 21 22 22 21 19 16 15 14 14 14 14 15 16 16 17 19 19 17 17 16 15 13 14 14
24 25 25 24 23 23 24 25 25 25 25 26 27 26 26 25 24 24 24 25 25 25 24 20 18 17 16 15 15 15 16 16 18 21 20 18 17 17 15 15 15 14
23 24 25 26 26 25 25 26 26 26 26 26 27 27 26 25 25 25 26 27 28 28 27 24 21 20 19 18 17 16 16 17 20 22 21 18 18 18 17 17 16 15
25 25 26 26 24 23 25 26 26 26 27 27 27 27 27 26 26 27 27 28 30 30 29 27 25 23 22 20 19 19 18 18 21 23 20 18 19 19 19 19 19 17
23 23 23 23 22 22 24 26 26 27 27 28 29 29 28 27 28 29 29 30 32 33 31 29 28 27 26 24 21 21 21 21 22 23 21 19 19 20 20 20 20 19
21 20 21 20 21 21 23 24 24 25 25 25 26 26 25 25 26 28 29 31 33 34 33 32 31 31 30 28 25 24 24 24 23 22 22 21 20 20 20 20 20 20
20 20 20 20 21 21 22 22 23 23 22 22 23 23 23 23 23 25 27 29 31 33 33 34 36 36 33 30 28 27 27 26 25 23 22 22 22 23 22 21 20 20
21 21 21 21 21 22 22 22 22 22 21 20 21 21 20 20 20 21 23 24 26 28 29 31 35 37 35 32 31 32 31 31 29 27 25 24 23 23 23 22 20 20

ECMWFNIL_700_spd_114.txt.gz
Wind_Speed
11 10 10 11 12 12 12 11 11 11 11 11 11 11 11 11 10 11 10 9 9 9 9 8 8 8 8 8 8 7 7 8 8 8 9 10 11 12 14 12 10 11
11 10 10 10 11 12 12 12 12 12 12 12 12 11 11 11 10 11 10 10 10 10 10 10 9 9 8 8 8 7 8 8 8 8 9 10 10 11 12 12 11 11
11 10 9 9 10 11 11 12 11 12 12 12 12 11 12 12 11 11 11 10 11 11 11 10 10 10 9 9 9 8 8 9 9 9 10 10 10 11 11 11 11 11
12 11 11 10 10 11 11 11 11 11 11 11 11 12 13 13 12 12 12 11 11 11 11 11 10 10 10 10 10 9 8 9 10 10 11 11 10 11 11 11 11 10
14 13 13 11 10 10 10 10 10 11 11 11 11 11 12 12 13 13 12 12 11 11 12 12 11 11 10 10 10 10 9 9 10 11 11 11 10 11 11 10 10 9
15 14 14 13 12 11 10 10 10 11 11 11 10 11 11 12 12 12 12 12 11 11 12 12 11 11 11 11 10 10 10 10 9 11 11 11 11 11 10 10 9 9
16 15 15 14 13 12 11 11 11 11 11 11 11 11 11 11 11 11 11 11 11 11 11 11 11 11 11 11 10 10 11 10 10 11 11 11 11 11 10 10 10 10
16 16 16 15 14 13 12 11 11 11 11 11 11 11 11 11 10 10 10 10 10 10 10 10 10 11 11 11 11 11 11 11 11 11 12 11 11 11 11 11 11 11
17 17 16 16 15 15 14 12 12 11 11 11 11 11 11 11 10 10 10 10 10 10 10 10 10 10 10 10 10 11 11 11 11 11 12 12 11 12 12 11 11 11
18 17 16 16 15 15 15 14 13 12 12 11 11 10 10 10 10 10 10 10 10 10 10 10 11 10 10 10 10 10 10 10 10 11 11 12 13 13 12 11 11 11
20 19 18 16 16 15 15 15 14 13 13 13 12 11 11 10 9 9 10 10 10 10 11 11 11 11 11 11 11 10 10 10 10 10 11 11 12 12 11 11 10 11
21 21 20 18 16 16 15 15 15 15 15 14 13 12 12 11 10 10 10 10 11 11 11 12 12 12 11 11 11 11 11 10 10 11 11 11 11 11 11 11 11 11
20 20 19 18 17 17 16 16 16 15 15 14 13 13 13 13 13 12 12 12 12 11 11 12 12 12 12 12 11 11 11 11 11 11 11 11 11 12 12 13 13 14
19 19 18 18 17 18 17 16 15 14 13 13 13 13 13 13 13 13 14 14 13 12 12 12 12 12 13 13 13 13 12 12 12 12 11 11 12 13 14 14 15 14
17 18 19 17 17 16 16 15 14 13 13 13 13 12 13 13 13 13 13 14 14 13 13 13 13 13 13 14 14 14 13 13 13 13 14 13 13 14 14 14 14 13
17 19 19 18 17 16 15 14 13 13 13 13 13 13 12 12 12 12 12 12 13 13 14 14 14 14 14 14 14 15 15 15 16 16 17 16 15 15 15 14 13 14
21 21 20 18 18 17 16 15 14 14 14 14 14 14 14 13 13 13 12 12 12 13 14 15 14 14 14 15 15 16 16 17 19 19 19 16 15 15 15 14 15 15
24 22 21 20 19 18 17 16 15 15 15 16 15 15 15 15 15 15 15 15 15 14 14 14 14 14 16 17 16 16 17 19 19 19 18 17 17 16 15 15 16 15
25 24 24 24 23 21 19 17 17 16 17 17 17 17 17 17 17 17 17 17 17 16 17 16 15 15 17 18 17 17 18 19 18 17 18 18 18 17 17 16 16 16
26 24 25 25 24 24 22 21 21 21 21 20 20 21 21 21 21 21 20 20 19 19 19 19 18 17 18 19 18 18 18 19 18 18 18 18 17 17 17 17 16 16
24 22 22 22 23 23 23 23 23 24 24 23 24 25 25 24 25 25 24 24 23 23 23 22 21 20 20 20 21 21 20 20 19 18 18 18 17 17 18 17 17 17
24 22 22 23 23 23 24 26 26 25 25 24 24 25 26 26 26 26 27 27 26 26 26 26 26 25 24 23 23 23 23 22 21 20 19 19 18 18 18 18 19 19
25 26 26 25 23 23 25 26 26 25 26 26 25 26 26 27 28 28 28 28 28 28 28 28 29 29 27 26 25 25 25 24 23 22 21 20 20 19 19 19 20 20
23 26 27 24 21 22 22 20 19 18 20 23 25 25 27 29 30 31 30 29 30 31 32 32 31 30 29 28 27 27 27 26 25 24 23 23 22 21 21 21 21 21
25 29 27 20 17 18 18 16 16 16 17 19 21 23 25 28 30 30 27 25 27 29 31 32 33 32 31 30 29 30 30 30 29 28 27 27 25 24 23 22 22 22
27 27 22 17 15 16 16 16 17 18 18 18 19 21 24 27 26 25 22 20 22 25 27 29 30 31 31 31 31 32 33 33 33 31 30 29 29 28 25 23 23 23

ECMWFNIL_700_spd_117.txt.gz
Wind_Speed
14 13 13 13 13 13 12 12 11 11 11 11 11 11 11 12 11 11 10 9 9 8 8 7 7 7 7 8 8 7 8 8 9 11 12 13 13 13 13 13 13 12
15 14 14 14 14 13 13 12 12 11 11 11 11 12 12 12 11 11 10 10 9 9 9 8 8 8 8 8 8 8 8 8 9 10 11 12 13 13 13 13 13 13
15 14 14 13 13 13 13 13 13 12 12 12 12 12 12 11 11 11 11 11 10 10 10 9 9 9 9 9 9 9 9 9 9 10 11 11 12 12 13 13 13 13
15 14 13 13 13 14 14 14 13 13 13 13 12 12 12 12 12 12 12 11 11 11 11 11 11 10 10 10 10 10 10 10 10 11 11 11 11 11 12 12 12 12
15 14 14 14 14 15 15 14 14 14 14 14 14 13 14 13 13 13 13 12 12 12 12 12 11 11 11 11 11 11 11 10 10 11 12 12 11 12 12 12 12 12
16 15 15 15 15 14 14 14 14 15 15 15 15 15 15 15 14 14 14 13 13 13 13 12 12 12 11 11 11 11 11 11 11 12 12 12 12 13 12 12 12 13
17 16 16 16 15 14 15 15 15 15 15 15 15 15 16 15 14 14 14 15 15 14 14 13 13 13 12 12 12 12 12 12 12 12 12 13 13 14 13 13 12 13
18 18 17 16 16 15 15 16 16 15 16 15 15 15 15 15 14 15 15 15 15 14 14 14 14 13 13 13 13 12 13 13 13 13 14 14 14 14 14 14 13 13
20 19 19 18 17 17 16 16 16 16 16 15 15 16 15 15 14 15 15 15 15 14 14 14 13 14 13 13 13 13 14 14 14 14 14 15 14 14 15 14 14 14
21 21 21 20 19 19 18 17 16 16 16 16 16 16 16 15 15 15 15 15 15 15 14 14 14 14 13 13 13 14 14 15 15 14 15 15 15 15 15 15 14 14
22 22 22 21 20 20 19 18 17 17 16 16 16 16 15 15 15 15 15 15 15 15 15 15 15 14 14 13 13 14 14 14 14 15 15 15 15 16 16 15 15 15
22 22 22 21 21 21 21 20 19 18 17 17 16 15 15 15 15 14 14 14 15 15 15 15 15 15 14 14 14 14 14 14 14 15 15 15 15 16 16 17 16 16
23 22 21 21 20 21 21 21 21 20 19 18 17 16 16 15 15 14 14 14 14 14 14 15 15 15 15 15 15 15 15 15 15 15 15 16 16 16 17 17 17 16
23 22 21 21 22 22 22 22 21 21 20 20 19 18 18 16 16 15 15 15 15 14 14 15 15 15 15 15 16 16 16 16 16 16 16 16 15 16 16 16 16 16
24 23 23 24 24 24 23 22 22 21 20 21 20 19 18 18 17 16 16 15 15 15 14 15 15 15 15 16 16 16 16 16 17 17 17 16 15 15 15 15 15 16
28 28 28 28 28 27 25 23 22 21 19 19 19 19 18 18 17 16 16 15 15 15 15 14 14 15 15 15 16 16 17 17 18 18 17 17 16 16 16 15 15 15
28 30 30 31 31 30 28 25 24 22 19 18 18 18 18 18 17 16 15 15 15 15 16 15 15 14 14 15 16 16 17 18 18 19 19 18 17 17 16 16 16 15
27 27 28 28 29 28 26 24 23 23 21 20 19 18 18 18 17 16 15 15 16 16 16 16 15 15 15 15 16 16 17 18 18 19 20 20 19 18 18 18 18 17
25 26 26 26 26 27 25 23 23 23 22 22 21 20 20 19 18 18 17 17 17 17 17 17 17 16 16 17 17 17 17 18 18 19 19 20 20 20 19 19 19 18
26 27 26 25 25 27 26 23 22 22 21 21 22 22 21 21 20 19 18 18 18 18 19 19 18 18 18 19 20 19 18 18 19 19 19 19 19 19 20 21 21 20
27 27 25 24 24 24 23 20 19 21 21 22 23 23 24 24 23 22 21 20 20 19 20 20 20 20 20 21 22 22 21 20 20 20 20 19 19 19 19 21 21 21
26 25 24 22 21 20 20 19 19 22 23 25 26 27 29 29 28 26 24 22 22 22 22 22 22 22 22 23 23 23 23 22 22 23 22 21 19 19 19 20 21 21
26 27 26 23 20 20 21 20 21 23 24 28 30 31 33 33 31 27 24 24 24 23 23 23 23 24 25 25 25 26 26 26 26 26 25 24 22 21 20 21 21 22
25 27 27 23 21 22 22 23 24 25 26 29 31 32 34 33 28 25 26 27 25 25 25 25 25 26 26 27 28 29 29 30 30 29 28 27 26 24 23 22 23 23
23 22 23 23 22 23 23 23 25 26 27 29 30 31 33 31 24 23 28 28 26 26 27 28 29 29 30 30 30 31 32 33 32 32 31 30 29 27 25 25 25 25
23 22 23 23 22 21 20 20 22 24 25 28 29 28 27 22 18 22 26 25 25 26 28 30 31 30 30 31 32 33 34 35 35 34 33 33 31 30 28 28 28 27

ECMWFNIL_700_spd_120.txt.gz
Wind_Speed
14 13 13 14 14 14 14 14 14 13 12 12 12 12 12 12 12 11 11 11 11 10 10 9 9 8 7 7 7 7 7 8 9 10 12 12 12 12 12 13 14 15
14 14 14 14 15 15 15 15 14 14 13 13 13 13 13 12 12 11 11 11 11 11 10 10 10 10 9 8 8 8 8 8 8 9 11 11 11 12 13 13 14 15
14 14 14 14 15 15 16 16 15 14 14 14 14 14 13 12 12 12 11 11 11 11 11 10 10 10 10 10 9 9 10 9 9 9 10 10 11 12 12 13 14 14
15 15 15 15 16 16 17 17 16 16 15 15 15 15 14 13 13 12 12 12 12 12 12 11 11 11 10 10 10 10 10 10 10 10 10 11 11 11 12 13 13 13
16 16 16 17 17 17 18 17 17 17 16 16 16 15 15 14 13 13 13 12 12 12 12 11 11 11 11 11 11 11 11 11 10 11 11 12 12 12 12 12 12 12
17 17 17 17 17 18 17 17 17 18 17 16 16 16 16 15 14 14 14 13 13 13 12 12 12 12 12 12 12 12 12 11 11 11 12 12 13 13 13 13 13 12
17 17 16 16 17 17 17 16 17 17 17 17 17 17 17 16 15 14 14 14 14 13 13 13 13 12 13 13 13 13 13 12 12 12 13 13 13 13 14 14 14 13
18 17 16 16 16 16 15 15 16 16 16 17 16 16 16 16 15 15 15 16 15 14 14 14 14 14 14 14 14 14 14 13 13 13 13 14 13 14 14 15 14 14
19 18 17 17 16 15 15 15 15 16 16 16 15 16 16 16 15 16 17 17 16 15 15 15 15 15 15 14 14 15 15 14 14 14 14 14 14 14 15 15 15 15
20 20 18 17 17 16 15 15 16 16 16 15 15 15 15 15 15 16 17 17 16 15 14 15 15 15 15 14 15 15 15 15 15 15 15 15 15 15 15 15 15 15
22 21 20 19 18 17 17 17 16 16 16 16 15 15 15 15 15 16 16 16 15 14 15 15 16 16 15 15 15 15 15 15 15 15 15 15 16 16 16 16 16 16
22 22 21 20 19 18 18 18 18 17 16 16 15 15 15 15 15 15 15 15 15 15 16 16 16 16 16 15 16 16 15 15 14 15 15 16 16 17 17 17 16 16
23 23 23 22 21 20 20 20 20 19 18 17 16 16 16 15 15 15 15 15 15 16 16 17 17 17 17 16 17 16 16 15 15 15 16 16 17 16 16 16 16 16
24 24 24 23 23 22 22 22 22 21 20 19 18 18 17 16 16 15 15 16 16 16 17 17 18 17 17 17 17 17 16 16 16 16 16 16 17 16 16 16 16 15
25 25 24 23 23 23 22 23 23 23 23 22 21 20 19 18 17 17 17 17 16 16 16 17 17 17 16 16 17 17 17 17 17 17 17 17 17 17 17 16 16 15
27 26 25 24 23 23 22 23 24 24 24 24 23 22 21 20 19 19 18 18 18 17 17 16 16 15 15 15 16 16 16 16 17 17 17 17 17 18 17 17 16 15
29 28 26 25 24 23 23 24 25 25 25 24 24 23 22 22 21 20 19 19 19 18 18 17 16 15 15 16 16 16 15 16 17 17 18 18 18 18 18 18 17 16
30 29 27 26 26 25 25 25 26 26 25 25 24 24 23 22 22 21 20 20 20 19 19 18 18 18 18 17 17 17 17 17 17 17 17 17 18 18 19 19 19 18
31 30 29 28 28 27 27 26 26 26 26 26 25 24 24 23 22 21 21 22 21 21 20 20 19 19 19 19 19 19 19 19 19 18 18 17 17 18 19 20 20 21
31 30 29 28 28 29 28 27 26 26 25 25 26 26 25 23 21 21 21 21 21 21 21 21 21 20 19 19 20 20 21 21 21 20 20 19 18 19 19 20 21 22
29 29 29 29 29 29 28 28 27 26 24 24 26 27 25 22 21 21 21 22 22 22 22 22 22 21 20 20 21 21 22 22 22 22 22 21 20 20 20 20 22 22
29 28 27 27 28 28 28 28 29 29 27 26 26 26 24 22 22 22 23 24 24 24 24 24 24 23 22 21 21 22 22 23 23 24 24 24 23 22 21 21 22 23
27 27 26 26 26 26 27 28 30 30 27 25 26 27 26 24 24 25 26 26 26 26 26 26 25 25 24 24 24 25 25 25 25 25 26 26 26 25 24 23 22 23
27 28 26 25 26 26 26 27 30 29 26 25 27 28 26 25 26 28 28 28 29 30 29 29 29 29 28 27 27 27 28 28 28 28 29 28 28 28 28 27 26 25
29 28 26 26 27 27 27 28 29 29 27 26 26 27 26 26 27 28 29 31 33 34 33 32 33 34 32 29 29 29 29 30 30 31 31 31 32 32 32 31 31 30
31 30 29 29 29 28 27 28 28 27 26 25 24 24 24 25 26 26 29 32 34 36 37 36 36 36 33 31 30 30 31 31 32 33 33 35 36 36 35 34 35 34

ECMWFNIL_700_spd_123.txt.gz
Wind_Speed
16 15 15 15 15 16 16 17 16 16 16 16 16 16 16 15 14 14 13 13 12 12 11 10 9 9 8 8 8 8 8 7 8 9 9 9 10 10 11 11 12 12
16 16 16 16 17 17 17 17 17 17 16 17 17 17 17 17 16 15 14 13 13 13 12 11 11 10 9 9 8 8 8 7 7 8 8 9 10 10 11 11 11 12
16 16 16 16 16 17 17 17 16 16 16 16 17 17 17 17 16 15 15 14 14 14 13 12 12 11 11 10 9 9 9 8 8 8 8 9 9 10 10 11 11 12
15 15 15 16 16 16 17 17 16 16 15 16 16 17 17 17 16 15 15 15 15 14 14 13 13 12 12 11 10 10 10 10 10 9 9 10 10 10 9 10 10 11
16 15 15 16 16 16 17 17 16 16 16 16 16 17 17 17 16 16 15 15 15 15 15 14 13 13 12 12 11 11 11 11 11 11 11 11 11 11 11 10 11 11
16 16 16 16 15 15 16 16 16 16 16 17 17 17 17 17 16 16 16 16 16 16 15 15 14 14 13 13 12 12 12 12 12 12 12 12 12 12 12 12 12 13
16 16 16 16 15 15 15 15 16 16 17 18 18 18 18 17 17 17 17 17 17 16 16 16 15 15 14 14 13 13 13 13 13 12 13 13 13 13 13 13 13 14
17 17 17 17 17 16 16 16 16 16 18 19 19 19 19 18 18 18 18 18 17 17 17 17 16 15 15 14 14 14 14 14 14 13 14 14 14 14 13 13 13 13
19 19 19 18 18 17 16 16 16 17 17 18 19 19 19 19 18 18 18 18 18 18 17 17 16 16 16 15 15 15 15 15 15 15 15 15 15 15 14 13 13 13
21 21 21 20 19 18 17 17 17 17 17 18 18 19 19 18 18 18 18 18 18 18 17 17 17 17 16 15 15 16 16 16 16 16 16 16 16 15 15 14 13 13
23 22 22 22 20 19 18 18 17 17 17 17 18 18 17 17 17 17 17 17 17 17 17 17 17 17 17 16 16 16 16 17 17 17 17 17 16 16 16 15 14 14
25 25 24 23 22 21 20 19 19 18 17 17 17 17 17 17 17 17 16 16 16 16 16 17 17 17 16 16 16 16 16 17 16 16 17 17 16 16 16 16 15 14
26 26 26 25 24 23 22 21 21 20 19 18 18 18 18 17 17 17 16 16 16 16 16 17 17 17 16 15 15 16 16 16 16 17 17 17 17 16 15 15 14 14
26 26 27 27 26 26 25 24 23 22 21 20 19 19 19 18 18 17 17 17 17 17 17 18 18 17 16 16 15 16 17 17 17 18 17 16 16 16 15 14 13 13
28 27 27 27 27 27 26 25 24 23 22 22 21 20 20 19 19 18 18 18 18 18 18 18 18 17 17 17 16 17 18 18 18 17 16 15 15 15 16 15 13 12
29 29 28 27 27 27 27 26 25 24 23 23 22 21 20 20 19 19 19 19 19 19 18 18 17 17 17 18 17 18 18 17 17 17 16 15 15 15 16 16 14 13
30 30 30 29 28 27 27 26 26 25 24 24 23 22 22 21 21 20 20 20 20 19 19 18 17 18 18 18 18 18 18 17 18 18 16 15 15 15 15 16 16 16
32 31 31 31 30 29 27 27 27 26 25 25 24 24 23 23 22 22 22 22 21 20 20 19 19 19 19 19 19 19 19 19 19 19 17 15 15 15 16 16 17 17
35 33 32 31 30 30 29 28 28 27 26 26 26 25 24 24 23 23 23 23 23 22 21 21 21 20 20 21 21 21 21 20 20 20 18 18 17 17 17 18 18 18
35 32 31 31 31 31 31 31 29 29 28 28 27 27 25 25 25 25 24 24 24 24 23 23 23 22 22 22 22 22 22 22 22 21 21 20 20 20 20 19 19 20
35 33 34 35 33 32 32 32 31 30 30 29 29 28 27 27 27 27 26 24 24 24 24 24 23 22 22 22 22 22 23 23 23 23 22 22 21 21 21 21 21 21
36 37 38 36 33 32 31 31 32 32 32 31 30 29 28 29 29 28 27 25 24 25 25 24 23 22 22 22 22 22 22 23 24 24 23 23 22 22 23 23 23 23
37 39 39 38 35 33 33 32 32 32 33 32 31 30 29 29 29 30 28 26 25 26 26 25 24 24 23 23 23 23 23 24 24 25 25 25 25 25 25 25 26 26
36 39 40 38 36 34 34 33 31 30 31 31 30 31 31 31 30 30 28 26 26 26 25 25 25 26 26 26 25 25 25 26 26 27 27 28 28 28 29 29 29 29
31 36 37 36 36 35 34 32 30 30 31 29 29 31 32 32 31 29 28 27 26 25 25 25 26 28 28 28 28 28 28 29 29 29 30 30 31 31 31 32 32 32
28 33 35 34 35 35 34 32 31 30 30 28 27 29 30 30 29 28 28 30 29 27 27 27 28 30 32 33 33 33 32 31 32 32 32 32 33 33 33 34 34 33